GFSSE_850_temp_000.txt.gz
Temp
16 16 16 16 18 17 17 17 16 16 16 16 16 16 16 16 16 16 17 17 17 17 17 18 18 16 15 15 14 14 14 15 15 14 15 15 15 15 14 15 14 15 16
17 16 16 17 17 17 17 16 17 16 16 16 16 16 16 16 16 16 17 17 17 16 16 18 19 18 16 15 14 13 13 14 14 14 14 14 14 14 15 15 15 14 15
16 16 17 17 17 17 17 17 17 16 15 15 16 16 16 15 16 16 16 16 16 16 16 16 18 16 15 16 15 14 13 13 14 14 14 14 14 14 14 14 14 15 14
16 16 17 17 18 18 18 17 16 16 16 16 16 16 16 15 15 15 15 15 15 15 15 16 16 14 16 15 17 15 14 14 14 14 14 14 14 14 14 14 14 14 14
16 16 16 17 17 17 17 17 17 16 16 16 16 15 15 15 15 15 15 15 15 15 15 15 15 14 15 16 17 16 15 15 15 14 14 14 14 14 14 14 14 14 14
16 16 16 17 17 17 17 16 16 16 16 16 16 16 15 15 14 14 15 15 15 14 13 14 15 14 14 14 15 15 16 14 16 15 14 14 14 14 14 14 14 14 13
16 16 17 16 16 16 16 15 15 15 16 15 15 15 15 15 15 14 14 14 14 14 14 14 14 13 13 13 13 14 13 15 15 15 14 14 13 14 13 14 14 14 14
17 16 16 16 16 16 16 16 16 16 16 15 15 15 15 15 14 14 14 13 13 12 13 13 14 14 14 13 14 14 14 13 14 13 13 13 13 13 14 13 14 14 14
17 16 15 15 15 15 15 15 15 15 15 15 15 15 15 15 15 15 14 14 13 13 13 13 13 14 13 12 13 13 13 14 14 13 12 12 13 13 13 13 13 14 14
16 16 16 16 16 15 16 15 14 15 14 14 14 15 15 15 15 15 14 14 14 13 12 12 12 12 12 11 12 12 12 13 12 12 12 13 13 13 13 13 13 13 13
16 16 16 16 16 16 15 15 14 14 14 14 14 14 14 14 14 14 14 14 13 13 13 12 11 11 11 11 11 11 12 12 12 12 13 12 13 13 13 13 13 13 13
16 16 16 16 16 15 15 14 13 13 14 14 14 14 14 14 14 14 14 14 13 13 13 13 12 11 11 11 11 11 11 11 11 11 12 12 13 12 12 13 13 13 13
17 17 17 17 17 16 15 14 13 13 13 13 14 13 13 14 14 14 13 13 13 13 12 11 12 12 11 10 11 11 11 11 11 11 11 11 12 12 12 12 12 12 12
17 17 17 17 16 16 15 14 13 13 13 13 13 12 13 13 13 13 14 13 13 13 13 12 11 11 11 11 10 11 10 10 10 11 10 10 11 11 11 12 12 11 12
17 17 17 17 16 16 15 14 13 13 13 13 13 13 13 13 13 13 13 13 13 12 12 12 12 11 11 11 11 10 10 10 10 10 10 10 10 11 11 10 11 11 11
18 18 17 17 16 16 15 14 13 13 12 12 12 12 12 12 12 12 12 12 12 12 12 12 11 11 11 11 11 11 10 10 9 9 9 10 11 11 11 11 10 11 11
18 18 17 16 16 16 15 14 14 13 13 13 13 12 12 12 12 11 11 11 11 11 11 11 10 10 10 10 10 10 10 9 10 9 9 9 9 10 10 10 11 10 10
18 17 17 16 16 15 15 14 13 13 12 12 12 12 12 11 11 11 10 9 9 9 9 10 9 9 9 9 9 9 10 9 9 9 9 9 9 10 10 10 10 10 10
18 17 16 16 15 15 14 13 13 12 12 11 11 11 11 11 10 10 10 9 8 8 8 8 8 8 8 8 8 8 8 8 8 8 8 8 9 9 9 10 9 9 10
17 16 16 16 15 15 14 13 13 12 12 11 10 10 11 10 9 9 9 9 8 8 8 8 7 7 7 7 7 7 7 7 7 7 7 7 7 7 7 8 9 10 9
17 16 16 15 15 14 14 14 13 13 12 11 11 10 10 9 10 9 9 8 8 7 7 7 7 7 6 6 6 6 6 6 6 6 6 6 6 6 6 7 6 7 8
17 16 16 15 14 14 14 13 13 12 12 11 11 10 10 9 9 9 9 9 8 7 7 7 7 6 6 6 6 5 5 5 5 5 5 6 6 6 6 6 6 7 7
16 16 15 14 14 14 13 13 12 12 12 12 11 11 10 10 9 9 9 9 8 7 7 7 6 6 6 6 5 5 4 4 4 4 4 4 4 5 5 5 6 6 6
15 15 15 14 14 13 13 13 12 12 12 12 12 11 10 10 10 9 8 8 7 7 7 6 6 6 5 5 5 4 4 3 3 2 3 3 3 3 4 4 5 5 6
15 14 14 14 13 13 12 12 12 12 12 11 12 11 11 10 10 9 8 8 7 7 6 6 5 5 4 4 4 4 3 3 3 2 1 2 2 2 3 3 4 5 5
14 13 13 12 12 12 12 12 12 11 11 11 11 11 11 10 9 9 8 7 7 6 6 5 4 3 4 3 3 2 2 2 1 1 1 1 1 1 2 2 3 4 4

GFSSE_850_temp_003.txt.gz
Temp
16 16 15 15 15 15 16 16 17 17 16 16 16 16 16 16 16 16 16 16 16 16 16 16 16 17 17 18 18 17 16 16 15 15 16 16 15 15 15 15 14 15 15
16 16 15 15 15 16 17 16 16 16 16 16 16 16 16 16 16 16 15 15 16 16 15 15 16 16 16 17 16 17 17 17 16 15 15 16 16 15 14 14 14 15 15
16 16 16 16 15 17 17 17 16 17 16 15 15 15 15 15 15 15 15 15 15 16 15 16 15 15 15 16 16 16 16 18 16 15 15 15 16 15 15 14 14 14 14
15 16 16 17 17 16 16 16 16 15 15 15 16 15 15 15 14 14 14 14 14 14 15 15 15 14 15 15 15 16 16 17 16 15 16 15 15 15 14 14 14 14 14
16 16 16 17 17 17 17 17 16 16 16 15 15 15 15 14 14 14 14 14 14 14 15 15 14 14 14 15 14 14 14 15 16 14 15 15 14 14 14 14 14 14 14
16 16 16 16 17 17 17 17 17 17 17 16 16 16 16 16 15 15 15 15 15 15 14 14 14 14 14 14 14 14 14 14 15 14 13 14 14 13 14 14 14 14 14
16 16 16 17 17 17 17 16 16 16 16 16 16 16 16 15 15 15 15 15 15 14 13 13 13 14 14 14 14 13 13 14 14 13 13 13 13 13 14 14 13 13 14
17 17 16 16 17 16 17 16 16 16 16 15 15 15 15 15 15 15 15 14 14 13 13 13 13 14 14 14 13 13 13 13 13 13 13 13 13 13 13 13 13 13 13
17 17 17 17 17 17 17 16 16 15 15 15 15 15 15 15 14 14 14 14 13 12 13 13 13 13 13 13 13 12 13 12 12 12 12 13 14 13 13 13 13 13 13
16 17 17 17 17 17 16 15 14 14 14 14 14 14 14 14 14 14 14 14 13 13 12 12 12 12 12 12 12 12 12 11 11 12 12 13 13 13 13 13 13 13 13
16 16 16 16 16 17 17 15 14 13 14 14 14 14 14 14 14 14 14 14 13 13 12 12 11 11 11 11 10 11 11 11 11 12 12 12 12 12 13 13 13 13 12
16 16 16 16 16 16 16 15 13 13 13 13 13 13 14 14 14 14 14 14 13 13 12 12 11 11 10 10 11 11 11 11 11 11 11 11 12 12 12 12 12 13 12
16 16 16 16 16 16 15 14 14 13 13 13 13 13 13 14 14 14 14 14 14 14 13 13 12 12 11 11 10 11 11 11 11 12 12 11 10 11 11 11 12 12 12
16 16 16 16 16 16 16 15 14 13 13 13 13 13 13 13 13 13 13 13 13 13 13 13 13 13 12 11 11 11 11 11 11 11 11 11 11 10 10 11 11 12 12
17 17 16 16 16 16 16 15 14 13 13 12 12 13 13 13 13 13 12 13 13 12 12 12 12 12 12 12 11 11 11 10 10 10 10 10 10 10 10 10 11 11 11
17 17 17 17 16 16 15 15 14 13 12 12 12 11 12 12 12 12 12 12 12 11 11 11 11 11 11 11 11 11 11 10 10 10 10 10 10 10 10 10 10 11 10
18 18 17 17 16 15 15 14 14 13 12 12 12 12 11 11 11 11 11 11 11 10 10 10 10 10 10 10 10 10 10 10 9 9 9 9 10 10 10 10 9 10 10
18 18 17 16 16 15 15 14 14 13 13 12 12 11 11 11 11 10 10 10 10 10 10 10 9 9 9 9 9 9 9 9 9 9 8 8 8 9 10 10 9 9 9
17 17 17 16 15 15 15 14 14 14 13 12 12 11 11 10 10 10 10 10 9 9 9 9 9 9 9 9 9 9 9 9 8 8 7 7 7 7 7 8 9 8 9
17 17 16 16 15 15 14 14 14 14 13 13 12 12 11 11 10 10 9 9 9 9 9 9 8 8 8 8 8 8 8 8 8 8 7 6 6 6 6 6 7 7 8
16 16 16 15 15 14 14 14 13 13 13 12 12 12 11 11 11 10 10 9 9 9 9 8 8 8 7 7 6 7 8 8 7 7 7 6 6 6 6 6 6 6 6
16 16 15 15 15 14 14 13 13 13 13 12 12 12 11 11 11 11 10 10 9 9 9 8 8 7 7 7 6 6 6 7 7 7 6 5 5 4 4 5 5 6 6
16 15 15 15 14 14 13 13 12 12 12 12 12 12 12 11 11 10 10 9 9 9 8 8 8 7 7 6 6 5 5 4 5 5 5 4 4 4 3 3 4 5 5
15 15 15 14 14 13 13 12 12 12 12 11 11 11 11 11 11 10 10 10 9 8 8 7 7 6 6 6 5 5 5 4 3 3 4 3 3 3 3 3 3 4 4
15 15 14 14 13 13 12 12 12 12 11 11 11 10 11 11 10 10 9 9 9 8 7 7 6 5 5 5 5 4 4 3 2 2 1 3 2 2 2 2 2 2 3
14 13 13 12 12 12 12 12 11 11 11 11 10 10 10 10 10 10 9 9 8 6 6 4 4 4 3 2 3 2 2 2 2 2 1 1 1 1 1 1 1 1 2

GFSSE_850_temp_006.txt.gz
Temp
15 15 14 15 16 16 16 16 16 15 16 17 17 16 15 15 15 15 15 15 15 15 15 15 15 16 16 16 16 17 17 17 18 18 17 17 16 16 16 16 15 15 15
15 15 15 14 16 16 16 16 15 15 16 16 16 16 15 15 14 14 15 15 15 15 14 15 15 15 15 16 16 16 16 17 16 17 18 17 17 15 15 16 16 15 14
15 15 15 15 15 16 16 16 15 15 15 15 15 15 15 15 14 14 14 14 15 15 15 15 14 14 15 15 15 15 15 16 16 16 15 16 17 16 15 15 15 15 15
15 16 15 15 15 16 16 16 16 16 16 16 16 16 15 14 14 14 14 14 14 15 15 14 14 14 14 14 14 13 13 14 14 15 16 15 15 16 15 14 14 15 15
16 16 16 16 17 16 17 16 17 16 16 16 17 16 15 15 14 14 14 14 14 14 14 14 14 13 14 14 14 13 13 13 13 14 14 14 14 15 14 14 14 14 14
16 16 16 16 17 17 18 18 18 18 18 17 17 16 16 15 14 14 14 15 15 14 13 13 13 13 13 13 13 13 13 13 14 13 13 13 14 15 14 14 13 14 14
17 17 17 17 18 18 18 18 17 17 17 16 16 16 16 15 15 15 15 14 14 14 13 13 13 13 13 12 12 12 12 12 12 12 13 13 13 14 13 14 13 13 14
17 17 17 17 17 17 16 16 16 16 15 15 15 14 14 14 14 15 15 15 14 14 13 13 13 13 14 13 13 13 12 12 12 12 13 13 13 13 13 14 14 13 13
17 17 17 17 16 16 16 15 15 15 15 14 14 14 14 14 14 14 14 14 14 13 13 13 13 13 13 12 12 12 11 11 12 12 12 13 12 12 13 13 13 13 13
16 16 16 16 16 17 16 16 15 14 14 14 14 14 14 14 14 14 14 14 14 14 13 13 13 13 12 12 12 11 11 11 11 11 12 12 12 12 12 12 13 13 13
16 16 16 16 16 17 17 16 15 14 14 13 13 14 14 14 14 14 14 14 14 14 13 13 13 13 13 12 11 11 11 11 11 11 11 11 11 11 12 13 13 13 13
16 16 16 16 16 16 16 15 15 14 14 14 13 13 13 13 13 13 14 14 14 14 13 13 13 12 13 12 12 11 11 11 11 11 11 11 11 12 12 12 12 12 12
17 16 16 16 16 16 15 15 14 14 14 14 13 13 13 13 13 13 14 13 13 13 13 13 13 12 11 11 11 11 11 11 11 11 10 11 11 11 12 12 12 12 12
17 16 16 16 16 16 15 15 15 14 13 13 12 12 13 13 13 13 13 13 13 13 13 13 12 12 12 11 11 11 11 11 12 11 11 10 10 10 10 11 11 11 11
17 16 16 16 16 16 15 15 14 14 13 13 12 12 12 12 12 12 12 12 12 12 12 12 11 11 11 11 11 11 11 11 11 11 11 10 10 10 10 10 11 11 11
17 16 16 16 16 16 15 14 14 14 13 13 12 12 11 11 11 11 11 11 11 11 11 11 10 10 10 11 11 11 11 11 11 11 10 11 10 10 9 10 10 11 11
18 16 16 16 15 15 15 14 14 13 13 13 12 12 11 11 11 11 11 11 10 10 10 10 10 10 10 10 10 10 10 10 10 10 10 9 9 10 10 10 9 9 10
18 17 16 16 15 15 15 14 14 14 13 13 12 12 12 11 11 11 11 10 10 10 10 10 9 9 9 9 9 9 9 9 9 9 8 8 8 8 7 8 8 9 9
17 16 16 16 15 15 15 14 14 14 13 13 13 12 12 12 11 11 11 10 10 10 10 9 9 9 9 9 9 9 9 9 9 8 8 8 8 7 7 6 6 7 7
16 16 16 15 15 15 14 14 14 13 13 13 12 12 12 12 11 11 11 11 10 10 10 9 9 9 9 8 8 8 8 8 8 8 8 7 7 7 6 6 6 6 6
16 16 15 15 15 15 14 14 13 13 13 12 12 12 12 12 11 11 11 11 10 10 10 9 9 9 8 8 8 8 8 8 7 8 8 7 6 6 6 6 6 5 5
16 16 16 15 15 14 14 13 13 12 12 12 12 12 11 11 11 10 10 11 11 10 10 9 9 9 8 8 7 7 7 7 7 7 7 7 6 5 5 5 5 5 5
16 15 15 15 14 14 13 13 12 12 12 12 11 11 11 11 10 10 10 10 10 10 10 9 9 9 8 8 7 6 6 6 7 6 6 7 6 5 4 4 4 4 5
15 15 14 14 14 13 12 12 11 11 11 11 10 10 10 10 10 10 10 10 9 9 9 9 8 8 7 7 6 5 5 5 5 5 5 5 5 4 4 3 3 4 4
15 14 13 13 12 12 12 11 11 11 10 10 10 9 9 9 9 9 9 9 9 9 8 8 7 7 6 5 5 4 4 4 3 2 2 3 4 4 3 2 2 3 3
13 12 12 12 12 11 11 11 10 9 9 9 9 9 9 9 8 8 8 8 8 7 6 5 6 5 4 4 2 1 1 1 0 -1 -1 -0 1 3 2 1 1 1 2

GFSSE_850_temp_009.txt.gz
Temp
15 15 15 16 15 15 15 15 16 17 16 16 16 16 16 15 15 15 15 14 15 15 14 14 14 14 15 15 15 15 15 15 15 16 16 16 16 17 16 16 16 16 16
15 15 15 15 15 15 15 15 15 16 16 15 16 16 16 15 15 15 14 14 14 13 14 14 14 14 14 15 14 14 14 15 15 15 15 15 15 15 16 15 15 16 16
16 16 16 16 16 16 15 15 16 16 16 16 15 16 15 15 14 14 14 14 14 14 14 15 14 15 14 14 14 14 14 14 14 14 14 15 15 15 16 16 15 15 15
16 17 17 17 17 17 17 17 16 16 16 16 16 15 15 15 15 14 14 14 14 15 15 14 15 14 14 13 13 13 13 14 13 13 14 14 14 14 15 15 15 15 14
17 17 17 17 17 17 18 17 17 16 16 16 16 15 15 15 14 14 13 14 14 14 14 14 14 14 13 13 13 13 13 13 13 13 13 13 13 13 14 14 15 14 14
17 17 17 17 17 17 16 16 17 16 16 15 14 15 15 14 14 13 14 14 14 14 14 14 13 13 13 13 13 13 13 13 13 13 13 13 13 13 14 14 14 14 13
17 17 17 17 17 17 17 17 16 16 16 16 16 15 15 15 14 14 14 14 13 13 13 13 13 13 13 13 13 13 13 12 12 13 13 13 12 13 13 13 13 13 13
17 17 17 17 17 17 17 16 16 15 15 15 15 15 15 14 14 14 14 14 14 14 14 13 13 13 13 13 13 13 13 12 13 12 12 12 13 12 12 13 13 13 13
16 16 16 17 17 17 16 15 15 14 14 14 14 14 14 14 14 14 14 14 14 14 13 13 13 13 13 12 12 12 12 12 12 12 12 12 12 13 12 12 13 13 13
16 16 16 16 16 16 16 15 15 15 14 14 14 14 14 14 14 14 14 14 14 14 14 14 13 13 13 12 12 11 11 11 11 11 11 12 12 12 13 12 12 13 13
16 16 16 16 16 16 16 15 15 15 14 14 14 14 14 14 14 14 14 14 14 14 14 13 13 13 13 12 12 12 11 11 11 11 11 11 11 12 12 11 12 13 13
16 16 16 16 16 16 16 15 15 15 14 14 14 13 13 13 13 13 13 13 13 13 13 13 13 13 12 12 12 12 11 11 11 11 11 11 11 11 12 12 12 12 12
16 16 16 16 16 16 15 15 15 15 14 14 14 13 13 13 13 13 13 13 13 12 12 12 12 12 12 11 11 11 11 11 11 11 11 11 11 11 11 11 12 12 12
17 16 16 16 16 16 15 15 14 14 14 13 13 13 12 12 12 12 12 12 12 12 12 12 12 11 11 11 11 11 11 11 11 11 10 10 10 11 11 11 11 11 11
17 16 16 15 16 15 15 15 14 14 13 13 13 12 12 12 12 12 12 12 12 12 11 11 11 11 11 11 11 11 11 10 10 10 10 10 10 10 11 11 11 11 11
17 16 16 16 16 15 15 15 14 14 13 13 13 13 12 12 12 11 11 11 11 11 11 11 10 10 10 10 10 10 10 10 10 10 10 10 10 10 10 10 10 10 10
17 16 16 16 15 15 15 14 14 14 13 13 13 13 12 12 12 11 11 11 11 10 10 10 10 10 10 10 10 10 10 10 10 9 9 9 9 9 9 10 10 10 10
18 17 16 16 15 15 15 14 14 14 14 13 13 13 12 12 12 12 11 11 11 10 10 10 10 10 9 9 9 9 9 9 9 9 9 9 8 8 8 8 9 9 9
18 17 16 16 15 15 14 14 14 14 13 13 12 12 12 12 12 11 11 11 11 11 10 10 10 10 10 9 9 9 9 9 8 8 9 8 8 8 8 7 7 8 8
17 16 15 15 15 15 15 14 14 13 13 12 12 12 12 11 11 11 11 11 10 10 11 11 10 10 9 9 9 9 9 8 8 8 8 8 8 8 8 7 7 7 7
17 16 16 15 15 14 14 13 13 13 13 12 12 12 11 11 11 11 11 10 10 9 9 10 9 9 9 9 8 8 8 8 8 7 7 7 7 8 8 7 7 6 6
16 15 15 14 14 13 13 13 12 12 12 12 12 12 11 11 11 11 10 10 10 10 10 9 9 9 9 9 8 7 7 7 7 7 7 6 6 6 7 7 6 6 5
15 15 14 13 13 13 12 12 11 11 11 11 11 11 11 10 10 9 9 9 9 9 10 10 9 8 8 8 9 8 7 7 7 7 6 6 5 6 6 5 5 5 5
14 14 13 13 12 11 11 11 11 11 10 10 9 9 9 9 9 9 9 9 8 8 8 9 9 8 7 7 6 7 7 7 6 7 5 5 4 4 4 4 4 4 4
12 12 12 11 11 11 11 11 10 10 9 9 9 9 9 9 9 9 8 8 7 7 7 7 8 7 5 5 5 5 5 4 4 3 4 4 2 2 2 3 3 3 3
11 11 11 11 11 11 11 10 9 9 8 8 8 8 8 8 8 8 7 6 6 6 6 5 5 3 1 2 3 3 3 2 2 0 0 0 -0 0 0 1 1 1 2

GFSSE_850_temp_012.txt.gz
Temp
15 14 16 15 15 16 16 16 16 16 16 16 16 16 15 15 16 15 15 15 15 14 14 14 14 14 14 15 15 15 15 15 15 15 15 15 16 16 15 15 15 14 15
15 14 16 16 16 16 16 16 16 16 16 16 15 15 15 15 15 15 15 14 14 14 14 14 14 15 14 14 15 15 15 14 15 15 15 15 15 16 15 15 15 15 14
15 15 16 17 16 16 16 16 16 16 15 15 15 15 15 15 14 14 14 14 14 14 14 15 15 15 15 14 14 15 14 14 14 14 15 14 15 15 15 14 14 15 14
16 16 16 16 16 16 16 15 15 15 15 14 14 14 14 14 14 13 13 14 14 14 14 14 14 14 14 14 14 14 14 14 14 14 14 14 14 14 14 14 14 14 14
17 16 16 17 17 17 16 16 16 16 15 15 15 15 14 14 14 14 14 14 14 14 14 14 14 14 13 13 13 14 14 13 13 13 14 13 14 13 14 14 14 13 14
15 16 17 17 17 17 17 17 17 16 16 15 15 15 14 14 14 14 14 14 14 14 14 14 14 13 13 13 13 13 14 14 14 13 13 13 13 13 13 13 14 14 13
15 17 17 17 17 17 17 17 16 16 15 15 15 15 15 15 14 14 14 14 14 14 14 13 13 13 13 13 13 13 13 13 12 13 13 13 12 13 14 14 13 14 13
16 17 17 17 17 17 16 16 16 15 15 15 15 15 15 15 14 14 14 14 14 14 14 13 13 12 12 13 13 13 13 13 12 12 12 12 12 13 13 13 13 13 13
16 16 16 16 17 16 16 15 15 14 14 14 14 14 14 14 14 14 14 13 13 13 13 13 13 13 13 13 13 12 12 12 12 11 11 12 11 12 12 13 13 13 13
15 15 16 16 16 16 15 15 15 15 14 14 14 14 14 14 14 14 13 14 13 14 13 13 13 13 12 12 12 12 11 11 11 11 11 11 11 12 12 12 12 12 12
15 16 16 15 16 16 16 15 15 15 14 14 14 14 14 12 13 13 13 13 13 13 13 13 13 13 12 13 12 12 12 10 10 11 11 11 11 11 11 12 11 12 13
15 15 16 16 16 16 16 15 14 14 13 13 13 14 13 13 13 13 13 13 13 13 13 13 13 13 12 10 10 11 10 12 10 10 10 11 11 11 11 11 11 11 11
16 16 15 16 16 16 14 14 13 13 13 13 14 14 13 13 12 11 11 10 11 11 11 11 11 10 11 11 10 10 10 11 10 10 10 11 11 11 11 11 11 11 11
17 16 15 15 16 16 14 14 13 13 13 12 12 13 12 11 11 11 11 10 10 10 10 10 10 11 11 11 11 11 11 11 10 10 9 11 11 11 11 11 11 11 11
17 16 15 14 15 15 15 14 14 14 12 12 12 12 13 11 11 11 11 10 10 10 10 9 9 9 9 10 10 9 9 9 10 9 9 11 11 11 12 11 11 11 11
17 16 15 15 16 16 15 15 15 14 13 13 12 12 13 12 11 11 10 10 10 10 10 9 9 9 9 9 9 10 9 9 8 9 9 9 10 10 11 11 11 11 11
17 16 15 16 15 15 15 15 15 14 14 12 12 13 12 12 11 12 10 10 10 10 10 9 9 9 9 9 9 9 9 9 8 8 9 8 8 10 10 10 11 11 11
16 16 15 16 15 15 15 14 14 13 13 13 13 12 12 12 12 12 10 10 10 10 9 9 9 9 9 9 9 9 9 8 8 7 7 8 8 8 8 9 9 9 10
17 17 15 15 15 15 15 14 14 14 13 12 13 12 12 12 11 11 11 11 10 10 10 9 9 9 9 9 9 9 9 8 8 8 7 7 7 7 8 8 9 9 9
17 16 14 14 14 15 14 14 13 13 13 13 12 12 12 12 11 11 11 11 10 9 9 9 9 9 9 9 9 10 9 8 8 8 8 7 7 6 6 6 7 7 8
16 15 13 13 15 14 13 12 12 12 12 11 11 11 11 11 11 11 10 9 9 8 8 9 8 8 8 8 8 9 9 8 7 8 8 8 7 6 6 5 6 6 6
15 15 14 14 14 13 13 13 12 12 11 11 10 11 11 11 11 10 9 9 8 8 7 7 7 7 8 8 8 8 9 10 9 7 7 7 7 7 6 5 5 6 6
15 14 14 13 13 12 12 10 10 10 10 10 10 9 10 10 10 9 8 8 8 7 7 7 7 7 8 8 8 7 9 10 10 10 7 7 6 5 6 5 4 4 5
14 13 12 12 11 11 11 10 11 9 9 8 8 7 8 8 8 8 8 9 8 7 6 6 6 6 6 7 7 8 7 7 8 10 8 6 6 5 4 4 4 3 3
11 11 10 10 10 11 10 10 8 7 7 7 6 6 6 6 6 6 6 8 7 6 6 6 5 4 4 5 5 6 6 5 5 5 8 7 5 4 4 3 3 3 3
10 11 11 10 9 10 10 9 9 7 6 6 6 5 6 5 5 5 5 6 5 4 3 3 2 2 1 2 2 2 2 2 3 3 4 6 7 4 3 3 2 2 2

GFSSE_850_temp_015.txt.gz
Temp
18 17 17 17 17 17 17 16 16 16 16 16 15 15 15 15 15 15 15 15 15 15 14 15 15 15 15 15 16 16 16 15 15 15 16 16 16 16 16 15 15 14 15
17 15 16 17 17 16 16 16 16 15 15 15 15 14 14 14 14 14 15 14 14 14 14 14 14 15 15 15 15 15 15 16 15 15 16 16 15 15 16 15 15 14 14
17 16 17 17 16 16 16 15 15 15 15 15 15 15 15 15 15 15 14 15 14 14 14 14 15 15 15 15 14 14 15 15 14 15 15 16 15 15 15 15 15 15 15
17 17 16 17 16 16 16 16 16 15 15 15 15 15 15 14 14 14 14 14 14 14 14 14 14 14 14 14 14 14 14 13 14 14 15 15 15 15 15 15 15 15 14
17 16 17 17 17 17 17 16 16 16 15 15 15 15 15 14 15 14 14 14 14 14 14 14 14 14 14 13 14 14 14 13 13 14 14 15 15 14 15 15 15 14 14
17 16 17 17 17 17 17 16 16 16 15 15 15 15 15 15 14 14 14 14 14 14 14 14 13 13 13 13 13 13 14 14 14 13 14 15 14 14 14 14 14 14 14
17 16 17 17 17 17 17 16 16 16 15 15 15 14 14 14 14 14 14 14 14 14 14 13 13 13 13 13 13 13 13 14 14 13 13 13 13 13 13 13 14 14 13
17 16 17 17 17 17 16 16 15 15 15 14 14 14 14 14 14 14 14 14 14 14 14 14 14 13 13 13 13 13 13 13 13 14 14 13 13 13 13 13 13 13 13
17 17 16 16 17 16 16 16 15 15 15 14 14 14 14 14 14 14 14 14 14 14 14 14 13 13 13 13 13 13 13 13 13 13 13 13 13 13 13 12 13 12 13
17 17 16 16 16 15 15 15 15 15 15 14 14 14 14 14 13 13 13 13 13 13 13 13 13 13 13 13 13 13 13 13 12 13 14 13 12 12 12 12 12 13 12
17 17 17 16 15 15 15 15 15 15 15 14 14 14 13 13 12 12 12 13 13 13 13 13 12 12 12 12 12 12 12 12 12 13 13 13 12 12 11 12 12 12 12
17 17 17 16 15 15 15 14 14 14 14 13 13 13 13 12 12 12 12 12 12 12 12 11 11 12 12 12 12 11 12 11 11 12 12 12 12 12 11 12 12 12 12
18 18 17 15 15 15 15 15 16 15 14 14 13 12 12 12 12 12 12 12 12 11 11 11 11 11 10 10 10 10 11 11 12 12 12 11 12 12 12 12 12 12 12
19 18 17 16 15 16 16 16 15 15 15 14 14 12 12 13 12 12 12 12 12 12 11 11 11 11 10 10 10 9 10 10 11 11 11 11 12 12 12 12 11 11 12
19 19 18 16 15 15 15 15 14 14 14 14 13 13 12 12 12 12 12 12 12 12 12 11 11 11 11 10 10 10 10 10 9 10 11 10 11 11 11 12 12 12 11
19 19 18 17 15 15 15 14 14 14 14 13 13 13 13 12 11 11 11 12 12 12 12 11 11 10 10 10 10 10 9 9 10 10 10 10 10 10 11 11 11 12 12
19 19 18 17 16 14 14 14 14 14 13 14 13 12 12 12 11 11 11 11 11 11 11 11 11 11 10 10 10 10 10 9 9 9 9 9 9 9 10 10 11 11 11
19 19 18 17 15 14 15 14 14 14 13 13 13 13 12 11 11 12 11 11 11 11 11 11 11 11 11 11 11 10 10 10 10 9 9 9 9 9 9 9 10 10 10
19 18 18 16 15 15 14 14 13 13 13 14 13 13 12 11 11 11 12 11 10 10 10 10 10 10 10 11 11 11 11 10 10 10 9 9 8 9 9 9 9 9 9
17 16 17 15 15 14 14 13 13 13 13 13 13 13 11 11 10 10 10 10 10 9 10 10 10 9 10 10 10 11 11 11 10 10 10 9 9 8 8 8 8 8 9
15 16 16 14 13 14 14 13 14 13 13 13 12 11 10 10 10 9 9 9 9 9 9 9 9 9 9 9 9 9 10 10 10 10 9 9 9 8 8 7 7 8 8
14 14 14 13 12 13 13 12 12 12 12 11 11 11 10 9 9 9 8 8 8 8 8 8 8 8 8 8 9 9 9 10 10 10 10 9 9 9 8 7 7 7 7
13 13 13 12 11 11 12 12 12 12 12 12 11 10 9 8 8 7 7 7 7 6 7 7 7 7 7 8 8 8 9 10 10 11 11 9 9 9 8 8 7 6 6
12 12 12 11 11 10 11 10 11 10 10 10 9 9 8 7 7 7 7 6 6 5 5 5 6 6 6 6 7 7 8 8 7 8 9 9 8 8 7 7 7 5 5
12 11 11 11 11 10 9 10 9 9 8 8 8 8 7 7 6 6 6 5 5 4 4 4 4 4 4 4 5 5 5 6 6 5 5 7 8 7 6 5 6 6 5
12 11 11 11 11 10 9 8 8 7 7 7 7 6 6 5 5 5 4 4 3 3 3 3 2 2 1 2 2 1 1 1 2 1 2 4 5 5 4 3 3 4 4

GFSSE_850_temp_018.txt.gz
Temp
18 18 17 17 16 16 16 16 16 16 16 16 16 16 15 15 15 15 15 15 15 15 15 15 15 15 15 15 15 15 16 16 16 16 16 16 17 17 17 16 15 15 16
17 17 17 17 16 16 16 16 16 16 16 15 15 15 15 15 15 14 14 14 14 14 14 15 15 15 15 15 15 15 15 15 15 15 16 16 15 15 15 16 16 15 15
18 17 17 17 17 16 16 16 16 16 15 15 15 15 15 15 14 14 14 14 14 14 14 14 14 15 15 15 15 15 15 15 15 15 15 15 14 15 15 15 15 16 15
16 16 17 17 17 16 16 16 16 15 15 15 15 15 15 15 15 14 14 14 14 14 14 14 15 15 15 14 14 15 15 14 14 14 15 15 14 13 14 15 15 15 14
17 17 17 17 17 17 17 17 16 16 15 15 15 15 15 15 14 14 14 14 14 14 14 14 14 14 14 14 14 14 14 14 14 15 15 14 14 12 13 14 14 14 14
17 18 18 18 18 17 17 16 16 16 15 15 15 15 15 14 14 14 14 14 14 14 14 14 14 14 14 13 13 14 14 14 14 14 13 14 14 12 12 13 14 14 13
18 18 18 18 17 17 17 17 16 16 15 15 15 15 14 14 14 14 14 14 14 14 14 14 14 14 14 14 14 14 14 14 14 14 13 13 14 14 13 13 14 13 13
17 18 18 17 17 17 16 16 15 15 15 15 14 14 14 14 14 14 14 14 14 14 14 14 14 14 14 14 14 14 14 14 14 13 13 14 14 13 13 13 13 13 13
17 17 17 17 16 16 16 16 15 15 15 15 14 14 14 14 13 14 14 13 13 14 14 13 13 13 14 14 14 14 14 14 14 13 13 13 14 13 13 13 13 13 13
17 17 16 16 15 15 15 15 15 15 15 15 14 14 13 13 12 12 13 13 13 13 13 13 13 13 13 13 13 13 13 13 12 13 13 13 13 13 13 13 12 12 13
18 17 17 16 16 15 15 15 15 15 14 14 13 13 13 13 13 12 12 12 12 12 12 12 12 12 12 12 12 12 12 12 12 13 12 13 13 12 13 12 12 12 12
18 17 17 16 16 16 16 15 15 15 14 14 13 13 13 13 12 12 12 12 12 12 12 11 11 11 11 11 11 11 11 11 12 13 12 12 12 12 13 13 12 12 12
18 18 17 16 15 15 16 16 16 15 15 14 13 13 13 13 13 12 12 12 12 12 12 11 11 11 11 11 11 10 11 11 11 12 12 12 12 12 13 13 12 12 12
19 18 17 16 16 16 16 15 15 15 15 14 14 13 14 13 13 13 12 12 12 12 12 12 11 11 11 11 10 10 10 10 11 11 11 11 11 12 12 13 13 13 12
19 19 18 17 16 15 16 15 15 15 14 14 13 13 14 14 14 13 12 12 12 12 12 12 11 11 11 11 11 11 10 10 10 10 11 11 11 11 11 12 12 12 12
20 19 18 17 16 16 15 15 15 14 14 14 14 13 14 13 13 13 13 13 12 12 11 12 11 11 11 11 10 10 10 10 10 10 10 10 10 10 11 11 12 12 12
20 20 19 17 16 16 15 15 14 14 14 14 14 13 13 13 13 13 13 12 12 12 12 11 11 11 11 11 11 11 11 11 10 10 10 9 9 10 10 10 11 11 12
20 19 19 18 16 16 15 15 15 14 14 14 13 13 13 12 12 12 12 12 11 11 11 11 11 11 10 10 10 11 11 11 11 10 10 10 9 9 9 9 10 10 11
20 19 19 17 16 15 15 14 14 14 14 13 14 13 13 12 11 11 11 12 11 11 11 11 10 10 10 10 10 10 11 11 11 11 10 10 9 9 9 9 9 9 10
18 18 18 16 16 15 14 14 14 14 14 13 13 13 13 12 11 10 10 10 9 9 9 9 9 9 10 9 9 9 9 10 10 10 10 10 10 9 9 9 8 8 9
16 17 16 16 14 14 14 14 14 14 13 13 13 12 11 10 10 10 9 9 9 9 8 8 8 8 8 8 8 8 9 9 9 10 10 10 10 10 9 9 8 8 8
15 15 14 14 13 13 13 12 12 12 12 12 12 11 11 10 10 9 8 7 7 7 7 7 7 7 7 7 7 8 8 8 9 9 9 10 10 10 9 9 8 8 7
13 13 13 12 12 12 13 12 12 12 12 12 11 11 10 9 8 7 7 7 6 6 6 6 6 6 6 6 6 7 7 7 7 8 9 9 8 8 8 8 8 8 7
12 12 12 12 12 11 11 11 10 10 10 9 9 9 8 8 7 7 7 6 6 5 5 5 4 4 5 4 5 5 5 5 4 5 6 7 8 8 8 8 8 6 7
12 11 11 12 12 11 10 9 9 8 8 8 7 7 7 6 6 6 5 5 4 4 3 3 3 3 3 3 3 3 4 4 4 3 3 4 5 6 6 6 6 5 4
12 11 11 11 11 11 10 10 9 8 7 7 6 6 5 5 4 4 3 3 3 2 3 3 3 2 2 1 0 0 0 -0 -0 0 -0 1 1 3 5 5 5 4 4

GFSSE_850_temp_021.txt.gz
Temp
17 17 17 17 17 17 17 16 16 16 15 15 15 15 15 15 15 15 15 14 14 15 15 15 14 15 15 15 15 16 16 16 16 16 15 15 15 14 15 16 15 16 16
17 17 17 17 17 16 16 16 16 16 15 15 15 15 15 15 15 15 15 15 15 15 15 15 15 15 15 15 16 16 16 15 15 15 15 15 14 14 14 14 15 15 15
17 17 17 17 16 16 16 16 16 16 15 15 15 15 15 15 15 15 15 14 15 15 15 15 15 15 15 15 15 15 14 14 15 14 14 14 15 13 12 12 14 15 15
17 17 17 17 16 16 17 16 16 16 15 15 15 16 15 15 15 15 15 15 15 15 15 15 15 15 15 15 15 14 14 14 14 14 14 13 13 13 13 13 13 14 14
17 17 17 17 17 17 17 17 17 16 16 16 15 15 15 15 15 15 15 14 14 15 15 15 15 15 14 14 14 14 14 14 14 14 14 13 13 13 14 14 13 13 14
17 18 18 18 17 17 17 17 16 16 15 15 15 15 15 15 14 14 14 14 14 14 14 14 14 14 14 14 14 14 14 14 14 14 13 13 13 12 13 13 13 13 14
18 18 18 17 17 17 17 17 16 16 15 15 15 15 15 14 14 14 14 14 14 14 14 14 14 14 14 14 14 14 14 15 14 13 13 13 13 13 13 13 12 12 13
18 18 17 17 17 17 17 16 16 15 15 15 15 15 14 14 14 13 13 13 13 13 13 13 14 14 14 14 14 14 14 14 14 13 13 13 13 13 13 13 13 13 13
17 17 17 17 16 16 16 16 16 15 15 15 15 14 13 13 13 13 13 13 13 13 13 13 13 13 13 13 13 14 14 14 13 12 13 12 13 13 13 13 13 12 13
17 16 16 16 15 15 15 16 16 15 15 14 14 13 13 13 13 13 12 12 12 12 12 12 12 12 12 12 12 12 12 12 12 12 13 12 13 13 13 13 13 13 13
17 16 16 16 15 15 15 15 15 15 14 14 14 13 13 13 13 12 12 12 12 12 12 12 12 11 11 11 11 12 12 12 12 11 12 12 12 12 13 13 13 13 13
17 16 16 16 16 15 15 15 15 14 14 14 14 14 13 13 12 12 12 12 12 12 12 12 12 11 11 11 11 11 12 12 12 11 12 12 12 12 12 12 13 13 12
18 17 17 17 16 15 16 15 15 14 14 14 13 13 13 13 13 13 13 13 12 12 12 12 11 11 11 11 11 11 11 11 11 11 12 11 12 12 12 12 13 13 12
18 17 17 17 17 16 15 15 15 14 14 14 14 14 14 14 13 14 13 13 13 12 12 12 12 12 11 11 11 11 11 11 11 11 11 11 11 11 11 12 12 12 13
18 18 18 17 18 17 16 15 15 15 14 14 14 14 14 14 14 14 14 13 13 12 12 12 12 11 11 11 11 11 11 11 10 11 11 11 11 11 11 11 11 12 12
19 18 18 16 15 16 16 16 16 15 14 14 14 14 14 14 14 13 13 13 12 12 11 11 11 11 11 11 11 10 10 10 10 10 10 10 11 11 10 10 11 11 12
19 18 16 17 14 16 14 16 15 14 14 14 14 14 13 13 13 12 12 12 12 12 12 12 12 11 11 11 10 10 10 10 10 10 10 10 10 10 10 10 11 10 11
19 18 17 16 16 15 14 14 14 14 14 14 13 13 13 12 12 11 12 12 11 11 11 11 10 10 9 9 9 10 10 10 10 10 10 10 10 10 10 10 10 10 11
19 18 17 16 15 13 14 14 14 14 14 14 13 13 13 12 12 12 12 11 11 10 10 9 9 9 9 9 9 9 9 9 10 10 10 10 10 10 10 10 9 10 10
18 18 17 16 14 14 14 14 14 13 13 13 13 12 12 12 12 11 11 10 10 9 9 9 8 8 8 8 8 8 8 8 8 8 9 9 10 10 10 10 9 9 9
17 17 17 16 16 14 14 14 13 13 13 13 12 11 11 11 11 11 9 8 8 8 7 7 7 7 7 7 7 7 7 7 7 8 8 8 9 9 9 10 10 9 9
15 16 16 15 14 13 13 13 13 13 12 11 11 10 9 9 9 8 8 8 8 7 7 6 6 6 6 5 5 5 5 6 7 7 7 8 8 7 7 8 8 9 9
14 14 14 13 13 13 13 12 12 12 11 11 11 10 10 9 8 8 8 7 6 6 5 5 5 4 4 4 4 4 3 4 3 5 6 6 7 7 7 7 7 7 8
12 12 12 12 12 12 11 11 11 10 9 9 8 8 8 8 7 7 6 6 6 4 4 4 3 3 3 3 3 3 3 1 -0 1 2 3 4 5 5 5 5 6 5
12 12 12 11 11 11 10 10 9 9 8 7 7 7 6 6 5 5 4 3 3 2 2 2 2 3 2 2 2 1 1 1 1 -0 -0 1 2 3 4 4 3 4 4
12 12 11 11 11 10 9 9 9 8 7 7 7 6 6 5 4 3 2 1 1 1 1 1 1 1 1 0 -0 -0 -1 -1 -2 -2 -2 -1 -1 -1 1 1 1 2 3

GFSSE_850_temp_027.txt.gz
Temp
15 16 16 16 17 17 17 17 17 16 16 16 15 16 16 16 15 15 15 15 15 15 15 15 15 15 15 15 15 15 15 15 15 14 14 15 15 15 15 16 16 16 15
16 16 16 17 17 17 17 17 16 16 16 16 16 16 16 15 15 15 15 15 15 15 15 15 15 15 15 15 15 15 14 14 14 14 14 14 15 15 15 15 16 16 15
16 16 16 16 16 17 17 16 16 16 16 16 16 16 15 15 15 15 15 15 15 15 15 15 15 15 15 14 14 14 14 14 13 13 13 14 14 14 14 14 14 15 14
16 15 16 16 16 16 16 16 16 16 16 16 16 15 15 15 15 15 15 15 15 15 15 15 15 15 14 14 14 14 13 14 13 13 13 13 14 14 14 15 14 14 14
15 16 16 16 16 17 17 16 16 16 16 16 16 15 15 15 15 15 15 15 15 15 15 14 14 14 14 14 14 14 14 13 13 13 13 13 14 14 14 14 14 14 14
15 16 16 16 17 17 16 16 16 16 16 15 15 15 15 15 15 15 15 14 14 14 14 14 14 14 14 14 14 13 13 13 13 13 13 13 13 14 13 13 13 14 14
15 16 17 17 17 17 17 16 16 16 15 15 15 15 15 15 15 14 14 14 14 14 13 13 13 13 13 13 13 12 13 13 13 12 12 12 13 13 13 13 13 13 14
17 16 16 16 16 16 16 16 16 15 15 15 15 15 15 14 14 14 14 14 14 13 13 13 13 13 12 12 12 11 12 12 12 12 12 12 12 12 12 12 12 13 12
17 17 16 16 16 16 16 16 16 16 16 16 15 15 14 14 14 14 14 14 14 13 13 13 13 13 12 12 12 12 12 11 11 12 12 12 11 11 11 11 12 12 12
17 16 16 16 16 16 16 16 16 15 15 15 15 14 14 13 13 13 13 13 13 13 13 12 12 12 12 12 12 12 12 11 11 11 11 11 11 11 11 11 11 11 12
16 16 16 16 16 16 15 15 15 14 15 15 14 14 14 14 14 14 13 13 13 12 12 12 12 12 11 11 12 12 12 12 11 11 11 11 11 11 11 11 11 11 11
16 16 16 16 16 15 15 14 14 15 14 14 14 14 14 14 13 13 13 13 12 12 11 11 11 11 11 11 11 11 11 11 11 11 11 11 11 11 11 11 11 11 11
17 16 16 16 15 15 15 15 15 14 15 15 14 14 14 14 13 13 13 12 12 11 11 11 11 11 11 11 11 11 10 10 10 10 11 11 11 11 11 11 11 11 11
16 16 16 16 15 15 16 15 15 15 14 15 14 14 14 14 13 13 12 12 12 11 11 11 11 11 11 11 11 11 10 10 10 10 10 10 10 10 10 10 10 11 11
16 16 16 16 16 16 15 15 15 15 14 14 14 13 13 13 13 13 12 12 12 12 12 12 11 11 11 11 11 10 10 10 10 10 10 10 10 10 10 10 10 10 10
16 16 16 16 16 15 15 15 15 14 14 14 13 13 13 13 12 12 12 12 11 11 11 11 11 11 10 10 10 10 10 9 9 9 9 9 9 9 9 9 10 10 10
17 17 16 16 15 15 15 15 14 14 14 13 13 13 13 12 12 11 11 11 11 10 11 10 10 10 10 9 9 9 9 9 9 9 9 9 9 9 9 9 9 9 10
17 16 15 15 14 14 14 14 13 13 13 13 13 12 12 12 11 11 11 10 10 10 10 9 9 10 9 9 9 9 9 8 8 8 8 8 8 8 8 9 9 9 9
17 16 14 14 14 13 13 13 13 13 13 13 12 12 12 11 11 11 10 10 9 10 9 9 8 8 8 7 7 7 8 8 8 7 7 7 7 7 7 7 8 9 9
16 16 15 14 15 14 14 13 13 13 12 12 12 11 11 11 10 10 9 9 9 8 8 7 7 7 7 6 6 6 6 6 6 5 5 5 5 5 6 6 6 7 8
16 16 15 15 14 12 12 12 12 12 11 11 11 10 10 10 9 9 8 8 7 7 6 6 6 6 6 5 4 4 4 4 4 4 4 4 4 5 4 4 4 5 6
14 14 14 13 13 12 12 12 11 11 11 11 10 10 10 9 9 8 7 7 6 6 6 5 5 4 3 2 1 1 1 2 2 2 2 2 2 3 3 3 4 4 4
13 13 13 13 13 13 12 12 11 11 11 10 10 9 9 8 7 6 6 5 5 4 4 3 2 2 1 1 1 -0 -0 0 -1 -0 1 0 1 1 2 1 2 3 3
13 13 13 12 13 12 12 12 11 11 11 10 9 8 7 7 6 6 5 4 4 3 3 2 1 0 -0 -1 -1 -1 -1 -1 -2 -2 -2 -0 1 1 1 0 0 1 1
13 12 12 12 11 11 11 10 10 10 9 8 8 7 6 6 6 5 4 4 3 2 2 1 0 -1 -2 -2 -2 -2 -2 -2 -3 -3 -3 -3 -3 -1 -0 -2 -2 -1 -1
11 12 11 11 11 10 10 10 9 9 8 7 7 6 6 5 5 4 4 3 2 2 1 -0 -1 -2 -2 -2 -2 -2 -3 -3 -4 -3 -3 -3 -3 -2 -2 -2 -2 -2 -2

GFSSE_850_temp_030.txt.gz
Temp
15 15 15 16 17 16 16 16 16 16 16 16 16 16 15 15 15 15 15 15 15 15 15 15 15 15 15 15 15 15 15 15 15 15 15 15 15 15 15 15 15 14 14
16 15 15 16 16 16 17 16 16 16 16 16 16 16 16 16 15 15 15 15 15 15 15 15 15 15 14 14 14 14 14 14 14 14 14 14 14 14 14 14 15 15 14
15 15 15 15 16 16 16 16 16 16 16 16 16 16 16 15 15 15 15 15 15 15 15 15 15 15 14 14 14 14 14 14 14 13 14 14 14 13 14 14 14 14 14
15 15 15 15 16 16 16 16 16 16 16 16 16 16 15 15 15 15 15 15 15 15 15 14 14 14 14 14 14 14 14 13 13 13 13 14 13 13 14 13 13 14 14
15 15 15 15 16 16 17 17 16 16 16 16 16 15 15 15 15 15 15 15 14 14 14 14 14 14 14 14 14 14 14 14 13 13 13 13 13 13 13 13 13 13 13
15 14 15 15 16 17 17 16 16 16 16 15 15 15 15 15 15 14 14 14 14 14 13 13 13 13 13 13 13 13 13 13 13 13 13 13 13 13 13 13 13 12 12
14 15 15 16 16 16 16 16 16 16 15 15 15 15 15 15 14 14 14 14 13 13 13 13 12 12 12 12 12 12 12 12 12 12 12 12 12 12 12 12 12 13 12
15 15 16 16 16 16 16 16 16 16 15 15 15 15 15 14 14 14 14 14 14 13 13 13 13 12 12 12 12 12 12 12 12 11 12 12 12 12 12 12 11 12 12
16 17 16 16 16 16 16 16 16 16 15 15 14 14 14 14 14 14 14 13 13 13 13 13 12 12 12 12 12 11 11 11 12 12 11 11 12 12 12 12 11 12 12
16 16 16 16 17 16 16 15 15 15 15 14 14 14 14 14 14 14 13 13 13 12 12 12 12 12 12 12 12 12 11 11 11 11 11 12 12 12 12 12 12 12 12
16 16 16 16 16 16 16 15 15 15 15 14 14 14 14 13 13 13 13 12 12 12 12 11 11 11 11 11 12 12 12 12 11 11 11 11 11 11 11 11 11 11 12
16 16 16 15 16 15 15 15 15 15 15 14 14 14 14 13 13 13 12 12 12 12 11 11 11 11 11 11 11 11 11 11 11 12 12 11 10 10 10 10 11 11 11
16 16 16 15 15 15 15 15 15 15 14 14 14 14 14 13 13 13 12 12 12 12 12 11 11 11 11 11 11 11 11 11 11 11 11 11 11 10 10 10 10 10 10
17 16 16 15 15 15 15 15 15 15 14 14 14 13 13 13 13 13 12 12 12 11 11 11 11 11 11 10 10 10 10 10 10 10 10 10 10 10 10 10 10 10 10
17 16 16 15 15 15 14 14 14 14 14 13 13 13 13 13 12 12 12 12 11 11 11 11 10 10 10 10 10 10 10 10 9 9 9 9 9 9 9 10 10 10 9
17 16 15 15 15 14 14 14 14 13 13 13 12 12 12 12 12 11 11 11 10 10 10 10 10 9 9 9 9 9 9 9 9 9 9 9 9 9 9 9 9 10 10
17 16 15 15 14 14 14 14 13 13 13 13 12 12 12 11 11 11 10 10 10 10 10 9 9 9 9 9 9 9 9 9 8 8 8 8 9 9 9 9 9 9 9
16 16 15 14 14 14 13 12 13 13 13 13 13 12 11 11 11 11 10 10 9 9 9 9 8 8 8 8 8 8 8 8 7 7 7 7 7 7 7 7 8 8 8
16 16 14 13 12 12 12 12 12 12 12 12 12 12 11 11 11 10 10 9 9 9 8 8 8 7 7 7 7 7 7 7 7 6 6 5 5 5 5 5 6 6 7
17 15 13 12 12 11 11 11 12 12 12 12 11 11 10 10 10 10 9 9 8 8 8 7 7 7 6 6 6 5 5 5 5 5 5 4 4 4 4 4 5 5 5
13 13 12 12 10 11 10 11 12 12 11 11 10 10 10 10 9 9 8 7 7 6 6 6 6 6 5 5 4 5 5 4 3 4 3 3 3 3 3 3 3 4 5
13 12 13 12 12 11 12 12 12 12 12 11 11 10 10 9 8 8 7 6 6 6 5 5 5 4 3 3 2 1 1 1 2 2 2 0 1 0 1 1 1 2 2
13 13 13 13 13 13 12 12 12 11 11 11 10 9 9 7 6 6 6 5 5 4 4 4 3 3 2 2 1 -0 -1 -1 -2 -1 -1 -0 -1 -0 0 -0 -0 -0 0
13 13 13 12 12 12 11 11 11 10 10 10 9 8 7 6 6 5 5 5 4 4 3 3 2 1 -1 -1 -1 -2 -2 -3 -3 -3 -3 -3 -3 -1 -1 -2 -2 -2 -1
12 12 12 12 11 11 10 10 10 9 9 8 7 6 6 5 5 4 4 3 3 3 2 2 1 0 -1 -1 -2 -2 -2 -3 -3 -3 -3 -4 -4 -3 -2 -2 -3 -3 -3
12 12 11 11 10 10 10 9 9 8 7 6 6 5 5 5 4 4 3 3 2 2 2 1 1 -0 -2 -2 -3 -3 -3 -3 -4 -4 -4 -4 -4 -3 -3 -3 -3 -3 -3

GFSSE_850_temp_033.txt.gz
Temp
15 15 15 15 15 16 16 16 16 16 16 16 15 15 15 15 15 15 15 15 15 15 15 15 15 15 15 15 15 15 15 15 15 15 15 14 15 15 15 14 15 14 14
15 15 15 15 15 16 16 16 16 16 15 15 15 16 16 16 15 15 15 15 15 15 15 15 15 15 15 15 15 15 15 15 15 14 14 14 14 14 14 14 14 14 14
16 15 15 15 15 16 15 15 15 15 15 16 16 16 15 15 15 15 15 15 15 15 14 14 14 14 14 14 14 14 14 14 14 14 14 13 13 13 13 14 13 14 14
15 15 15 15 16 15 15 15 15 16 16 16 15 15 15 15 15 15 15 14 14 14 14 14 14 14 13 13 13 14 14 14 14 13 13 13 13 13 13 13 13 13 13
15 15 15 15 15 15 15 16 16 16 16 15 15 15 15 15 15 15 14 14 14 14 13 13 13 13 13 13 13 13 13 14 14 13 13 13 12 13 13 12 12 12 12
15 15 15 15 15 15 16 16 16 16 16 15 15 15 15 14 14 14 14 14 13 13 13 13 13 12 12 12 13 13 13 13 13 13 12 12 12 12 12 12 12 12 12
15 15 15 15 15 16 16 16 15 15 15 15 15 14 14 14 14 14 13 13 13 13 13 12 12 12 12 12 12 12 12 12 12 12 12 12 12 12 12 12 12 12 12
15 14 15 15 15 16 15 15 15 15 15 15 14 14 14 14 14 13 13 13 13 13 13 12 12 12 12 12 12 12 12 12 12 12 12 12 12 12 12 12 12 12 12
15 15 16 16 15 15 15 15 15 15 15 14 14 14 14 14 13 13 13 13 13 13 13 13 12 12 12 12 13 13 13 13 13 12 12 12 12 12 12 12 12 12 12
15 16 16 16 15 15 15 15 15 15 14 14 14 14 14 13 13 13 13 13 13 12 12 12 12 12 12 12 12 12 12 12 12 12 12 12 12 12 12 12 12 11 11
16 16 16 15 15 15 15 15 15 14 14 14 14 14 13 13 13 13 13 13 12 12 12 12 12 11 11 11 11 11 11 11 11 11 12 11 11 11 12 12 11 11 11
16 16 15 15 15 15 15 15 14 14 14 14 14 14 13 13 13 13 12 12 12 12 11 11 11 11 11 11 11 11 11 11 11 11 11 11 11 11 11 11 11 11 11
16 15 15 15 15 15 14 14 14 14 13 13 13 13 13 13 12 12 12 12 12 12 11 11 11 11 11 11 11 11 10 10 10 10 10 10 10 10 10 10 10 10 10
16 15 15 15 14 14 14 14 13 13 13 13 12 12 12 12 12 12 12 11 12 12 11 11 11 11 10 10 10 10 10 10 10 10 10 10 10 10 10 10 10 10 10
16 15 15 14 14 14 13 13 13 13 13 12 12 12 12 12 12 12 11 11 11 11 11 11 10 10 10 10 9 9 10 10 10 10 10 9 9 9 9 9 9 10 10
16 15 15 14 14 14 13 13 13 12 13 13 13 13 12 12 11 11 11 11 11 10 10 10 10 9 9 9 9 9 9 9 9 9 9 9 9 9 9 9 9 9 9
16 15 15 14 14 13 13 12 13 13 13 13 13 13 12 11 11 11 11 10 10 9 9 9 8 8 8 8 8 8 8 8 8 8 8 8 8 7 7 8 8 8 8
15 15 14 13 13 13 12 12 12 12 12 13 12 12 11 11 10 10 10 9 9 8 8 8 8 8 8 8 7 7 8 7 7 7 7 6 6 6 6 6 6 7 7
15 15 13 12 12 12 11 11 11 11 10 11 12 11 11 10 10 10 9 8 8 8 7 7 7 7 6 6 6 6 6 6 7 6 6 5 5 5 5 5 5 5 6
15 14 13 12 12 12 11 10 10 10 11 11 11 11 10 10 9 9 8 8 7 7 7 6 6 6 5 5 5 5 5 5 5 4 4 4 3 3 3 4 4 4 5
14 12 12 12 12 11 12 11 11 11 11 11 11 10 10 9 8 7 7 7 6 6 6 5 5 5 5 5 4 2 2 3 3 3 3 2 2 2 2 2 1 2 3
13 13 12 12 12 11 11 11 11 11 11 10 10 9 8 7 7 7 7 6 5 5 4 4 4 4 3 3 2 0 2 2 0 1 2 -0 -0 0 -0 -0 -0 -0 0
13 13 12 12 11 11 11 11 11 11 10 10 10 9 7 7 7 6 6 5 4 4 3 3 3 2 2 2 1 -1 0 1 -2 -1 -1 -1 -2 -2 -2 -3 -2 -2 -2
13 13 12 12 12 11 11 11 10 10 10 9 8 7 7 6 6 5 4 4 4 3 3 2 2 1 1 -0 -0 -2 -3 -3 -3 -2 -2 -2 -3 -3 -3 -2 -3 -2 -3
13 13 12 12 11 11 10 10 9 9 8 8 7 6 6 5 4 4 4 3 3 2 2 1 1 -1 -1 -2 -3 -3 -3 -3 -3 -3 -3 -3 -3 -3 -4 -4 -3 -4 -3
12 12 11 11 11 10 10 9 8 8 7 6 6 5 5 4 4 3 3 2 2 2 1 -0 -1 -2 -2 -2 -3 -3 -4 -4 -4 -4 -4 -5 -4 -4 -4 -4 -4 -4 -3

GFSSE_850_temp_036.txt.gz
Temp
15 14 15 15 16 16 16 16 16 16 16 15 16 16 16 15 15 15 15 15 15 15 15 15 15 15 15 15 15 15 15 15 15 14 14 14 14 14 14 14 14 13 14
14 14 15 15 15 16 16 16 16 15 15 15 16 16 16 16 15 15 15 15 15 15 15 15 15 15 15 15 15 15 14 14 14 14 14 14 14 14 13 13 13 13 14
14 14 15 15 15 15 15 15 15 15 15 15 15 15 15 15 15 15 15 15 15 15 14 14 14 14 14 14 14 14 14 14 14 14 14 14 13 13 13 13 13 13 13
14 14 15 15 15 15 15 15 15 15 15 15 15 15 15 15 15 15 15 14 14 14 14 14 14 14 14 14 14 14 14 14 14 13 14 13 14 12 13 13 13 13 12
14 14 15 15 15 15 15 15 15 15 15 15 15 15 14 14 14 14 14 14 14 13 13 13 13 13 13 13 13 14 14 14 14 13 14 12 13 12 12 13 13 12 13
14 14 15 15 15 15 15 15 15 15 15 14 14 14 14 14 14 14 13 13 13 13 13 13 13 13 13 13 13 14 14 14 13 13 13 12 12 12 12 12 12 12 12
14 14 15 14 14 14 15 14 15 15 14 14 14 14 14 14 14 13 13 13 13 13 13 13 13 13 13 13 13 13 13 14 13 13 13 13 12 12 12 12 12 12 12
15 14 14 14 14 14 15 15 15 14 14 14 14 14 14 14 13 13 13 13 13 13 13 12 13 13 13 13 13 13 13 13 12 13 13 13 13 12 12 12 12 12 12
15 14 13 14 14 14 15 15 14 14 14 14 14 14 14 13 13 13 13 13 13 12 13 12 12 12 12 12 12 12 12 12 12 12 12 12 13 13 12 12 12 12 12
15 13 13 12 12 14 14 14 14 14 13 14 13 13 13 13 13 13 13 12 12 12 12 12 12 12 12 12 12 12 12 11 12 12 12 12 12 12 12 12 12 11 11
13 13 13 12 12 12 12 14 14 13 13 13 13 13 13 11 12 12 12 13 12 12 12 12 12 12 12 11 12 11 11 11 11 11 12 12 12 12 11 11 11 11 11
13 13 14 14 14 14 12 13 13 13 12 12 12 13 11 12 11 11 12 12 12 12 12 12 12 12 11 10 10 10 10 10 10 10 11 11 11 11 11 11 11 11 11
13 13 13 15 14 14 13 12 12 12 13 13 13 12 12 12 12 11 12 12 12 12 11 11 11 11 11 11 10 10 10 9 10 10 10 10 10 11 11 11 11 11 10
14 13 14 15 14 14 12 12 13 12 12 11 12 12 12 11 12 12 12 12 12 11 11 11 10 11 10 10 10 10 9 9 9 9 9 9 10 10 10 10 10 10 10
14 14 14 14 14 14 13 13 13 12 12 12 12 12 12 12 12 12 12 11 11 10 10 10 9 9 9 8 8 9 9 7 7 8 8 7 9 9 9 9 9 10 10
14 13 14 14 14 13 13 13 13 13 12 12 13 13 12 11 11 11 11 10 10 10 9 9 9 9 8 7 7 7 8 7 7 6 7 7 7 8 8 8 8 9 9
14 12 13 13 13 13 13 13 13 13 12 12 12 12 12 11 10 10 10 9 9 9 8 8 8 7 7 7 7 7 6 6 6 6 5 5 6 5 7 7 7 7 7
14 13 13 13 13 12 11 11 11 12 11 11 11 11 11 10 10 10 9 9 8 8 8 7 6 6 6 6 6 6 6 6 6 5 5 4 4 4 4 3 7 6 6
14 11 13 12 12 11 11 11 11 12 10 10 10 11 10 9 9 9 8 8 8 7 6 6 5 5 5 5 5 5 5 5 5 5 4 3 3 3 3 3 3 5 5
13 11 12 12 11 10 11 10 10 10 10 10 10 10 10 9 9 8 8 7 7 5 5 5 5 4 4 3 4 4 4 4 5 4 4 3 3 2 2 1 1 2 1
12 12 13 13 12 11 12 9 11 10 10 10 10 10 9 8 8 8 7 6 5 4 5 4 4 4 3 3 3 4 4 4 3 3 3 2 2 2 1 1 1 0 1
11 11 12 11 11 11 12 11 9 11 11 10 10 9 8 8 7 7 6 4 4 4 3 3 2 3 3 3 1 2 4 4 5 3 2 2 1 1 1 0 -0 -1 -1
11 12 12 12 12 12 11 11 11 10 10 10 9 8 8 7 6 5 5 5 4 3 3 3 2 2 2 2 1 1 2 3 2 2 1 1 0 -0 -0 -0 -1 -1 -1
12 12 11 11 11 11 11 9 9 10 9 8 7 6 6 6 6 6 5 4 3 3 2 2 2 1 1 1 1 1 0 -0 0 0 0 0 -0 -1 -1 -1 -1 -1 -1
11 11 11 10 10 10 10 9 9 9 8 7 6 6 5 5 5 4 3 3 3 2 2 1 0 0 0 -0 -0 -0 -1 -1 -1 -2 -2 -0 -0 -1 -1 -1 -2 -2 -2
10 9 9 9 9 10 10 9 9 8 7 7 6 6 6 5 4 4 3 2 2 1 1 1 0 -0 -1 -1 -2 -2 -2 -2 -1 -2 -3 -2 -1 -1 -1 -2 -2 -2 -2

GFSSE_850_temp_042.txt.gz
Temp
17 17 17 17 16 15 15 16 16 16 16 15 15 15 15 15 15 15 16 16 16 16 16 16 16 15 15 15 15 15 15 15 15 14 13 13 14 14 14 13 14 14 14
17 17 16 16 16 15 15 16 16 16 15 15 15 15 15 15 15 15 15 16 16 16 15 15 15 15 15 15 15 15 15 15 14 13 13 13 13 14 14 13 13 14 14
17 17 16 16 15 15 15 16 15 15 15 15 15 15 15 15 15 15 15 15 15 15 15 15 14 14 14 14 14 14 15 14 15 14 13 12 13 13 13 13 13 13 13
16 16 16 15 15 15 15 15 15 15 15 15 15 15 15 15 15 15 15 15 15 14 14 14 14 14 14 14 14 14 14 15 15 14 13 12 13 13 13 13 13 12 13
15 14 15 15 15 15 15 14 15 15 15 15 15 15 15 15 15 15 15 15 14 14 14 14 14 14 14 14 14 14 14 15 15 14 14 14 13 13 13 13 12 12 12
15 15 15 14 14 14 14 14 15 15 15 15 15 15 15 15 14 14 14 14 14 14 14 14 14 14 14 14 14 14 14 14 14 14 14 14 13 13 12 12 12 12 12
14 14 15 14 14 14 15 14 15 15 15 15 15 15 14 14 14 14 14 14 14 14 14 13 13 13 13 14 14 14 14 14 14 14 14 13 13 12 12 12 12 12 12
13 13 14 14 14 14 15 14 14 14 14 14 14 14 14 14 14 14 13 13 14 14 13 13 13 13 13 13 13 13 13 13 13 13 13 13 13 12 12 12 11 11 11
13 13 14 14 14 14 14 14 14 14 14 14 14 14 14 13 13 13 13 13 13 13 13 13 13 13 13 12 12 12 12 12 13 13 13 13 13 12 12 11 11 11 11
13 13 13 14 14 14 14 14 14 14 14 14 13 13 13 13 13 13 13 13 13 13 12 12 12 12 12 12 11 12 12 12 12 12 12 12 12 12 11 11 11 11 11
12 13 14 14 14 14 14 13 14 14 14 13 13 12 12 12 12 12 13 13 12 12 12 12 12 11 11 11 11 11 11 11 11 11 11 11 11 11 11 10 11 11 10
13 13 14 14 13 13 14 13 13 13 13 13 13 12 12 12 12 12 12 13 12 12 11 11 11 11 11 11 10 10 10 10 10 10 10 10 10 10 10 10 10 10 10
14 14 14 14 13 13 13 13 13 13 12 12 12 12 12 12 12 12 12 12 11 11 11 10 11 10 10 9 9 9 9 9 9 9 9 9 9 9 9 9 9 9 9
14 14 14 14 13 13 13 13 13 13 13 12 12 12 12 12 12 12 12 11 11 11 10 10 10 10 10 9 9 9 9 8 8 8 8 8 8 8 8 8 8 8 8
15 14 13 13 13 13 13 13 13 13 13 12 12 13 12 12 12 12 12 11 11 10 10 10 10 10 10 9 9 9 8 8 8 8 8 7 7 7 7 6 6 6 6
15 14 13 13 13 13 13 13 13 13 12 12 12 12 12 12 12 10 10 10 10 10 10 9 9 9 8 8 8 8 8 8 8 8 8 7 7 7 6 5 5 5 4
15 14 13 12 12 13 12 13 13 13 13 13 13 13 12 12 11 11 11 10 10 10 9 9 9 8 7 7 7 7 7 7 7 7 7 7 7 6 5 5 4 4 3
15 13 13 12 12 12 12 12 13 13 14 13 13 13 12 11 10 11 11 10 9 8 8 8 7 7 7 6 6 6 6 6 6 6 6 6 6 5 5 4 4 3 3
15 14 13 12 12 13 12 12 13 13 13 14 14 11 11 10 10 10 10 9 8 7 6 7 7 7 6 5 5 6 5 5 5 6 6 6 5 5 4 4 3 2 2
15 14 13 11 12 13 13 13 12 12 12 12 12 11 10 9 10 9 8 8 7 7 7 6 5 4 4 4 4 4 4 4 5 5 5 5 5 4 3 3 2 2 2
15 15 13 11 10 12 13 12 12 12 12 11 11 10 9 9 9 8 7 7 6 6 6 5 5 4 4 4 4 3 3 3 4 5 5 4 4 3 3 2 2 1 1
15 13 12 12 11 11 11 11 12 11 11 11 10 9 7 8 7 7 7 6 6 6 6 5 5 4 4 3 3 3 3 3 3 4 3 2 3 2 2 2 2 1 1
15 13 13 11 11 11 10 10 11 10 10 9 8 8 7 8 7 6 6 6 5 5 4 4 4 4 3 3 3 3 2 2 1 1 2 2 2 1 1 1 1 1 0
14 13 12 11 11 11 11 11 10 10 10 9 9 9 8 8 7 6 6 6 5 4 4 4 3 3 3 3 2 2 2 2 0 0 0 1 1 0 0 0 0 -0 -0
13 12 12 12 12 12 12 11 11 11 11 10 10 9 8 7 7 6 6 5 5 4 3 3 3 2 2 2 2 1 1 0 0 -0 -1 -1 -1 -0 -0 -0 -0 -1 -1
13 13 13 13 12 12 11 11 11 11 10 10 9 8 8 8 7 6 6 5 5 4 3 2 2 2 1 1 1 1 -0 -1 -1 -1 -1 -2 -2 -1 -1 -1 -1 -1 -1

GFSSE_850_temp_045.txt.gz
Temp
17 17 15 15 15 15 15 15 16 16 16 16 16 16 16 16 16 16 16 16 16 16 15 15 15 15 15 15 15 15 14 13 13 13 13 13 13 13 13 13 14 14 14
17 17 17 16 15 15 15 15 15 15 15 15 16 16 16 16 16 16 16 16 15 15 15 15 15 15 15 15 15 14 13 13 13 13 12 13 13 13 13 13 13 13 13
17 17 17 16 15 15 15 15 15 15 15 16 16 16 16 16 16 15 15 15 15 15 15 15 15 15 15 15 14 14 15 14 14 13 13 13 13 13 13 13 13 13 13
17 16 16 16 15 15 15 14 15 15 15 15 16 16 16 16 15 15 15 15 15 15 14 14 14 14 15 14 14 15 14 14 14 14 13 13 14 13 13 13 12 13 13
17 16 15 15 15 14 14 14 15 15 15 15 15 15 16 15 15 15 15 15 15 14 14 14 14 14 14 14 15 15 14 13 13 13 13 13 13 13 13 12 12 12 12
16 15 15 15 14 14 14 14 15 15 15 15 15 15 15 15 15 15 15 15 14 14 14 14 14 14 14 14 14 14 14 13 13 13 13 13 13 13 12 12 12 11 12
14 14 14 14 14 14 14 15 15 15 15 15 15 15 15 15 15 14 14 14 14 14 14 14 14 13 13 13 13 13 14 13 12 12 12 12 12 12 12 12 11 11 11
13 13 13 13 14 14 14 15 15 15 15 15 15 15 14 14 14 14 14 14 14 14 13 13 13 13 13 13 13 12 13 13 11 12 12 12 12 12 12 11 11 11 11
12 12 12 13 13 13 14 14 14 14 15 14 14 14 14 14 14 14 14 13 13 13 13 13 12 12 12 11 12 11 12 12 12 11 11 12 11 11 11 11 11 11 10
12 12 13 12 13 13 14 14 15 14 14 14 14 14 14 14 14 13 13 13 13 13 12 12 12 11 11 11 11 11 11 11 11 11 11 11 11 10 10 10 10 10 10
12 13 12 12 14 14 14 14 14 14 14 14 13 13 13 13 13 13 13 13 13 12 12 11 11 11 11 11 11 10 11 11 11 10 10 10 10 9 9 9 9 9 9
12 12 12 13 14 14 14 14 14 13 13 13 12 12 13 12 12 12 12 12 12 11 11 11 10 10 10 10 10 10 10 9 10 9 9 9 9 8 8 8 8 8 8
13 12 13 13 13 14 14 13 13 13 13 12 12 12 12 12 12 12 12 12 11 11 10 10 10 10 10 10 9 9 9 9 8 8 8 8 8 8 7 7 7 7 7
12 13 13 13 13 13 14 13 13 13 13 12 13 12 12 12 12 11 11 10 11 11 11 11 10 10 10 10 9 9 8 8 8 8 8 8 7 7 7 6 6 6 5
12 13 13 13 13 13 13 13 12 12 13 13 12 12 12 13 12 11 12 11 11 11 11 10 10 10 10 9 9 8 8 8 8 7 7 7 7 7 6 6 5 5 4
14 14 13 13 13 12 13 13 13 12 13 13 13 13 12 12 12 12 11 11 11 10 10 10 10 10 9 8 8 8 7 7 7 7 7 7 7 6 6 5 5 4 3
14 14 13 13 13 12 13 13 13 13 13 14 13 13 12 12 12 12 11 10 10 10 10 10 9 8 8 7 7 6 6 6 6 7 6 6 6 5 5 5 4 4 3
14 14 13 12 13 12 13 13 13 13 14 13 13 13 13 12 12 11 10 10 10 10 10 9 8 7 7 7 6 6 6 6 6 5 5 5 5 5 5 4 3 3 3
16 15 13 13 13 13 13 13 13 13 13 13 13 13 12 12 12 11 10 10 9 9 8 7 7 8 6 5 5 4 4 4 4 4 5 5 4 4 4 4 3 3 2
15 15 14 13 12 12 13 13 13 13 13 12 12 12 12 11 11 11 10 9 8 8 7 7 6 5 5 4 4 4 4 3 4 4 4 4 4 3 3 3 2 2 2
14 15 14 14 13 13 13 13 13 12 12 12 12 11 11 11 10 9 8 8 7 7 7 6 5 5 5 4 4 4 3 3 3 3 3 3 3 3 2 2 2 1 1
15 15 14 13 13 13 13 12 11 12 11 11 10 11 11 11 9 8 7 7 7 7 7 6 5 5 4 4 3 3 3 2 2 2 3 3 2 2 2 1 1 1 0
15 14 16 14 13 12 11 11 11 11 10 10 10 11 11 9 8 8 7 7 7 6 6 5 5 4 3 3 3 2 2 2 1 1 1 1 2 1 1 1 1 0 -0
14 14 14 13 12 12 11 10 11 11 12 12 11 10 9 8 8 7 7 7 6 5 5 4 4 3 3 2 2 2 1 1 1 0 -0 -0 1 1 1 0 -0 -0 -1
15 13 12 12 11 11 10 10 11 11 11 10 10 9 8 8 7 7 6 6 5 5 5 4 4 4 3 2 2 1 1 1 0 -0 -1 -1 -1 -1 -1 -1 -1 -1 -1
15 14 13 12 12 11 11 11 11 11 10 10 9 9 8 7 7 6 6 5 5 5 4 4 4 3 2 1 1 1 1 0 -1 -1 -2 -2 -2 -2 -2 -2 -2 -2 -2

GFSSE_850_temp_048.txt.gz
Temp
16 16 15 16 17 16 16 16 16 16 16 16 16 17 17 16 16 16 16 15 15 15 15 15 15 15 14 13 12 13 13 13 13 13 13 13 13 13 13 13 13 13 13
16 16 17 17 16 16 15 16 16 15 15 16 16 16 17 16 16 16 15 15 15 15 15 15 15 14 13 13 14 14 14 14 13 13 13 13 13 13 13 13 13 13 13
16 16 16 16 16 15 15 15 15 15 16 16 16 16 16 16 15 15 15 15 15 15 15 15 14 14 14 13 14 15 14 13 13 13 13 13 13 13 13 13 12 12 12
16 15 15 15 15 15 15 15 14 15 15 16 16 16 16 15 15 15 15 15 15 15 14 14 14 14 14 13 13 13 13 13 13 13 13 13 13 13 13 13 12 12 12
14 14 14 15 15 15 14 14 14 15 15 16 16 16 15 15 15 15 15 15 14 14 14 14 14 14 14 14 13 12 12 12 12 12 12 12 13 12 12 12 12 12 12
14 14 14 15 15 14 14 14 14 15 15 16 16 15 15 15 15 15 15 14 14 14 14 14 14 14 14 14 13 13 13 12 12 12 12 12 12 12 12 12 12 12 11
14 14 14 14 14 14 14 14 14 15 15 15 15 15 15 15 15 15 15 14 14 14 14 14 14 13 13 13 13 12 12 12 12 11 11 11 12 11 11 11 11 11 11
13 12 13 13 13 14 14 14 15 15 15 15 15 15 15 15 15 15 15 14 14 14 14 14 13 13 13 13 13 12 12 12 12 11 11 10 10 10 10 10 11 11 10
12 12 12 11 12 13 14 14 14 15 14 15 15 15 15 15 15 15 14 14 14 14 13 13 13 13 12 12 12 12 11 11 11 11 10 10 9 10 10 10 10 10 10
11 12 12 12 12 13 14 14 14 14 14 14 14 14 14 15 15 14 14 14 13 13 12 12 12 12 11 11 11 11 11 11 10 10 10 10 9 9 9 9 9 9 10
11 11 12 11 11 12 14 14 14 14 14 14 14 14 14 15 14 14 13 13 12 12 12 12 11 11 11 11 11 11 11 11 10 10 9 9 8 8 8 8 8 8 8
11 13 12 11 12 13 14 14 14 14 14 14 14 15 14 13 13 12 12 11 11 11 11 11 11 11 11 10 10 10 10 10 9 9 9 8 8 8 8 7 7 7 7
13 12 12 12 12 13 14 14 13 13 13 13 13 13 13 12 12 11 11 12 11 11 11 11 11 10 10 10 10 10 9 9 8 8 8 7 7 7 6 7 6 6 6
12 12 12 12 13 13 13 14 14 13 13 13 13 12 12 12 11 11 11 11 11 11 11 10 10 10 10 10 9 9 9 8 8 7 7 7 7 7 6 6 5 5 4
13 12 12 13 13 13 14 13 13 12 13 13 12 12 12 12 12 11 11 11 11 10 10 10 10 10 10 10 9 8 8 7 7 7 7 7 6 6 6 5 4 4 3
12 12 12 13 13 13 13 13 13 13 13 13 13 12 11 12 12 11 11 11 11 10 10 10 10 9 9 9 8 8 7 7 6 6 6 6 6 5 5 5 4 4 3
13 13 13 13 13 13 12 12 12 13 12 12 12 12 12 12 11 11 11 11 10 10 10 10 9 9 9 8 7 7 6 6 6 5 6 5 5 4 4 4 3 3 3
13 12 12 13 13 13 13 13 12 12 12 12 12 12 12 12 12 11 10 10 10 10 10 9 8 8 7 6 6 6 5 5 5 4 4 5 4 3 3 3 3 2 2
14 13 13 13 13 12 12 12 12 12 12 12 12 12 12 12 12 11 10 10 11 10 9 8 8 7 6 6 5 5 4 4 4 4 4 4 3 3 3 2 2 2 2
14 15 14 13 13 12 12 12 12 12 13 13 12 12 11 11 11 10 10 10 10 9 8 7 7 6 6 5 4 3 4 4 3 3 3 3 3 3 2 2 2 2 1
14 14 15 14 13 13 12 13 13 13 13 13 12 11 11 11 11 11 10 10 8 7 7 7 6 5 6 5 5 5 4 3 3 2 2 2 3 2 2 2 1 1 1
15 15 15 15 14 14 13 14 13 13 12 11 11 10 10 10 10 11 10 8 8 7 7 6 6 6 5 5 4 4 3 3 2 2 1 1 1 1 1 1 0 0 0
15 15 15 15 14 13 13 12 12 11 11 10 10 9 9 10 10 9 9 8 7 7 6 6 6 5 4 4 3 2 1 2 1 1 0 0 0 1 1 0 -0 -0 -0
16 15 15 14 14 13 12 12 12 12 12 11 11 10 10 10 9 8 8 7 7 7 7 6 6 5 4 3 3 2 1 1 0 0 -0 -0 -0 -0 -0 -0 -1 -1 -1
16 15 14 13 12 12 11 11 11 11 11 11 11 10 10 9 8 7 7 6 6 6 6 5 5 4 4 3 2 1 1 0 0 -0 -1 -1 -1 -1 -1 -1 -1 -1 -1
15 15 15 13 12 12 10 11 11 11 11 11 10 9 8 7 7 7 6 6 6 6 5 5 4 4 4 3 2 1 0 -0 -0 -1 -1 -2 -2 -1 -2 -2 -2 -2 -2

GFSSE_850_temp_051.txt.gz
Temp
15 15 15 16 17 17 17 17 16 16 16 16 16 16 16 17 16 16 16 15 15 15 14 14 13 13 13 14 14 13 13 13 13 13 13 13 13 13 12 12 12 13 13
16 15 15 16 17 17 17 17 16 16 16 16 16 16 16 16 16 16 15 15 15 14 13 13 13 13 14 14 14 13 12 13 13 13 13 13 13 13 13 12 12 12 12
15 15 15 16 17 16 16 17 16 15 16 16 16 16 16 16 15 15 15 15 14 14 13 13 13 13 14 14 13 13 13 13 13 12 12 13 13 12 12 12 12 12 12
15 14 14 15 16 16 16 16 15 15 16 16 16 16 16 16 15 15 15 15 14 14 13 13 13 13 13 13 13 12 12 12 12 12 12 12 12 12 12 12 12 12 12
14 14 14 15 15 15 16 15 15 15 16 15 16 16 15 15 15 15 15 14 14 14 14 13 13 13 13 13 13 12 12 12 12 12 12 12 12 12 12 12 12 12 12
14 14 14 14 15 15 14 14 15 15 15 15 15 15 15 15 15 15 14 14 14 14 14 14 13 13 13 13 12 12 12 12 12 12 12 11 11 11 11 11 11 11 11
14 14 13 14 14 14 14 15 15 15 15 15 15 15 15 15 14 14 14 14 14 14 14 14 14 13 13 12 12 12 12 11 11 11 11 11 11 11 11 11 11 11 11
13 14 13 13 13 13 14 15 15 16 15 15 15 15 15 15 14 14 14 14 14 14 14 14 14 13 13 12 12 11 11 11 11 11 10 10 10 10 10 10 10 10 10
12 12 11 12 11 13 14 14 15 15 15 14 15 15 15 14 14 14 14 14 13 14 13 13 14 13 13 12 11 11 11 11 11 10 10 9 9 9 9 9 10 10 10
12 12 11 11 12 13 14 15 15 14 14 14 14 14 14 14 14 14 13 13 13 13 13 13 13 13 12 12 11 11 11 11 11 10 9 9 8 8 8 8 9 9 9
11 12 10 11 12 11 13 14 14 14 13 14 14 14 14 13 13 13 13 13 13 13 13 12 12 12 11 11 11 10 10 10 10 9 9 8 7 7 7 7 7 8 8
11 11 11 12 12 12 13 14 14 13 13 14 14 13 13 13 12 13 13 13 13 13 12 12 12 11 11 11 10 10 10 9 9 8 8 7 7 6 6 6 6 6 6
12 12 11 12 12 13 13 12 13 13 13 13 12 12 12 12 12 12 12 12 12 12 12 11 11 10 10 10 10 10 10 9 8 8 7 7 7 6 5 5 5 6 5
12 12 12 13 13 12 12 13 12 13 12 12 12 12 12 12 12 11 11 12 12 11 11 11 10 10 10 9 9 9 9 9 9 8 7 7 7 6 5 5 4 3 4
13 12 12 12 12 12 13 12 12 12 12 12 12 12 12 12 12 12 12 11 11 11 10 10 10 10 9 9 9 9 9 8 8 7 7 7 6 6 5 4 4 3 3
13 13 13 12 13 13 13 12 12 12 12 12 12 12 12 12 12 12 11 11 11 10 10 10 10 10 9 9 8 8 7 7 7 7 7 6 5 5 4 4 4 3 3
14 14 13 13 13 13 12 12 12 13 13 12 12 12 12 12 12 11 11 10 10 9 9 10 9 9 8 8 8 7 6 6 6 6 5 5 5 4 4 3 3 3 2
13 13 13 13 13 13 12 12 12 12 12 12 12 12 12 11 11 11 10 10 10 9 9 9 9 9 8 7 6 6 6 5 5 4 4 4 4 3 3 3 2 2 2
14 13 12 13 13 13 12 12 12 12 12 12 12 11 11 11 11 10 10 9 9 9 9 9 8 8 7 6 6 5 4 4 4 4 4 3 3 3 2 2 2 2 2
13 13 13 13 13 12 12 12 12 12 12 11 11 11 11 11 11 10 9 9 9 9 9 8 8 7 6 6 5 4 4 4 3 3 3 3 3 2 2 2 2 1 1
13 13 13 13 13 13 12 12 12 12 11 11 11 12 11 11 10 10 9 10 9 9 8 8 7 6 6 5 5 5 4 3 3 2 2 2 2 1 1 1 1 1 0
13 13 12 12 13 13 13 12 12 12 12 11 11 11 10 10 10 10 10 10 9 9 8 7 6 6 6 5 5 4 4 3 3 2 1 1 0 1 0 0 -0 -0 -0
14 14 14 14 14 13 13 12 12 11 11 11 11 11 10 10 10 10 9 8 8 7 7 6 6 6 5 5 4 3 2 2 1 1 1 0 -0 -0 -0 -0 -1 -1 -1
15 15 15 14 14 13 13 12 12 12 12 12 12 11 10 10 9 9 8 7 7 7 6 6 5 5 4 4 4 3 2 1 0 -0 -0 -0 -1 -1 -1 -1 -1 -1 -2
15 14 14 13 13 13 12 12 12 11 12 12 12 11 10 9 8 7 7 7 7 7 6 6 5 4 4 3 3 2 2 1 0 -0 -1 -1 -2 -1 -1 -1 -2 -2 -2
15 15 14 14 13 12 12 12 12 11 12 11 11 10 9 8 8 7 7 6 5 5 6 5 4 4 4 3 2 1 1 -0 -1 -1 -1 -2 -3 -3 -3 -3 -3 -3 -2

GFSSE_850_temp_054.txt.gz
Temp
16 15 15 15 16 17 17 17 17 16 17 17 17 17 16 16 16 16 15 15 15 14 14 14 14 14 13 13 13 13 13 13 13 13 13 13 13 13 13 13 13 13 13
15 15 15 15 15 16 17 17 17 17 17 17 17 16 16 16 16 15 15 15 14 13 13 14 14 14 13 13 13 13 13 13 13 12 12 13 13 12 12 12 12 12 12
15 15 15 15 15 16 17 17 16 17 17 17 16 16 16 15 15 15 14 14 13 13 13 14 14 14 13 13 13 12 12 12 12 12 12 12 12 12 12 12 12 12 12
15 14 14 15 15 16 16 16 16 16 17 16 16 15 15 15 15 15 14 14 13 13 13 13 14 14 13 13 12 12 12 12 12 12 12 12 12 12 12 12 12 12 12
14 14 14 14 15 15 15 15 16 16 16 16 16 15 15 15 15 14 14 13 13 13 13 13 13 13 12 12 12 12 12 12 12 12 12 11 12 11 12 12 12 12 12
14 14 14 14 14 15 15 15 16 16 15 15 15 15 15 14 14 14 14 13 13 13 13 13 13 13 12 12 12 12 11 11 11 11 11 11 11 11 11 11 11 11 11
14 13 13 14 14 14 15 15 16 16 16 15 15 14 14 14 14 14 14 13 13 13 13 13 13 12 12 12 12 11 11 11 11 11 11 11 10 10 10 11 11 11 11
14 13 13 12 12 13 14 15 15 15 15 14 15 14 14 14 14 14 14 14 14 13 13 13 12 12 12 12 11 11 11 11 11 10 10 10 9 9 10 10 10 10 10
13 13 13 12 11 11 14 14 15 15 14 15 14 14 14 14 13 14 14 14 14 14 13 12 12 12 12 11 11 11 11 11 10 10 10 9 8 8 9 9 9 9 9
13 13 11 10 9 11 13 14 13 13 14 14 14 14 13 13 13 13 13 13 13 13 13 13 12 12 11 11 11 11 11 11 10 10 9 9 8 7 8 8 8 8 8
13 12 12 12 10 9 11 13 13 14 14 14 13 13 13 13 12 13 13 13 13 13 13 13 12 11 11 11 11 10 10 10 10 10 9 9 8 6 6 7 7 7 7
12 11 11 10 11 12 12 13 13 14 13 13 13 12 12 12 12 13 13 13 13 13 12 12 11 11 11 11 10 10 10 10 10 9 9 8 7 6 5 5 6 6 6
11 11 11 11 12 12 12 13 14 13 13 12 12 12 12 12 12 12 13 13 12 12 11 11 11 11 10 10 10 10 10 10 9 8 8 7 7 6 5 5 4 4 4
11 10 11 12 13 13 13 13 13 13 13 12 12 12 12 12 12 12 12 12 12 11 11 11 10 10 10 10 10 10 10 9 9 8 8 7 7 6 4 4 4 3 3
11 12 12 13 13 13 13 13 13 13 12 11 11 11 11 12 12 12 12 11 11 11 10 10 10 10 10 10 9 9 9 9 8 8 8 8 6 6 4 4 3 3 3
11 12 13 13 13 13 12 12 12 12 12 12 11 11 12 12 12 11 11 11 11 10 10 10 9 9 10 9 9 9 8 8 7 7 7 6 5 5 5 4 3 3 3
12 12 13 13 12 12 12 12 12 12 12 12 12 11 11 12 11 11 11 11 10 10 9 9 9 9 9 9 8 8 6 6 6 6 5 5 4 4 4 4 3 3 3
12 13 12 13 12 12 12 12 12 12 12 12 11 11 11 12 12 11 11 10 10 9 9 9 9 9 8 8 7 6 5 5 5 4 4 3 3 3 3 3 2 2 2
13 13 13 13 13 12 12 12 12 12 12 11 11 12 12 11 11 11 10 10 9 9 9 9 9 8 8 7 6 5 5 5 4 4 3 3 3 3 2 2 2 2 1
13 13 13 13 13 13 12 12 11 11 11 11 11 11 11 11 11 11 10 9 9 9 9 8 8 7 6 6 5 5 5 5 4 3 3 3 3 2 2 2 1 1 1
13 13 13 13 13 12 12 12 11 11 11 11 12 10 11 11 11 10 9 9 9 9 8 8 7 6 6 5 5 5 4 4 3 3 3 2 2 1 1 0 -0 -0 -0
14 14 13 13 12 13 13 12 12 12 12 12 11 11 11 11 10 10 9 9 9 8 7 7 6 6 5 5 4 5 4 4 3 3 2 2 1 0 0 -0 -1 -1 -1
15 15 14 14 13 13 13 13 12 11 11 12 11 11 11 10 10 9 9 8 8 7 7 6 6 6 5 5 4 4 3 3 2 2 2 1 0 -0 -1 -1 -1 -1 -2
16 15 14 13 13 13 13 13 12 12 13 12 12 11 11 10 9 8 8 7 7 7 6 5 5 4 4 4 4 4 3 1 1 -0 0 -0 -0 -1 -1 -1 -1 -1 -2
15 15 14 14 13 13 12 12 12 12 12 11 10 11 10 9 8 7 7 7 6 6 5 4 4 4 4 4 3 3 2 1 1 -0 -1 -1 -3 -3 -3 -2 -2 -3 -3
15 15 14 14 14 13 13 13 12 12 11 10 10 10 10 9 8 7 7 6 6 5 5 4 5 3 3 3 3 2 1 1 0 -1 -2 -2 -3 -3 -3 -3 -3 -3 -3

GFSSE_850_temp_057.txt.gz
Temp
15 15 15 15 16 16 17 17 17 17 17 16 16 16 16 16 16 15 16 16 15 15 14 14 14 14 13 13 13 13 13 13 13 13 14 14 14 13 13 13 13 13 13
15 15 15 15 16 16 17 17 17 17 17 16 17 17 16 16 15 15 15 16 15 14 14 14 14 14 13 13 13 13 13 13 13 13 13 13 13 13 13 13 13 13 13
15 14 15 15 16 16 16 16 16 16 17 17 17 17 16 15 15 15 15 15 14 14 14 14 13 13 13 13 13 13 13 12 12 12 12 11 12 12 12 13 13 13 13
14 14 14 15 15 15 16 16 16 17 17 17 16 16 15 15 15 14 14 14 14 14 14 14 14 13 13 13 13 12 12 12 12 12 12 10 10 12 12 12 12 12 12
14 14 14 14 14 15 15 16 16 17 17 16 16 15 15 14 14 14 14 14 14 14 14 14 14 13 13 12 12 12 12 12 12 11 10 10 9 10 11 11 11 11 11
14 14 14 13 14 15 15 16 16 17 16 16 15 15 14 14 14 13 13 14 14 14 14 14 13 13 12 12 12 12 11 11 12 12 11 10 8 11 11 11 11 11 11
14 13 13 14 14 14 15 16 17 16 16 15 14 15 14 14 14 13 13 13 13 13 13 13 13 12 12 12 11 11 11 11 11 11 10 9 9 10 10 10 10 10 10
13 13 13 13 11 11 12 14 16 16 16 14 15 14 14 13 13 13 13 13 13 13 13 12 12 12 11 11 11 11 11 11 11 11 9 8 10 10 10 10 9 9 9
13 13 12 10 10 10 9 12 15 15 14 14 14 14 13 13 13 13 13 13 13 13 12 12 12 11 11 11 11 11 11 11 11 10 9 7 7 7 9 9 8 8 8
12 13 12 12 12 11 8 11 14 14 14 14 14 13 13 13 13 12 13 13 12 12 12 12 11 11 11 11 11 11 11 11 11 10 9 7 6 6 7 8 7 7 7
12 12 12 11 11 12 10 10 12 12 13 13 13 13 13 13 13 13 13 12 12 12 12 11 11 12 11 11 11 11 11 11 10 10 9 8 8 7 6 7 7 7 7
11 11 12 12 12 10 10 10 10 11 13 14 13 13 13 13 13 13 13 12 12 12 11 11 11 11 10 10 11 11 11 10 10 9 9 8 8 6 5 5 5 6 5
11 11 11 10 10 10 11 10 11 13 13 13 13 12 12 13 12 12 12 12 12 11 12 11 11 10 10 11 11 11 11 10 9 9 8 7 7 5 5 5 4 3 4
10 10 10 10 12 12 12 13 13 13 13 13 13 13 12 12 12 12 12 11 12 12 11 10 10 10 10 10 10 10 10 9 9 9 8 8 7 6 5 4 4 3 3
9 10 10 11 11 11 12 13 13 13 13 13 13 12 12 12 12 12 12 11 11 11 10 10 10 10 10 10 10 10 10 9 9 8 8 8 7 5 4 4 4 3 3
10 10 11 11 11 12 13 13 13 13 13 12 12 12 11 11 11 11 11 11 11 10 10 10 10 10 10 10 9 9 9 9 8 8 8 7 6 5 5 4 4 3 3
12 11 12 12 13 13 13 13 12 12 12 12 12 11 11 11 11 11 11 11 11 10 10 9 9 9 9 9 8 8 8 8 8 7 7 6 5 4 4 4 3 3 3
12 12 12 12 13 12 13 13 12 12 12 11 11 11 12 12 11 12 11 10 10 10 10 9 9 9 8 8 8 8 7 7 6 5 5 4 3 3 3 3 3 3 2
12 13 12 12 12 12 12 12 12 12 11 11 11 12 12 12 12 11 11 10 10 9 9 9 9 9 8 8 7 7 6 5 5 4 4 4 4 3 3 2 2 2 2
13 12 12 12 12 12 12 12 12 11 11 11 11 11 11 11 12 11 10 10 9 9 9 9 9 8 8 7 6 6 6 5 4 4 3 3 3 2 2 2 2 2 1
13 13 12 13 13 12 12 12 11 11 12 11 11 12 12 11 11 11 10 10 9 9 8 8 8 7 7 6 5 5 5 4 4 3 3 3 2 2 2 1 1 0 0
14 14 13 13 13 13 13 13 12 12 12 11 11 11 12 10 10 10 10 9 9 8 8 7 7 6 5 5 5 5 4 3 3 3 3 2 2 1 1 0 -0 -1 -1
14 14 14 14 13 12 12 13 13 12 11 11 11 11 11 10 10 10 9 9 8 8 7 7 6 6 5 5 4 4 3 4 3 2 3 2 1 0 0 0 -1 -1 -1
15 15 15 14 13 13 12 12 12 12 12 12 12 12 11 10 10 10 9 8 8 7 7 7 6 5 5 4 4 4 3 3 2 2 1 1 0 -0 -1 -1 -2 -1 -2
15 15 15 14 14 13 13 12 12 12 12 12 12 11 9 9 10 9 8 7 7 7 7 6 5 5 4 5 3 3 3 3 2 0 1 -0 -1 -2 -2 -2 -2 -2 -2
16 16 16 15 15 14 13 13 12 12 12 12 11 10 9 9 9 8 8 7 7 7 6 5 5 4 3 3 3 3 3 2 0 -1 -1 -1 -1 -2 -3 -4 -3 -3 -3

GFSSE_850_temp_060.txt.gz
Temp
15 14 15 16 16 16 16 16 16 16 16 16 16 16 16 16 16 16 16 16 15 15 14 14 14 14 14 14 13 13 13 13 13 13 14 14 13 13 13 13 11 12 13
15 14 15 16 15 16 16 16 16 16 16 16 16 16 16 16 16 16 15 15 14 14 14 14 14 14 14 14 14 13 13 13 13 13 12 12 13 13 13 13 13 12 13
15 14 15 15 15 15 16 16 16 16 16 16 16 16 16 16 16 15 15 14 14 14 14 14 14 14 14 13 13 13 13 13 13 12 12 12 10 13 13 13 12 12 12
15 14 13 15 15 15 16 16 16 16 16 16 16 16 16 16 16 15 15 14 14 14 14 14 14 14 13 13 13 13 13 12 13 11 12 12 10 12 12 12 12 12 11
14 14 14 15 15 16 16 16 16 16 16 16 16 16 16 15 15 15 14 14 14 14 14 14 13 13 13 13 13 12 12 12 11 11 11 11 10 11 12 11 11 12 11
14 14 14 14 15 15 15 15 16 16 16 16 16 16 15 15 14 14 14 14 14 14 13 13 13 13 13 13 12 12 12 12 11 11 11 9 8 10 11 11 11 11 11
14 14 14 13 14 14 14 15 16 16 16 16 16 15 15 14 14 14 14 14 14 13 13 13 13 12 12 12 12 12 12 11 11 11 11 9 8 10 10 10 10 10 10
14 13 13 12 12 11 10 11 12 13 14 15 15 14 14 14 14 14 14 14 13 13 13 12 12 12 12 11 11 12 12 11 11 11 10 8 8 9 10 10 9 9 9
12 13 13 12 11 9 9 9 11 11 13 14 14 13 14 14 13 13 13 13 13 12 12 12 12 11 11 11 11 11 11 11 10 10 10 9 7 6 8 8 8 8 8
13 13 12 13 12 11 11 10 10 11 13 14 13 13 14 13 13 13 13 13 12 12 12 12 11 11 11 11 11 11 11 10 10 10 9 7 6 5 5 7 7 7 7
12 12 11 12 13 13 10 11 9 11 13 13 13 13 13 12 12 12 12 12 12 12 12 11 11 10 11 11 11 11 10 9 9 10 9 8 6 5 5 5 6 6 6
11 11 11 11 11 10 11 10 10 11 12 12 13 12 12 12 11 11 12 12 11 11 11 11 10 10 10 9 10 10 9 10 9 9 9 9 7 6 5 4 4 6 5
10 10 10 10 10 9 9 9 10 12 12 12 12 12 13 11 12 12 12 11 11 11 11 11 10 11 11 11 11 11 11 9 8 8 9 9 8 6 5 4 5 4 4
10 10 9 9 9 9 10 10 11 12 11 11 12 13 13 11 11 10 10 11 11 10 11 10 11 10 10 11 10 10 10 9 8 8 7 8 7 5 5 4 4 4 4
9 8 7 8 9 10 11 10 10 11 12 10 12 12 12 12 12 12 11 11 11 11 10 10 10 10 10 10 10 10 10 9 9 7 6 7 6 5 5 5 5 5 4
8 9 9 8 9 9 9 9 10 10 10 12 12 12 12 12 12 12 11 11 11 11 11 10 10 10 10 10 10 9 9 9 9 7 6 6 6 5 5 5 5 4 4
9 9 9 10 9 9 9 10 10 12 12 11 12 12 12 12 11 11 11 11 11 11 11 10 10 10 10 9 9 9 8 8 8 7 6 6 5 5 5 4 4 4 4
11 10 10 10 10 10 10 10 10 11 12 11 12 12 11 11 11 11 11 11 11 10 10 10 9 9 8 7 8 7 6 7 7 7 6 5 5 5 4 4 4 4 3
12 11 11 10 10 10 11 12 12 12 12 10 10 10 11 11 12 12 11 11 10 10 10 10 9 8 7 7 7 6 7 6 6 5 4 4 4 4 4 3 3 3 3
11 11 11 11 10 12 12 13 12 12 11 10 11 11 12 11 12 12 11 11 10 10 9 9 9 9 7 7 6 6 5 5 5 4 4 4 3 3 2 2 2 2 1
12 12 12 11 11 10 10 12 11 11 10 10 10 11 11 12 12 12 11 10 10 9 9 9 9 8 6 8 6 7 5 4 4 4 4 4 3 2 2 1 1 1 2
13 12 12 12 11 12 11 11 11 11 11 10 10 12 12 11 12 12 10 10 9 8 9 8 8 6 6 7 6 6 8 7 4 4 4 3 3 2 2 1 0 -0 -0
13 12 12 12 12 11 11 11 10 10 10 11 10 12 12 12 12 11 10 10 9 9 8 8 7 7 6 5 6 5 7 8 6 6 4 3 3 2 2 1 0 -0 -1
13 13 12 12 12 11 11 11 11 11 11 11 10 12 12 12 11 10 10 9 9 8 7 8 8 6 6 5 4 5 4 4 5 6 5 3 1 1 1 1 0 -1 -1
14 13 12 12 12 11 11 11 11 12 12 11 10 11 12 11 10 10 9 9 8 8 8 7 7 6 6 4 3 3 3 3 3 3 4 5 3 2 2 0 -0 -1 -1
14 13 14 14 12 12 13 13 12 11 11 10 11 11 11 10 10 10 9 8 8 7 8 7 7 6 5 5 5 4 2 3 4 3 3 3 3 2 1 -0 -1 -1 -2

GFSSE_850_temp_063.txt.gz
Temp
16 17 17 15 15 16 16 16 17 17 17 17 17 16 16 17 16 16 16 14 13 14 14 14 14 14 14 14 14 14 14 14 13 13 13 14 13 13 12 12 10 11 13
16 16 17 15 15 15 16 16 16 17 16 17 16 16 16 17 16 16 16 14 14 14 14 14 14 14 14 14 14 13 13 13 13 12 12 12 13 13 13 12 12 10 11
16 15 17 15 15 15 15 16 16 16 16 16 16 16 16 16 16 16 15 14 14 14 14 14 14 14 13 13 13 13 13 12 12 13 13 11 10 12 12 12 11 11 11
15 14 14 15 14 15 15 15 16 16 16 16 16 16 16 16 15 15 15 14 13 14 14 14 14 13 13 13 13 13 12 12 12 13 13 12 9 11 10 12 12 12 11
15 14 14 15 14 15 15 15 15 15 16 16 16 16 16 15 15 15 14 14 13 14 14 13 13 13 13 13 13 12 12 12 12 12 11 10 9 12 11 10 11 12 12
15 14 14 14 14 14 14 14 15 15 16 15 15 15 15 15 15 15 14 13 13 14 13 13 13 13 13 13 12 12 12 13 13 12 11 9 11 11 12 12 12 11 11
14 14 13 13 14 13 13 14 14 15 15 15 14 14 14 14 14 14 14 14 14 13 13 13 13 12 12 12 12 12 12 12 13 12 10 8 11 11 11 11 11 11 11
15 14 13 12 12 12 12 12 12 13 13 13 14 14 14 14 14 14 14 14 13 13 13 12 12 12 12 12 12 12 12 12 12 12 10 8 10 10 10 10 9 9 9
13 14 13 12 11 10 9 10 11 11 12 12 13 14 14 14 14 14 13 13 13 13 12 12 12 12 12 12 12 12 12 11 12 12 11 8 8 9 9 8 9 9 9
14 13 13 13 13 12 12 10 10 11 12 13 13 14 14 14 13 13 13 13 13 12 12 12 12 11 12 12 12 12 11 11 12 12 9 8 7 6 7 8 8 7 8
11 11 11 11 11 11 11 11 10 10 11 12 13 14 14 13 13 12 13 12 12 12 12 12 11 12 12 11 12 12 10 11 11 11 8 8 6 5 5 7 7 7 7
11 11 11 11 10 12 10 9 10 9 11 12 12 12 13 12 12 12 12 12 11 11 11 11 11 11 10 10 11 10 10 10 10 10 9 9 6 5 5 5 5 6 6
11 10 10 10 10 10 10 10 9 9 11 12 11 13 13 11 11 12 12 11 11 11 11 11 10 10 11 10 11 10 9 10 10 10 9 9 8 5 5 5 4 4 4
10 9 9 10 10 9 9 9 9 11 11 12 13 13 11 10 11 12 10 10 11 10 10 9 10 11 11 11 11 11 11 9 9 9 9 9 8 6 5 5 4 4 4
9 9 9 9 9 8 8 9 10 11 11 11 12 12 11 10 10 10 10 10 10 10 9 9 10 11 11 11 10 10 10 10 9 9 8 9 8 6 5 5 4 4 4
9 8 8 8 8 9 10 10 11 11 11 12 12 11 10 10 10 10 10 10 10 9 9 9 9 10 9 8 9 10 10 8 9 8 8 7 7 6 6 6 5 5 5
9 8 8 8 9 10 10 10 11 11 11 10 10 10 10 10 10 10 10 10 9 10 9 9 10 9 9 9 8 8 8 9 8 7 8 7 6 6 6 5 5 5 5
9 9 9 10 10 10 11 11 11 11 11 11 11 10 11 11 12 11 10 10 10 10 10 9 9 9 9 9 9 9 8 7 7 6 7 7 7 6 5 5 4 4 4
11 11 11 11 11 11 11 11 11 11 11 11 11 11 10 12 10 11 10 10 11 10 9 9 9 9 9 9 9 8 8 7 7 7 6 5 5 5 5 5 4 4 3
13 12 12 11 11 11 11 11 11 11 11 12 11 12 11 11 11 11 11 11 11 9 10 9 9 9 9 9 9 9 8 7 7 6 6 5 5 4 4 3 3 4 3
13 12 12 12 11 12 12 12 12 12 12 12 12 12 11 11 11 11 10 10 11 9 9 8 8 8 8 8 8 8 8 6 6 6 6 6 5 5 4 3 2 3 3
13 13 13 13 12 12 12 13 13 13 13 12 12 12 10 10 11 12 10 9 11 9 8 8 8 8 8 7 8 8 9 8 6 6 6 6 5 4 4 4 3 2 1
14 14 14 14 13 13 13 13 13 13 13 12 12 12 11 10 11 11 10 9 10 10 9 9 7 8 8 7 6 7 8 8 7 8 6 5 5 4 3 3 3 2 1
15 14 14 14 14 14 13 14 13 13 13 13 12 12 11 10 11 11 10 9 9 9 9 8 7 7 7 8 6 7 6 5 5 6 7 6 4 3 3 3 3 2 1
15 15 14 14 14 14 13 13 13 13 13 13 12 12 11 10 10 10 9 9 9 8 8 8 7 6 7 7 6 6 6 5 4 4 5 6 6 5 4 3 2 1 1
16 15 15 14 14 14 14 13 13 13 12 13 13 12 10 10 10 11 10 10 9 9 8 7 6 6 6 7 6 6 5 4 4 4 5 5 5 5 4 3 2 1 0

GFSSE_850_temp_066.txt.gz
Temp
16 17 17 18 17 17 17 17 17 17 17 17 17 17 17 17 17 16 15 14 14 14 14 15 15 15 15 14 14 14 13 12 12 13 13 13 12 12 12 12 13 13 13
14 16 16 16 16 16 17 17 17 17 17 17 17 17 17 17 16 14 14 14 14 14 14 14 15 14 14 14 14 13 13 12 12 12 13 12 11 11 11 10 10 10 11
14 14 16 16 15 15 16 16 16 16 16 16 16 17 17 16 15 14 14 14 14 14 14 14 14 14 14 14 13 13 12 12 12 11 11 11 10 10 11 11 9 9 9
16 15 16 16 15 15 16 16 16 16 16 16 16 17 16 16 15 13 14 14 14 14 14 14 13 13 13 13 13 13 13 12 12 11 11 11 12 12 11 12 11 11 11
15 15 16 16 15 15 15 15 15 15 15 16 16 16 16 15 14 13 14 14 14 14 14 13 13 13 13 13 12 13 13 13 12 12 11 11 12 12 12 12 12 12 11
15 15 16 15 15 15 15 15 15 15 15 16 16 15 15 15 14 13 14 14 14 14 13 13 13 13 13 13 13 13 13 12 11 11 12 12 12 12 12 12 12 12 11
14 15 14 14 14 14 14 14 14 14 15 15 15 14 14 14 13 13 13 14 14 13 13 13 13 13 13 13 13 13 13 12 12 11 12 12 12 12 12 12 12 12 11
16 14 15 14 13 14 13 13 12 14 14 14 14 13 13 14 13 13 14 14 13 13 13 13 13 13 13 13 13 12 12 13 12 11 11 12 11 11 11 11 11 11 11
13 15 15 16 14 11 10 10 10 13 14 14 14 13 14 14 14 14 14 14 13 13 13 13 13 13 13 13 12 12 12 12 11 10 10 11 11 10 10 10 10 10 9
12 13 14 16 14 12 11 10 10 12 14 14 13 13 13 14 14 13 13 13 13 13 12 12 12 12 12 12 12 11 11 12 11 11 10 11 9 8 9 9 9 8 9
12 12 13 12 14 13 12 11 11 11 12 12 12 13 13 13 13 13 13 13 12 12 12 12 12 12 12 12 12 11 11 11 11 11 10 10 8 7 8 8 8 8 7
11 11 12 13 12 11 10 11 11 9 10 11 12 12 13 13 13 12 12 12 12 12 12 11 11 11 11 11 11 11 11 10 10 10 10 10 7 6 7 8 8 7 6
11 11 11 11 11 10 11 10 10 10 10 11 12 12 13 13 13 12 12 12 12 11 11 11 11 11 10 11 11 11 10 10 10 10 10 10 8 7 7 6 6 6 5
10 10 10 10 10 9 10 9 10 10 10 11 11 13 13 14 12 12 12 11 11 11 11 11 11 10 10 11 11 11 11 11 9 9 10 10 8 7 5 6 6 6 5
10 10 10 9 9 10 10 8 9 9 10 11 12 12 14 13 12 12 11 11 11 11 11 9 10 10 11 11 11 11 11 11 9 9 9 9 9 8 7 7 6 5 5
9 9 9 9 9 9 8 8 9 9 11 11 12 11 13 12 12 11 10 11 10 10 10 10 10 10 10 11 11 11 10 10 9 8 9 9 9 8 7 7 6 6 5
9 9 8 8 8 8 8 9 10 10 11 11 10 11 11 11 11 10 10 10 10 10 10 9 9 9 10 9 10 10 9 9 10 9 8 8 7 7 6 6 6 5 5
9 9 9 9 9 9 9 10 10 11 11 10 11 11 12 11 11 10 10 10 10 10 10 9 10 10 9 9 9 9 9 9 9 9 7 7 7 6 6 5 5 5 5
9 9 9 9 9 10 10 10 10 11 11 11 11 12 12 11 11 11 10 10 10 10 10 10 10 9 9 9 9 9 8 8 8 7 7 7 6 6 5 5 4 4 4
10 10 10 10 10 10 11 11 11 11 12 12 12 11 11 12 11 11 10 10 11 10 10 10 9 9 9 9 9 9 8 8 8 7 7 6 6 5 5 4 4 3 3
11 11 11 11 11 11 11 11 11 11 11 11 12 11 11 11 12 11 12 11 11 10 9 10 9 9 9 9 9 9 9 8 8 8 6 6 6 5 5 4 4 3 2
12 12 12 12 12 11 11 11 12 11 12 12 12 12 12 11 12 11 11 10 10 10 9 9 9 9 9 8 9 8 9 8 7 7 7 6 6 5 5 4 4 3 3
13 12 12 12 12 12 12 12 12 12 12 12 12 12 12 12 12 10 11 10 10 11 10 9 9 10 9 8 8 9 8 9 7 7 7 7 6 5 5 4 4 3 2
14 13 13 13 12 12 13 13 13 13 13 13 12 12 12 12 11 10 10 10 9 10 10 9 9 9 8 8 8 8 8 7 7 6 7 6 6 6 5 5 4 3 3
14 14 13 14 14 13 13 14 14 14 13 13 13 13 12 11 11 10 9 9 9 9 9 9 7 8 8 8 7 8 7 6 6 5 5 6 6 5 5 4 4 3 2
15 15 14 14 14 14 14 14 14 13 13 13 13 13 12 12 12 11 10 10 12 11 9 9 7 6 7 7 6 7 7 6 5 4 4 4 5 5 5 5 4 3 3

GFSSE_850_temp_069.txt.gz
Temp
16 17 16 18 17 18 18 18 18 18 18 17 17 17 17 17 17 17 16 15 15 15 15 15 15 15 15 14 13 13 12 12 12 13 11 10 10 12 13 13 11 10 11
19 16 15 17 16 17 17 17 17 17 17 17 17 17 17 17 16 15 15 15 14 14 15 15 15 14 14 13 12 12 11 11 11 11 13 11 10 11 12 12 11 10 10
19 19 16 14 16 16 17 17 17 17 16 16 17 17 17 17 15 15 15 14 14 15 15 14 14 14 13 12 12 11 11 10 11 12 13 13 12 12 12 11 12 11 10
18 19 20 15 12 16 16 16 16 16 16 16 17 16 16 15 15 14 14 14 14 15 14 14 14 14 13 12 12 11 11 11 12 12 13 13 13 12 12 12 12 11 10
17 16 16 17 15 15 16 17 16 16 16 16 16 16 14 14 14 14 14 14 15 14 14 14 14 13 13 12 12 12 12 12 12 13 13 13 12 12 12 12 12 12 10
16 15 16 14 14 15 15 15 15 15 15 16 16 15 14 14 14 14 14 15 14 14 14 14 14 13 13 12 12 12 12 12 12 13 13 12 12 12 12 12 12 11 10
17 16 16 14 14 14 14 15 15 15 15 16 15 14 13 13 14 14 14 14 14 14 14 14 14 13 13 13 12 12 12 12 12 12 12 12 12 12 12 12 11 10 10
16 17 17 16 13 13 10 14 14 15 16 16 15 14 13 14 14 14 14 14 14 14 14 14 13 13 13 13 12 12 11 11 12 12 12 12 12 12 11 11 11 10 11
16 16 15 15 17 15 10 12 10 11 13 14 14 13 13 13 14 14 14 14 13 13 13 13 13 13 13 12 12 11 11 11 11 11 12 12 11 11 11 11 11 10 10
13 13 13 13 13 12 12 11 9 9 12 13 13 13 13 13 13 14 14 13 13 13 13 13 13 13 13 12 12 11 11 11 11 11 11 12 11 11 10 10 9 9 8
12 11 12 13 13 13 12 11 10 8 12 12 12 13 13 13 13 13 13 13 13 12 13 12 12 12 12 12 12 11 11 10 11 11 11 11 11 10 10 10 9 8 8
11 12 11 12 13 12 10 10 10 9 10 12 12 13 12 13 13 13 13 12 12 12 12 12 12 12 11 12 11 11 11 11 11 11 10 11 11 11 10 10 10 9 8
11 10 11 11 10 12 11 11 10 9 10 10 11 12 13 13 13 13 13 12 12 12 12 12 12 12 12 11 11 11 11 11 11 11 10 11 11 10 10 10 9 9 8
11 10 10 10 10 11 10 11 10 9 11 11 12 13 13 13 13 13 13 12 12 11 11 11 11 11 11 11 11 11 11 11 11 10 10 10 10 10 9 7 7 7 7
10 10 10 10 10 10 10 9 10 10 10 11 12 12 13 13 13 14 12 12 12 11 11 11 11 11 11 11 11 11 10 10 10 9 9 9 9 8 6 6 7 7 6
10 10 10 10 10 10 10 9 10 11 10 11 12 12 12 13 14 13 12 12 11 11 10 11 10 11 11 11 11 11 10 10 10 10 9 8 8 8 8 7 7 7 6
9 9 9 10 10 11 10 10 10 10 10 11 11 11 12 12 14 13 12 12 12 11 10 10 10 10 10 10 10 10 10 10 10 9 9 8 8 8 7 7 7 6 6
9 9 9 9 9 9 9 10 10 10 10 11 12 11 13 13 13 12 12 11 11 10 10 10 10 10 10 10 10 10 10 10 9 9 9 9 8 7 7 6 6 5 5
9 9 9 9 9 8 9 10 10 10 11 10 11 12 12 12 12 11 11 11 10 10 10 10 10 10 10 9 9 9 9 9 9 9 8 8 8 7 7 7 6 6 5
9 9 10 10 9 9 10 10 10 10 11 11 12 12 12 12 12 12 11 11 11 11 10 10 10 10 10 9 9 9 9 9 9 9 9 7 7 6 6 6 6 5 4
9 9 11 10 10 10 10 10 11 11 11 12 11 12 12 12 13 12 11 11 10 11 10 10 10 9 9 9 9 9 8 8 9 8 8 8 8 7 6 5 5 4 4
11 10 11 11 10 11 11 11 10 11 11 11 11 11 12 13 12 12 12 11 11 11 10 10 10 9 9 9 9 9 9 8 8 8 7 7 7 6 6 5 5 4 4
12 12 11 11 10 10 11 10 11 11 11 12 12 12 12 12 11 11 11 11 11 11 11 10 10 9 9 9 9 10 8 8 8 8 8 7 7 6 6 5 5 5 4
12 12 12 11 11 11 11 11 12 11 12 12 12 12 12 12 12 11 12 12 12 11 11 10 9 9 8 8 8 8 8 8 7 7 7 7 6 6 6 6 5 5 4
12 12 12 11 11 11 11 12 12 12 12 12 12 12 12 12 12 12 11 11 11 10 9 10 10 9 8 7 7 7 7 6 5 6 6 7 5 5 5 5 5 5 4
14 13 13 12 12 12 13 12 12 13 13 12 12 12 12 12 12 12 12 12 12 11 11 10 9 8 8 7 6 6 6 6 5 5 5 5 5 5 5 4 4 4 3

GFSSE_850_temp_072.txt.gz
Temp
17 17 17 17 19 18 19 17 18 18 18 18 18 18 18 17 17 16 16 16 15 14 14 14 14 14 14 13 13 12 12 12 12 11 10 10 10 10 12 12 11 10 11
15 16 17 17 18 17 18 17 17 18 18 17 17 17 17 17 17 17 16 15 15 15 14 14 14 14 13 12 12 12 12 12 13 13 12 10 9 10 11 10 11 10 10
15 15 16 17 18 17 15 16 17 17 17 17 17 17 17 16 16 16 15 15 15 15 15 14 13 13 12 11 12 11 13 12 13 13 13 12 11 9 11 12 10 10 9
16 15 16 17 17 19 16 14 17 17 17 17 17 17 17 16 16 15 15 15 15 15 15 14 13 12 12 12 12 12 12 12 12 13 13 13 12 11 11 11 9 9 9
17 16 15 15 16 18 16 13 15 16 16 16 16 16 16 15 15 15 15 15 15 15 14 13 13 12 12 12 12 12 12 13 13 13 13 13 13 12 11 10 9 8 8
18 17 15 14 15 15 14 13 12 16 16 16 14 14 15 15 15 15 15 15 14 14 14 13 12 12 12 12 12 12 12 12 13 13 13 12 12 11 12 11 11 11 10
16 17 14 12 12 11 11 12 12 13 15 15 16 15 14 14 14 15 15 15 14 14 14 13 12 12 12 12 12 12 12 12 13 13 13 12 12 12 10 10 11 10 11
14 15 15 12 13 14 11 12 12 12 16 13 15 14 14 14 14 14 14 14 14 14 14 13 12 12 12 12 12 12 12 11 12 12 12 12 12 10 10 10 11 10 9
13 13 14 13 14 13 13 12 12 10 12 13 13 13 13 14 14 14 14 14 14 14 14 13 12 12 11 12 12 12 11 11 11 11 12 12 11 11 11 10 11 10 10
12 13 12 14 15 14 14 12 10 9 11 12 13 12 13 13 14 14 14 14 14 14 13 13 13 12 12 11 12 11 11 11 11 11 12 12 11 11 11 11 11 10 10
11 11 11 12 13 13 14 12 11 10 10 12 12 12 13 13 13 13 13 13 13 13 13 13 13 12 12 12 12 12 11 11 11 11 11 12 11 11 10 10 9 9 9
11 11 11 12 13 12 11 10 10 10 10 12 12 12 12 13 13 13 13 13 12 12 13 13 12 12 12 11 12 12 11 11 11 11 11 11 11 10 10 10 10 9 8
10 10 11 11 12 11 10 10 10 10 9 10 12 12 13 13 13 13 13 13 12 12 12 13 12 12 12 12 12 11 11 11 11 11 11 11 11 10 10 10 9 9 8
10 10 10 10 11 11 10 11 11 10 9 10 10 11 13 13 13 13 13 12 12 12 12 12 12 12 12 11 11 11 11 11 11 11 11 11 11 10 10 10 9 9 8
10 10 10 10 11 11 10 10 10 10 10 10 11 12 13 13 13 13 13 12 12 12 11 12 12 11 11 11 11 11 11 11 11 11 11 10 10 10 9 9 7 7 7
10 10 10 10 11 11 12 11 10 10 11 12 12 12 12 13 13 12 12 12 12 12 12 12 11 11 11 11 11 10 11 11 11 11 10 10 9 9 8 7 6 6 6
10 10 9 10 10 11 10 10 10 10 11 11 12 12 12 12 13 13 13 13 12 12 12 11 11 11 11 11 11 11 11 10 10 10 10 10 9 8 7 7 7 7 7
10 9 9 9 10 9 9 10 10 10 11 11 12 12 11 12 12 13 13 13 12 12 12 11 11 11 11 11 11 10 10 10 10 10 10 10 9 9 8 8 7 7 7
9 9 9 9 9 9 9 10 10 10 11 12 12 12 11 11 12 13 13 13 12 12 11 11 11 11 10 10 10 10 10 10 10 9 9 9 9 8 8 8 7 7 6
9 9 9 9 9 9 9 9 10 10 11 11 11 10 11 11 12 13 13 13 12 11 11 11 11 11 10 10 10 10 10 10 9 9 9 9 9 8 8 7 7 6 6
9 9 9 9 9 8 9 10 10 11 11 10 10 11 12 12 13 13 13 12 11 11 11 11 11 10 10 10 9 9 9 9 8 8 8 8 8 8 8 7 7 6 6
9 9 9 9 9 9 10 11 10 11 10 11 11 12 12 13 13 12 12 12 12 12 11 11 10 10 10 9 9 9 8 8 8 9 9 8 8 7 7 6 6 6 5
10 9 10 9 9 9 10 10 10 10 11 11 12 12 12 12 12 12 12 12 13 12 11 10 10 10 10 9 9 8 8 7 9 8 8 7 7 7 7 6 6 5 5
12 11 10 10 10 10 11 11 11 11 11 11 12 12 12 12 12 12 12 12 12 11 11 11 10 10 9 9 8 8 7 6 7 6 7 7 7 7 6 6 6 5 5
12 11 11 11 11 11 11 11 11 11 11 12 12 12 12 12 12 12 12 12 11 11 11 11 11 10 9 9 9 8 7 5 6 6 6 6 6 6 6 5 5 5 5
13 12 11 11 11 11 11 11 11 11 11 11 12 12 12 12 12 12 11 11 11 11 11 11 11 10 9 9 9 8 7 6 6 6 5 6 5 5 5 4 4 4 4

GFSSE_850_temp_075.txt.gz
Temp
17 17 17 17 17 19 19 19 19 16 18 17 17 16 16 16 16 17 16 15 15 14 14 14 14 14 14 14 14 14 13 11 10 10 10 10 10 11 10 10 11 11 10
15 16 17 17 17 18 18 18 18 17 17 17 17 17 16 16 17 17 16 15 14 14 14 14 14 14 13 13 13 13 13 13 12 10 10 9 10 10 10 11 10 10 10
15 15 15 16 17 17 17 17 16 17 17 17 17 17 16 16 16 16 15 15 15 15 14 14 12 12 13 12 13 12 12 13 13 12 11 10 9 9 10 9 9 9 9
16 15 15 14 14 16 17 17 17 16 16 17 17 17 16 16 15 15 15 15 15 15 14 14 14 13 13 13 12 12 12 12 12 12 13 11 9 8 9 9 9 8 8
17 16 16 17 12 13 13 13 14 16 14 16 16 16 15 15 14 14 15 15 15 14 13 13 13 13 12 12 12 12 12 12 12 13 12 12 11 8 9 8 8 8 7
16 15 15 15 14 14 13 13 16 16 14 13 16 16 15 15 14 14 15 15 14 13 13 13 12 12 12 12 12 12 12 13 13 13 12 12 10 7 8 9 9 10 9
16 15 14 13 14 14 14 13 13 13 14 11 15 15 14 14 14 14 14 14 14 13 12 12 12 12 12 12 12 12 12 13 13 13 13 12 10 8 9 11 10 10 10
14 15 14 12 12 13 14 14 13 12 11 12 14 14 14 14 14 14 14 14 14 12 12 12 12 12 12 12 12 12 12 12 13 13 13 12 11 10 11 10 9 10 10
13 15 14 12 13 15 13 14 14 12 11 11 13 13 13 14 14 14 14 14 13 12 12 12 12 12 12 12 12 12 12 12 12 12 12 12 11 11 11 10 9 10 10
12 13 12 13 13 12 12 12 12 12 11 12 12 13 14 14 14 13 13 13 13 12 12 12 12 12 12 12 12 11 12 12 12 12 12 12 12 11 10 11 10 10 10
11 11 12 12 12 11 11 11 12 10 11 11 12 13 14 13 13 13 13 13 13 12 12 12 12 12 12 12 12 11 12 11 12 12 12 11 11 11 11 10 10 10 9
11 11 11 11 11 11 11 11 12 11 10 10 11 13 13 13 12 13 13 13 13 13 12 12 13 12 12 12 12 12 11 12 11 11 11 11 11 11 11 10 10 10 9
11 11 11 11 11 11 11 11 10 10 10 10 12 13 13 13 12 12 13 13 13 14 13 12 12 12 12 12 12 11 11 11 11 11 11 11 11 11 10 10 10 10 10
10 10 11 11 12 10 10 11 10 10 9 10 12 13 13 12 13 13 13 13 13 13 13 13 12 11 12 11 11 11 11 11 11 11 11 11 11 11 10 10 10 9 9
10 10 10 11 11 10 10 10 9 9 9 10 11 13 12 12 12 13 12 12 13 13 13 12 12 12 12 12 12 11 11 11 11 11 11 10 10 10 9 9 10 9 9
10 10 10 10 10 10 10 11 9 9 10 10 10 11 12 13 13 12 12 12 12 12 12 12 12 12 12 11 12 11 11 11 11 11 10 10 9 9 8 8 8 7 7
10 10 10 9 10 10 11 10 9 9 9 9 10 11 12 13 12 12 12 12 12 11 12 12 12 11 11 11 11 11 11 11 11 11 10 10 10 9 9 8 8 7 7
10 10 9 9 10 9 9 9 8 9 10 11 12 12 12 12 12 12 12 11 12 12 12 12 12 11 11 11 11 11 11 11 11 10 10 10 10 9 9 8 8 7 7
10 9 9 10 9 9 8 8 9 9 10 11 11 12 12 12 12 12 12 12 12 12 12 12 12 11 11 11 11 10 10 10 10 10 10 10 9 9 9 8 8 7 7
9 9 9 9 9 8 8 8 9 9 10 11 11 12 12 11 11 11 12 12 12 12 12 12 11 11 11 10 10 10 10 10 9 10 10 9 9 9 8 8 8 7 7
9 9 9 9 9 9 8 8 9 9 10 11 11 11 11 11 11 12 11 11 12 12 12 12 11 10 10 10 9 9 9 9 9 9 9 9 9 8 8 8 7 7 7
10 9 9 9 10 9 8 9 9 9 10 11 11 11 11 12 11 11 11 12 12 13 12 11 11 10 10 9 9 9 9 9 9 9 8 8 8 8 8 8 7 7 6
10 9 9 9 10 9 8 9 9 9 10 10 10 11 11 11 11 11 11 12 12 12 12 12 11 11 10 10 9 9 8 8 8 9 8 8 8 7 7 7 7 6 6
12 10 9 9 9 9 9 9 10 10 10 11 11 11 11 11 11 11 12 12 12 12 11 11 11 10 10 9 9 9 8 8 8 8 8 8 7 7 7 6 7 6 6
12 12 11 9 9 9 9 10 10 10 11 11 11 11 12 12 12 12 12 12 12 11 11 11 11 10 10 9 9 9 8 8 8 6 6 7 7 7 6 6 6 6 5
13 12 11 11 10 10 9 10 10 10 11 11 12 12 12 12 12 12 12 12 12 11 11 11 11 11 10 10 9 9 9 8 8 7 6 6 6 6 6 6 5 5 4

GFSSE_850_temp_078.txt.gz
Temp
16 16 16 16 18 17 18 18 18 18 18 18 18 18 17 17 16 16 15 15 15 15 14 14 13 14 12 12 13 13 12 11 10 10 11 10 10 10 11 11 10 11 11
15 15 15 16 17 16 16 16 17 18 18 17 17 17 17 16 16 16 14 14 14 14 14 14 14 14 13 14 14 13 13 10 10 10 10 10 10 11 10 10 10 10 10
14 15 15 15 16 16 15 15 16 17 17 17 16 16 16 16 16 14 14 13 14 14 14 14 14 14 14 13 13 13 12 12 12 11 10 9 10 10 9 9 9 8 8
15 15 15 15 14 14 14 14 14 16 17 16 16 16 16 16 15 14 13 13 14 14 13 11 13 13 12 12 12 13 13 13 13 13 11 9 9 9 9 8 8 8 7
14 14 14 14 15 15 15 15 12 14 15 15 15 15 15 16 15 13 14 13 14 14 11 11 12 12 12 12 13 13 13 13 13 12 12 9 9 9 8 8 7 7 7
15 14 13 13 15 16 15 15 13 12 13 14 14 15 15 15 14 14 14 13 14 14 14 13 13 12 12 12 13 13 13 13 12 12 12 10 9 7 8 9 8 7 7
15 15 14 12 13 13 14 14 13 13 12 13 13 16 15 14 14 13 13 12 12 13 13 13 12 12 12 12 12 13 12 12 13 12 12 10 8 9 9 10 10 10 9
16 15 13 13 13 14 12 12 12 11 12 13 14 15 14 14 13 13 14 11 14 13 13 12 12 12 11 12 12 12 12 12 12 12 11 10 8 8 9 11 11 10 9
15 15 14 12 12 12 13 13 14 12 12 13 14 14 13 14 13 13 13 13 13 12 12 12 12 12 12 12 12 12 12 12 12 12 12 10 9 9 11 11 11 11 11
12 13 14 12 12 11 11 12 12 12 12 12 12 13 13 13 13 13 13 12 12 12 12 12 12 12 12 12 12 12 12 12 12 12 12 11 10 10 11 11 11 11 11
11 12 12 11 11 11 12 13 14 12 12 11 10 11 12 13 12 13 12 12 12 12 12 12 12 12 11 11 11 11 12 12 12 12 12 11 10 11 11 11 11 11 10
12 11 11 11 11 11 12 13 13 11 11 10 10 11 12 13 13 13 12 12 12 12 12 12 12 12 12 12 11 11 11 11 12 12 11 11 11 11 11 11 10 10 10
11 12 11 11 11 11 11 11 11 11 11 9 10 12 13 12 12 13 12 11 12 13 12 12 12 12 12 12 11 11 11 11 11 11 11 11 11 10 10 10 10 10 9
10 11 11 11 11 11 11 10 11 9 9 10 10 11 12 13 13 13 12 12 13 12 12 12 12 12 12 12 11 12 11 11 11 11 11 10 10 10 10 10 10 9 8
10 10 10 10 10 10 10 10 10 10 9 10 10 11 12 13 12 12 12 12 12 12 13 12 12 12 12 11 12 12 11 11 11 11 11 10 10 10 10 9 9 9 8
10 10 10 10 9 9 9 9 9 10 11 10 11 11 12 12 12 12 12 12 12 12 12 12 12 12 12 12 12 11 11 11 11 11 11 10 10 9 9 9 9 9 8
10 11 10 10 9 9 10 10 10 10 10 10 10 12 12 12 12 12 12 12 12 11 11 12 11 12 12 12 11 11 11 11 11 10 10 10 10 9 9 9 8 8 7
10 10 10 9 9 8 9 9 9 9 9 10 10 11 12 13 13 13 13 12 11 11 11 11 11 12 11 11 11 11 11 11 10 10 10 10 10 9 9 9 8 8 7
10 10 10 9 9 8 8 8 8 8 9 9 10 11 12 12 12 13 12 12 11 11 11 11 11 12 11 11 11 11 10 10 10 10 10 10 9 9 9 9 8 8 7
9 9 9 9 9 8 8 8 8 9 9 9 10 10 11 11 12 12 12 11 11 11 10 11 11 12 11 10 10 10 10 10 10 10 10 9 9 9 9 9 8 7 7
9 9 9 9 9 8 8 8 8 8 9 9 9 10 11 11 12 11 11 11 11 11 11 11 11 10 11 10 10 10 10 10 10 10 10 9 9 8 8 8 8 7 7
9 8 9 9 9 9 8 8 9 9 9 9 10 10 10 11 11 11 11 11 11 11 11 11 11 11 11 10 10 10 9 10 10 10 9 9 9 8 8 8 7 7 7
9 9 9 9 9 9 8 9 8 9 9 9 9 10 10 11 11 11 11 11 11 11 11 11 11 11 11 10 10 9 9 9 10 10 9 9 8 8 7 7 7 6 6
11 10 9 9 9 9 8 9 9 9 9 10 10 11 12 11 11 11 11 11 10 10 11 11 11 11 11 10 10 9 9 9 9 8 9 9 9 9 8 6 6 6 6
12 11 10 10 9 9 9 9 9 9 10 11 11 11 11 11 11 11 11 11 11 11 11 11 11 11 11 10 10 9 9 9 8 7 8 8 8 8 7 7 6 6 5
13 11 11 10 9 9 9 9 9 9 10 11 11 11 11 11 11 11 11 11 11 11 11 11 11 10 10 10 9 9 8 8 8 8 8 8 7 6 6 6 6 5 5

GFSSE_850_temp_084.txt.gz
Temp
15 16 17 17 17 17 17 17 17 17 17 17 17 17 17 17 16 17 16 15 15 14 13 13 13 12 12 12 12 12 12 12 12 12 11 12 12 12 12 12 12 12 12
15 15 16 17 17 17 17 17 17 17 17 17 17 16 16 16 15 17 15 15 15 14 13 12 12 11 11 11 11 11 12 11 11 11 11 11 11 12 12 13 12 12 12
16 15 16 16 16 17 17 17 17 17 16 16 16 16 16 16 15 15 15 14 14 14 12 12 12 11 12 12 11 11 11 11 12 11 11 11 10 11 11 12 12 12 12
16 15 16 16 16 17 16 16 16 16 16 16 16 16 16 16 14 15 14 14 14 12 12 12 11 11 13 12 11 11 11 11 11 11 10 10 10 10 10 11 11 12 12
16 16 15 17 17 17 16 16 15 15 15 15 15 15 16 15 15 15 15 13 13 12 12 11 12 12 13 13 12 11 11 11 11 12 12 10 9 8 10 10 10 10 9
16 17 15 16 16 16 15 15 14 13 14 13 14 13 15 15 15 14 15 13 14 13 12 12 13 13 13 13 12 12 11 12 11 11 10 9 9 9 10 11 11 11 10
16 16 16 15 14 14 14 14 14 14 13 14 13 13 13 14 15 14 14 13 13 13 14 14 13 13 13 13 13 12 11 11 11 11 10 9 8 9 10 10 12 12 11
16 16 15 15 14 14 13 13 13 14 13 14 15 12 13 14 14 13 12 12 12 12 13 13 13 13 13 13 12 12 11 10 11 11 10 9 8 9 9 10 11 11 11
15 15 13 13 14 14 14 13 13 14 14 14 14 11 12 13 13 13 12 13 13 12 13 13 13 13 13 12 12 11 11 10 11 10 10 8 8 7 8 10 10 10 10
14 12 12 13 13 14 13 14 12 12 13 13 12 12 12 12 13 12 12 12 13 12 13 13 13 13 13 12 12 11 12 10 10 10 10 8 10 9 9 10 11 10 10
12 12 12 12 12 13 12 13 12 13 12 12 11 12 11 11 12 12 11 13 13 12 13 13 12 12 12 12 11 11 10 10 10 10 9 9 10 10 10 10 11 10 11
11 11 11 12 12 12 12 12 12 12 12 12 11 11 10 10 12 11 12 13 13 12 12 12 12 12 11 10 11 10 10 10 10 10 8 9 8 9 10 10 10 10 10
12 11 11 12 11 12 12 12 12 12 12 11 11 11 10 10 11 11 11 12 12 12 11 11 11 10 9 9 8 9 9 9 10 9 9 10 10 9 9 10 10 10 10
12 12 11 11 11 11 11 11 11 12 12 11 11 11 10 11 11 10 10 11 12 11 11 11 10 9 9 9 9 8 9 9 10 9 8 10 9 9 10 10 10 9 9
11 12 11 11 11 11 11 11 11 11 11 11 10 10 10 10 11 12 11 11 11 10 10 9 9 9 11 8 9 8 9 9 9 9 7 10 9 9 9 9 9 9 8
10 11 11 11 11 10 11 11 11 10 10 10 10 9 9 8 10 12 12 12 12 12 9 9 10 10 9 9 9 10 9 8 8 9 8 9 9 9 9 9 9 8 8
11 10 10 10 11 10 10 10 10 10 10 10 9 8 8 9 12 12 12 12 12 12 12 11 11 10 9 9 9 9 8 8 8 8 8 7 8 8 8 9 8 8 8
10 10 9 10 10 9 9 10 9 9 9 8 8 9 9 11 12 12 11 12 12 12 12 12 11 9 9 10 9 9 9 8 8 8 8 8 7 7 8 8 8 8 8
10 10 10 9 9 9 9 9 9 9 9 8 8 8 10 12 12 12 11 11 11 11 11 11 10 10 10 9 9 9 9 9 9 8 8 8 7 7 7 7 8 7 7
10 10 9 10 9 9 9 9 9 8 8 8 9 10 12 11 11 11 11 12 12 13 11 11 11 11 10 10 10 9 9 9 8 8 9 8 7 7 7 7 7 6 7
9 9 10 9 9 9 9 9 9 8 8 8 9 10 10 10 11 12 12 12 13 12 10 11 11 11 11 10 9 9 9 10 10 9 8 8 8 7 7 7 7 7 7
9 9 9 9 9 9 9 9 9 8 8 9 9 9 9 10 11 12 12 12 11 11 11 11 11 11 10 10 9 9 10 9 9 10 9 8 8 8 9 9 8 8 7
9 9 9 9 9 9 8 9 9 8 8 8 8 8 9 9 10 11 11 11 11 11 12 11 11 11 9 9 10 10 11 12 11 10 9 9 9 10 9 9 9 8 8
9 9 9 9 9 9 8 8 9 9 8 8 8 9 8 9 10 10 11 11 12 12 11 11 11 10 10 9 9 9 10 10 11 11 9 10 10 10 9 9 8 8 8
9 9 9 9 9 9 9 9 9 8 9 8 8 9 9 9 10 10 10 10 11 11 11 11 11 11 10 9 10 10 9 9 9 10 10 9 9 9 9 9 8 7 8
9 9 9 9 9 9 9 9 8 9 9 8 9 10 10 10 10 10 10 11 11 11 11 11 11 10 10 9 9 9 9 9 10 9 9 10 9 8 8 7 9 8 8

GFSSE_850_temp_087.txt.gz
Temp
18 18 18 18 18 18 18 18 18 18 17 17 17 17 17 17 17 16 16 16 15 15 15 14 14 14 14 14 14 14 14 13 13 13 13 13 12 12 12 13 12 12 12
19 18 17 18 18 18 17 17 17 17 17 17 17 17 17 16 16 15 15 15 15 14 14 14 13 13 13 13 13 13 13 13 13 13 13 12 11 12 12 12 13 13 13
20 16 16 17 17 17 17 16 17 16 16 16 16 16 16 16 16 15 14 14 14 14 14 14 14 12 12 12 12 12 12 12 12 12 12 10 11 12 13 13 13 13 13
20 18 16 16 17 16 16 16 16 16 16 16 16 16 16 16 16 15 14 14 13 14 14 14 14 12 12 12 12 12 12 12 12 11 11 10 10 11 12 13 13 13 13
19 18 16 16 17 16 16 15 15 15 15 15 16 15 15 15 15 14 14 14 13 14 14 14 14 13 12 12 12 12 12 12 13 12 11 10 10 9 11 12 12 12 12
16 17 17 17 16 16 16 15 15 14 14 13 15 15 15 14 14 14 14 13 13 13 14 15 14 13 12 12 11 11 12 13 13 12 11 10 9 8 10 12 12 12 12
18 18 17 17 16 16 15 14 15 16 13 14 12 12 14 13 13 13 13 13 13 12 13 14 14 13 13 12 12 11 12 13 13 12 11 9 8 9 10 12 13 13 13
19 18 17 17 16 15 14 14 14 14 13 14 12 12 13 13 12 12 14 14 13 12 14 14 14 13 12 12 12 11 12 12 13 12 11 9 8 8 10 12 12 12 12
18 18 18 16 14 14 13 13 13 14 14 13 12 12 12 12 12 12 13 14 13 13 14 14 14 14 13 13 12 11 12 12 13 11 10 8 8 8 10 11 12 12 11
18 18 17 15 13 13 13 12 13 13 12 12 12 12 13 12 12 12 13 14 12 13 14 14 13 13 13 13 12 11 11 12 12 11 10 8 8 7 8 11 11 10 11
16 16 16 15 13 13 13 12 12 12 12 12 12 11 12 12 12 12 12 13 12 13 13 13 13 13 13 12 12 11 12 12 12 11 9 8 7 7 7 10 10 10 10
12 13 15 14 13 13 12 12 12 12 12 12 12 11 12 12 12 12 12 13 12 12 13 13 13 13 12 12 10 11 12 12 12 10 8 7 8 7 8 10 10 10 10
13 12 13 13 13 12 12 12 12 12 12 12 11 11 11 11 11 12 11 11 12 12 12 12 12 11 9 9 10 11 11 12 12 10 8 7 7 7 9 10 10 10 10
13 13 13 12 12 12 12 12 11 12 12 12 12 11 10 11 11 11 12 11 11 12 12 12 11 10 10 10 10 10 11 12 11 9 8 8 7 8 9 9 10 10 10
13 12 12 12 11 11 11 11 11 12 12 11 12 11 11 10 10 11 11 10 10 10 12 11 11 10 10 10 10 10 10 11 11 9 8 9 8 8 9 9 9 9 9
14 11 11 12 11 11 11 11 11 11 11 11 11 11 11 11 10 10 11 10 10 10 10 10 10 10 10 10 10 10 10 10 10 9 8 9 8 9 9 9 9 9 9
14 11 12 11 11 10 10 10 11 11 11 11 11 11 10 11 10 10 11 10 10 10 10 10 10 10 10 10 10 10 10 10 10 10 8 7 9 9 9 9 9 8 8
13 11 10 11 10 10 10 10 10 11 10 11 11 10 10 9 10 10 10 10 10 10 9 10 10 10 10 11 10 10 10 10 10 10 10 8 7 7 9 9 8 9 8
13 11 10 10 10 10 9 10 10 10 9 10 10 10 9 9 9 8 9 10 9 11 11 10 10 10 10 11 10 10 10 10 9 9 10 9 9 8 8 9 9 8 8
13 11 10 10 10 9 9 9 9 9 8 8 8 8 8 7 8 7 9 11 11 12 10 11 11 10 10 11 11 11 10 10 10 10 9 9 9 8 9 8 8 8 8
12 11 10 9 9 9 9 9 8 8 8 8 9 9 7 8 8 9 11 10 10 9 10 11 10 10 10 10 11 11 10 10 10 10 9 9 9 8 8 8 8 7 8
11 10 10 10 9 9 9 8 9 9 8 8 8 7 7 8 8 10 9 10 10 9 10 10 11 10 10 10 11 11 11 10 9 9 9 9 9 9 8 8 8 8 7
11 10 9 9 9 9 9 9 8 7 7 7 7 8 7 8 9 10 9 9 10 12 11 11 10 10 10 10 11 11 12 12 11 10 10 9 9 9 9 8 8 9 8
11 10 9 9 9 9 9 9 8 8 8 8 7 8 9 9 10 10 10 11 11 11 11 11 10 10 10 10 10 11 10 10 11 11 11 10 9 9 9 9 8 9 9
13 10 9 10 9 9 9 9 9 8 9 9 8 9 9 10 10 10 10 9 11 11 11 10 10 11 10 11 11 10 10 10 10 10 11 10 9 9 9 10 9 8 8
13 11 9 10 9 9 9 9 9 9 8 8 8 8 9 10 9 9 10 10 10 10 10 10 11 10 10 10 10 10 11 11 11 10 10 11 10 9 9 9 9 10 8

GFSSE_850_temp_090.txt.gz
Temp
20 20 19 19 19 19 18 18 18 18 18 18 18 17 17 18 17 17 17 16 16 16 16 15 14 14 15 15 15 14 14 15 14 13 13 13 13 13 13 13 13 13 12
19 20 18 19 19 18 18 18 17 17 17 17 17 17 17 17 17 16 16 16 16 15 15 15 15 15 14 14 14 14 14 14 13 13 13 12 12 12 12 12 13 12 13
19 20 20 18 18 18 17 17 17 16 16 17 17 16 16 16 16 16 16 15 14 14 13 14 14 14 14 14 14 14 13 13 12 13 13 11 11 12 12 13 13 13 13
21 20 19 18 17 17 17 17 17 17 16 16 17 16 16 16 16 16 15 14 14 13 13 14 14 13 14 14 13 13 13 13 12 12 12 11 11 11 12 12 12 13 13
21 20 19 18 17 17 16 17 16 16 16 15 16 16 15 15 15 15 15 14 14 13 14 14 15 14 14 13 13 13 13 13 12 11 11 10 11 10 11 11 11 12 12
18 18 19 19 18 16 16 16 16 16 15 14 11 10 14 15 15 14 15 14 13 13 12 13 15 14 14 13 12 13 12 12 12 11 10 10 10 10 10 11 12 12 12
18 19 19 19 18 17 16 16 16 15 15 17 16 13 11 12 14 14 14 14 13 13 12 14 14 14 13 12 12 12 12 12 11 11 10 9 10 9 10 11 11 11 12
19 19 19 19 19 17 16 15 15 14 14 14 14 13 11 12 13 12 13 13 13 13 12 13 13 14 14 12 12 12 12 12 12 11 10 9 9 9 8 9 11 11 12
19 18 18 17 18 17 16 15 13 14 14 14 14 13 13 12 12 13 12 13 14 14 14 14 13 13 13 12 12 12 13 13 12 10 9 9 9 8 8 10 10 11 12
19 17 16 16 14 13 15 13 13 13 14 14 13 13 13 12 11 12 12 12 13 13 14 14 13 13 13 12 12 13 12 12 11 10 8 8 7 7 8 7 10 11 11
17 16 15 14 13 13 13 13 13 13 13 13 12 12 12 11 11 11 12 12 11 14 14 14 13 13 13 12 12 12 12 12 11 10 9 8 8 7 8 10 11 11 11
16 14 12 13 13 13 13 12 12 13 13 13 13 12 12 11 11 11 12 11 13 14 13 13 13 12 12 12 12 12 12 12 11 11 10 8 7 9 10 11 11 11 11
17 14 13 15 14 13 12 12 12 12 12 12 12 12 11 12 11 10 11 11 13 13 13 13 12 12 12 11 12 12 12 12 12 11 10 8 8 9 10 11 10 11 11
17 15 12 14 13 13 12 12 12 12 12 12 11 12 11 12 11 11 12 12 12 12 12 12 11 11 11 11 11 11 12 11 11 11 10 9 9 11 10 11 11 10 10
17 15 15 13 13 13 12 12 11 12 12 11 11 11 11 11 11 11 11 11 12 12 12 11 10 10 11 11 10 11 12 11 11 11 11 10 10 10 10 10 10 10 10
17 15 14 12 13 13 12 12 12 11 12 12 11 11 11 11 11 10 11 11 12 12 11 11 10 10 10 10 10 11 11 11 11 11 11 10 10 10 10 9 10 10 10
16 15 13 11 11 11 12 12 12 11 11 11 11 11 11 11 11 10 11 11 11 11 11 10 10 10 10 10 10 10 10 10 10 10 10 10 10 10 10 10 10 10 9
15 14 13 11 11 11 10 10 11 11 11 11 11 10 11 11 10 10 10 11 11 11 10 10 10 10 10 10 10 10 10 10 10 9 10 10 11 10 10 10 10 9 9
15 14 12 10 10 10 10 10 10 11 10 10 11 10 11 11 10 9 10 11 10 10 10 10 10 10 10 10 10 10 10 10 10 10 9 9 10 10 10 10 10 9 9
15 13 11 10 10 10 10 10 10 10 10 10 10 11 10 10 9 9 9 10 9 10 10 10 10 10 10 10 10 10 10 10 10 10 10 9 9 9 9 9 9 9 9
14 12 10 10 10 10 9 9 9 9 9 9 9 9 9 9 8 9 9 9 10 10 11 10 10 10 11 11 11 11 10 10 10 10 10 9 9 9 8 8 9 9 9
13 12 10 9 10 9 9 9 9 9 8 8 8 7 8 8 8 8 8 8 9 9 9 10 11 11 10 11 11 11 10 10 10 10 10 9 9 9 9 9 9 9 9
13 12 10 9 9 9 9 8 8 8 8 9 9 10 9 9 9 8 8 8 8 9 9 10 10 10 10 11 11 11 11 11 11 10 10 10 10 9 9 9 9 8 7
13 11 10 9 9 9 9 9 9 10 9 9 8 8 7 7 7 8 7 8 9 10 10 9 10 10 10 11 11 11 10 11 10 11 11 11 10 10 10 9 9 9 9
12 11 10 10 9 9 9 9 9 9 8 8 7 7 7 7 7 7 8 9 9 10 9 9 10 10 10 10 10 11 11 11 11 10 10 10 10 10 10 10 10 9 9
13 11 10 9 9 9 9 9 9 9 9 7 8 7 7 8 8 9 9 9 9 10 9 10 10 11 10 10 10 10 11 11 11 11 11 11 11 10 10 10 10 10 9

GFSSE_850_temp_096.txt.gz
Temp
20 20 20 19 19 19 19 20 20 19 19 19 19 19 18 17 16 17 17 16 17 16 16 16 16 15 15 15 15 15 15 15 15 14 13 13 13 13 13 13 13 13 13
21 20 20 19 19 19 19 19 19 19 19 19 18 18 18 17 16 16 16 16 15 16 16 16 15 15 14 14 15 15 15 14 14 14 13 13 13 13 13 13 13 12 12
21 21 21 20 19 19 19 18 19 19 19 18 18 17 17 17 16 16 16 16 16 15 15 15 14 14 14 14 14 14 14 14 14 14 13 12 12 12 12 11 11 12 12
21 21 21 20 19 18 18 18 18 18 18 18 17 17 16 16 16 16 16 16 16 15 15 14 14 14 13 14 14 14 14 14 13 14 13 12 11 11 11 11 11 11 11
22 22 21 21 20 19 18 18 18 17 17 17 17 16 16 15 15 15 15 16 16 15 15 13 12 13 13 13 13 13 13 13 13 13 12 11 11 11 11 10 11 12 11
22 21 21 21 20 19 19 18 17 17 17 16 16 16 16 15 14 13 14 14 14 14 13 12 12 13 13 13 13 13 12 12 12 12 11 11 11 10 10 10 12 12 12
22 21 22 21 20 18 17 16 16 16 16 16 15 14 14 15 15 15 13 12 13 13 13 12 13 13 12 12 12 13 12 12 12 12 11 10 10 10 10 11 12 12 12
21 21 20 20 19 18 17 16 16 15 15 16 15 13 14 14 14 16 15 12 13 13 12 13 12 12 12 11 12 12 11 11 12 11 10 9 9 9 9 11 11 11 12
21 21 20 19 19 18 17 16 14 15 14 14 14 13 14 13 14 15 14 13 13 13 12 13 12 12 11 11 11 11 11 12 12 11 11 9 9 8 9 10 11 11 12
20 20 19 19 18 18 17 15 14 14 14 13 13 13 14 14 13 14 13 13 12 13 12 13 12 12 11 11 10 10 11 11 11 11 10 9 8 8 9 10 10 11 10
19 20 19 18 18 18 16 14 13 13 13 13 12 12 13 13 13 13 11 12 12 12 12 13 12 11 11 11 11 11 11 11 11 11 11 8 8 8 8 10 10 11 11
20 20 18 18 17 17 16 14 13 13 12 12 12 12 13 13 12 11 11 11 11 12 12 13 11 11 11 11 11 11 11 11 11 11 11 8 7 7 9 9 11 12 12
20 19 18 17 17 17 15 13 13 13 12 12 12 12 12 12 12 11 11 11 11 11 12 12 11 11 11 11 11 12 11 11 11 11 10 8 8 8 10 12 12 12 12
19 18 18 16 16 16 15 13 12 12 12 12 12 12 12 12 11 12 11 11 11 11 12 11 11 11 11 11 11 11 11 11 11 11 12 11 10 8 11 12 12 12 12
19 18 18 16 16 16 15 13 12 12 12 13 12 12 11 11 11 11 11 10 12 11 12 12 11 11 11 11 11 11 11 11 11 11 12 12 10 10 12 12 11 11 11
19 18 18 16 15 15 15 13 12 12 12 12 12 12 11 11 11 11 11 11 12 12 12 12 11 12 11 11 11 11 11 11 11 11 12 12 12 12 12 11 11 11 11
19 18 18 16 16 15 15 12 11 11 11 12 11 11 11 11 11 11 11 11 11 12 12 12 11 11 11 11 11 11 11 11 11 11 12 12 11 11 12 11 11 11 11
19 18 17 16 15 15 14 12 11 11 11 11 12 11 11 11 10 11 11 11 11 12 12 12 12 11 11 10 10 11 10 10 11 11 12 12 11 12 11 11 11 11 11
19 18 17 16 15 14 14 11 11 11 11 11 11 11 11 11 10 10 10 10 11 12 12 12 11 11 11 10 10 10 10 10 11 10 11 11 11 11 11 11 11 11 11
19 17 17 16 15 14 11 10 10 10 10 11 11 11 11 11 11 10 10 11 12 12 11 11 10 11 11 10 10 10 10 10 10 10 10 11 11 11 11 11 11 11 11
18 17 16 16 15 14 11 10 9 10 10 10 11 11 11 11 11 10 11 10 11 12 11 11 10 10 11 10 10 9 9 10 10 10 10 10 10 11 11 10 11 10 10
19 17 16 15 15 14 12 9 9 9 10 10 10 10 10 11 11 11 10 10 10 10 11 11 11 10 10 10 11 10 9 9 9 10 10 10 10 10 10 10 10 10 10
18 17 16 15 15 13 11 9 9 10 9 9 9 9 10 10 11 10 10 11 9 10 11 10 10 10 10 10 11 10 9 9 9 9 9 10 10 10 10 10 10 10 10
17 16 16 15 14 13 11 9 9 9 9 9 9 9 10 10 10 10 10 10 9 10 10 10 10 10 10 10 10 10 10 10 10 10 9 10 10 10 10 10 10 10 10
17 16 15 14 13 13 10 9 8 9 9 9 9 8 9 10 10 10 10 9 9 10 10 10 10 10 11 11 12 10 10 11 11 11 11 10 10 10 10 10 10 10 10
16 15 14 13 13 11 10 9 8 8 8 8 8 8 8 8 8 8 9 8 9 9 9 10 10 10 10 11 10 10 11 11 11 11 11 11 11 11 11 10 10 11 11

GFSSE_850_temp_099.txt.gz
Temp
20 20 20 19 19 19 19 19 19 20 19 19 18 18 18 17 17 17 17 17 17 17 17 16 16 16 15 15 15 14 15 15 15 15 15 14 14 13 13 13 14 14 13
21 21 21 19 18 19 19 19 19 19 19 19 18 18 18 17 17 17 16 16 17 16 16 16 16 15 15 15 14 14 14 13 13 13 13 13 13 13 13 13 13 13 13
21 21 21 20 19 18 18 19 19 18 18 18 18 18 17 17 16 16 16 15 16 16 16 15 15 15 15 14 14 14 14 13 13 13 13 12 12 13 13 13 13 13 13
22 21 21 21 20 18 18 18 18 18 18 18 17 17 16 16 16 16 15 15 15 15 14 14 14 14 14 14 14 14 14 13 13 12 12 12 12 12 12 12 12 12 12
21 21 21 21 21 20 18 18 18 18 18 18 17 17 17 16 15 16 15 15 14 14 13 14 14 13 13 14 14 14 14 13 13 13 13 12 11 11 11 11 11 12 12
20 21 21 21 21 20 19 17 17 17 17 17 17 17 17 16 15 14 15 14 14 14 13 14 13 13 13 13 13 13 13 13 13 12 12 12 11 11 11 11 12 12 12
21 21 21 20 20 20 19 17 17 17 17 17 17 17 16 16 15 15 15 14 13 14 13 14 13 13 13 12 13 13 13 13 13 12 12 11 11 11 11 12 12 12 12
22 21 21 20 19 19 18 17 16 15 15 16 16 16 16 15 14 14 15 15 13 13 15 13 13 13 12 12 12 12 12 12 12 12 11 11 10 11 10 12 12 12 12
21 21 21 20 19 18 18 17 15 15 15 15 14 14 14 15 14 14 13 14 14 14 13 13 13 12 12 12 12 12 12 12 12 11 10 11 10 9 12 12 11 11 11
21 20 20 19 19 19 18 16 14 14 14 14 13 13 13 13 13 13 12 12 13 13 12 12 12 12 11 11 12 12 11 11 11 11 10 11 9 9 10 9 10 10 11
20 20 20 19 18 18 18 17 14 14 14 13 13 13 12 13 13 13 12 12 12 14 12 12 12 11 10 11 11 11 11 11 10 11 11 9 8 8 8 8 9 10 9
20 21 20 19 18 18 17 17 14 13 13 13 13 13 13 12 13 13 12 12 13 12 12 13 11 10 10 10 10 11 11 11 10 11 11 8 8 9 9 9 10 9 10
21 20 20 19 18 18 17 17 15 12 12 12 13 12 12 12 12 12 12 11 11 11 12 12 11 10 10 10 10 11 11 11 10 11 10 8 8 7 8 9 8 12 12
20 20 20 18 18 17 17 16 15 12 11 12 12 12 12 12 12 11 11 10 10 11 11 11 10 11 11 11 11 11 11 11 11 11 10 8 8 8 9 9 11 11 12
20 20 19 18 17 17 16 16 14 13 12 12 12 12 11 11 11 11 11 10 10 11 11 11 10 11 11 11 11 11 11 11 11 11 10 8 8 8 9 9 12 12 12
20 20 18 17 16 16 16 16 14 13 12 12 12 12 12 11 11 11 11 10 10 11 11 11 10 10 11 10 10 11 11 11 11 10 10 8 9 10 12 11 10 12 12
20 20 18 17 16 16 15 15 14 13 12 12 12 12 12 11 11 11 11 10 10 11 11 11 10 10 10 10 11 11 11 11 11 10 10 10 10 12 12 12 11 12 12
20 20 19 17 16 15 15 15 14 12 12 12 12 12 12 11 11 11 10 10 10 10 11 10 10 10 10 10 11 11 10 10 10 10 10 10 11 12 12 12 11 11 11
21 20 19 17 16 15 14 14 13 11 11 12 12 11 11 11 11 10 10 10 10 10 11 11 10 10 10 10 11 11 10 10 10 10 11 11 11 11 11 11 11 11 11
21 20 19 17 16 15 14 14 13 10 10 11 11 11 11 11 11 10 10 9 10 9 10 11 10 10 10 10 10 10 10 10 10 10 11 10 11 11 11 11 11 11 11
21 19 18 17 15 14 13 13 13 10 10 10 10 11 11 11 10 10 10 10 9 9 11 11 10 10 10 10 10 9 9 9 10 10 10 11 11 11 12 11 11 11 11
22 19 17 16 15 15 13 13 13 11 9 10 10 11 11 10 11 10 10 10 10 10 11 12 10 10 10 10 10 10 8 8 9 9 9 10 11 11 11 11 11 11 10
20 19 17 16 15 14 13 12 12 9 9 10 10 10 10 10 10 10 10 10 10 10 10 11 10 10 10 10 10 10 8 8 9 9 9 10 10 10 10 10 10 10 10
20 18 17 16 15 14 13 12 12 11 10 10 9 10 10 10 10 11 10 10 10 10 11 11 10 10 10 10 9 10 12 10 9 9 9 10 10 10 10 10 10 10 10
19 18 17 15 14 14 13 12 11 10 9 9 9 9 10 10 10 10 10 10 9 8 9 11 10 10 10 10 10 10 10 10 11 11 10 10 10 10 10 10 10 10 10
14 16 16 15 14 13 13 11 10 10 9 9 8 8 9 9 9 9 10 10 9 7 8 10 10 10 10 10 10 11 11 11 12 11 11 11 11 11 11 11 11 11 11

GFSSE_850_temp_102.txt.gz
Temp
21 21 20 20 20 19 18 18 18 18 18 18 18 18 18 18 18 18 18 17 17 17 17 17 16 16 15 15 15 14 14 14 14 15 14 14 13 14 14 14 14 14 14
21 21 20 20 19 19 18 18 18 18 18 18 18 18 18 18 18 18 18 17 17 16 16 16 16 15 15 15 14 14 14 14 14 14 14 13 13 14 14 14 14 14 14
22 22 21 20 19 19 19 19 18 18 18 17 17 17 17 17 17 17 17 17 17 16 16 16 15 15 15 15 14 14 14 13 13 13 13 12 12 13 13 13 14 13 13
22 22 21 20 19 19 19 18 18 18 18 18 17 17 17 17 16 16 16 15 16 16 16 15 15 15 15 14 14 14 14 14 13 13 13 12 13 12 13 13 13 13 13
21 21 21 20 19 19 18 18 18 18 18 18 18 18 17 16 16 16 16 15 15 15 15 14 14 14 14 14 14 14 14 14 13 13 12 13 12 12 12 12 12 12 12
21 21 21 21 20 18 18 18 17 17 18 18 17 17 16 16 15 15 15 16 14 14 14 14 14 14 14 14 13 14 13 13 13 13 12 12 12 12 12 13 13 12 12
21 21 21 21 20 19 17 17 17 17 17 17 17 17 16 15 15 15 15 14 15 14 14 14 14 13 13 13 13 13 13 13 13 12 12 12 12 12 12 12 12 12 12
21 21 21 20 20 19 18 16 16 17 16 16 16 16 16 15 15 15 15 14 15 14 16 15 13 13 13 13 13 12 12 12 12 12 12 12 12 12 12 13 13 11 13
20 21 21 20 20 19 18 17 16 16 16 16 15 15 15 15 14 14 14 14 14 13 15 15 13 13 13 12 12 12 12 12 12 12 12 11 11 11 13 13 11 11 12
19 20 20 20 20 19 18 17 16 16 15 15 15 14 14 14 14 14 13 13 13 13 14 13 12 12 13 12 12 12 11 11 11 11 11 11 10 10 13 10 9 12 10
20 20 20 19 19 18 18 16 14 14 14 13 13 14 14 13 13 13 13 12 13 12 12 12 12 14 11 12 11 11 11 11 11 10 10 11 9 9 10 10 10 10 10
21 21 21 20 19 18 18 17 14 14 14 13 13 13 13 13 14 13 12 12 12 12 12 12 13 11 11 11 11 11 11 11 11 10 10 9 8 9 8 8 10 9 10
21 20 21 20 18 18 17 17 15 13 13 13 13 13 13 12 13 13 13 12 11 11 11 11 12 12 11 11 11 11 11 11 11 10 9 9 8 8 8 8 10 8 9
20 20 20 20 18 18 16 16 16 14 13 12 13 13 13 13 13 12 12 13 11 11 11 10 11 11 11 11 11 11 10 11 10 10 9 8 8 8 9 10 9 9 10
20 20 20 19 18 18 17 15 15 15 14 13 12 12 12 12 12 12 12 12 11 11 10 10 10 10 11 11 10 10 10 10 10 10 9 8 8 8 9 9 9 8 10
20 20 19 19 18 17 17 15 15 14 14 13 12 12 12 12 12 11 11 11 10 11 10 10 10 10 10 10 10 10 11 11 10 9 8 8 8 8 8 8 8 10 11
21 20 20 19 18 17 17 15 14 14 13 13 12 12 12 11 11 11 11 11 11 10 9 10 10 10 10 10 11 10 10 10 9 9 8 8 8 7 8 8 9 10 11
21 21 20 19 18 17 16 15 14 13 12 13 12 12 12 12 11 11 11 10 11 10 9 10 10 10 10 10 10 10 10 10 10 9 9 9 9 8 8 8 9 10 11
20 21 20 20 19 17 16 15 14 13 12 12 12 12 12 11 11 11 10 10 10 10 9 10 10 10 10 10 10 10 10 10 9 9 10 9 9 9 9 8 10 10 10
21 21 19 19 18 17 16 14 13 13 12 11 11 12 11 11 11 11 10 10 10 10 9 9 10 9 10 10 10 9 10 9 9 9 10 10 10 10 10 10 10 10 10
20 20 19 19 18 16 16 15 14 13 11 10 11 12 11 11 11 11 10 10 10 9 9 8 9 10 9 10 10 9 8 9 9 9 9 9 9 10 10 10 10 11 11
20 19 19 19 17 17 16 15 14 14 11 10 10 11 11 11 11 10 10 10 10 8 8 9 10 9 9 10 10 9 7 7 8 8 8 9 9 10 9 10 10 11 11
20 19 20 18 17 17 16 15 14 13 11 10 9 10 10 10 10 10 10 10 9 10 9 8 9 9 9 10 10 10 8 8 8 8 9 9 9 10 10 10 10 11 11
21 18 19 16 16 16 16 15 14 13 13 11 9 9 10 10 10 10 10 10 9 9 8 8 9 9 9 10 9 10 11 10 9 9 9 9 9 9 10 10 10 10 10
18 18 18 15 15 16 16 14 13 12 12 11 10 9 9 10 10 10 10 10 10 9 9 9 9 9 10 10 9 9 10 11 10 10 10 10 9 10 10 10 10 10 10
17 17 15 14 15 14 14 14 13 12 12 8 8 9 9 9 10 9 10 10 9 8 8 9 9 9 10 10 10 10 10 10 11 11 11 11 11 11 11 11 11 11 11

GFSSE_850_temp_105.txt.gz
Temp
22 23 23 22 21 20 19 17 18 18 18 18 18 18 18 18 18 19 18 18 17 17 17 17 16 16 15 15 15 15 15 15 15 15 14 14 14 15 14 14 14 14 14
23 23 22 22 21 20 19 18 18 18 18 18 18 18 18 18 18 18 18 17 17 17 17 17 16 16 15 15 15 15 14 15 15 14 14 14 13 14 14 14 14 14 14
23 23 22 21 20 19 19 18 18 18 18 18 18 18 18 18 18 18 17 17 17 17 16 15 16 16 15 15 15 15 15 14 14 14 14 13 13 14 14 14 14 14 14
23 23 22 21 20 19 18 18 18 18 18 18 18 18 17 17 17 17 17 16 16 16 16 15 15 15 15 15 14 14 14 14 13 13 12 12 12 13 14 13 13 13 13
22 22 22 21 20 19 18 18 18 18 18 18 18 17 17 17 17 17 16 15 15 15 16 15 15 15 14 14 14 14 14 14 13 13 12 11 12 13 13 13 13 13 13
22 22 21 21 20 19 18 18 18 18 18 18 18 17 17 17 16 15 16 15 15 15 15 15 15 15 14 14 14 14 14 13 13 12 12 12 11 12 13 12 12 12 12
22 21 21 21 20 19 18 18 18 17 17 17 17 17 16 16 16 16 15 15 15 15 14 15 15 15 14 14 14 14 13 13 12 12 12 11 12 12 13 12 12 12 12
21 21 21 20 19 19 18 18 17 17 17 16 16 16 16 16 15 15 14 15 16 15 14 15 15 15 14 14 14 13 13 13 13 12 11 11 12 12 12 12 12 11 11
21 20 20 20 19 19 18 17 17 17 16 16 16 15 15 15 15 14 14 14 14 14 14 14 14 14 14 13 13 13 13 12 13 12 12 11 11 12 11 11 12 13 12
20 20 20 20 19 19 18 17 17 17 16 16 15 15 15 15 14 14 14 14 13 13 13 13 13 13 14 13 12 13 12 12 12 12 11 10 11 12 12 9 11 13 12
20 20 19 19 19 19 18 17 17 16 16 16 15 14 14 14 14 14 13 13 14 13 13 12 13 13 13 12 12 12 12 12 11 11 11 11 10 10 9 11 9 12 12
21 20 19 19 19 18 18 17 16 15 13 14 13 13 14 14 13 13 13 13 13 13 13 12 12 12 12 12 11 11 11 11 11 10 10 10 10 9 8 11 8 11 10
21 20 20 19 18 18 18 17 17 14 13 13 13 13 14 14 13 13 13 13 13 12 11 11 12 12 12 11 11 11 11 11 11 10 10 10 9 9 8 8 9 9 10
21 21 20 20 18 18 17 17 17 17 14 14 13 13 13 13 13 13 13 12 12 12 11 10 11 11 11 11 12 11 11 11 11 9 9 9 9 9 9 8 8 9 9
21 21 20 20 19 18 17 17 17 17 15 14 13 12 12 13 13 12 13 13 12 12 11 11 11 11 11 11 11 11 11 11 10 9 8 9 9 9 8 8 8 8 9
20 20 19 19 19 18 17 17 17 17 15 13 13 13 12 12 12 13 12 12 12 12 11 10 10 11 10 10 11 11 11 10 10 9 8 9 9 8 8 8 8 8 9
21 20 20 19 18 18 17 17 16 16 15 14 13 13 12 12 12 12 12 12 11 11 10 10 10 10 9 10 11 11 11 10 10 9 8 8 9 8 8 8 8 8 7
20 20 21 19 18 18 17 17 16 16 15 14 13 13 11 11 12 12 12 11 11 10 10 10 10 9 9 10 10 10 10 10 9 9 8 8 8 7 8 8 7 7 7
20 21 20 19 18 18 17 16 16 15 14 14 13 12 12 11 11 11 11 11 10 10 10 9 9 9 9 10 11 10 10 10 9 9 8 8 8 7 7 7 7 8 9
20 21 21 19 18 17 16 16 15 14 14 13 13 12 12 12 11 11 11 11 10 10 10 10 10 9 9 10 10 10 10 9 9 7 9 7 7 7 7 8 8 9 10
20 21 21 20 18 16 16 16 15 15 14 13 12 12 11 11 11 11 11 10 10 10 10 8 9 10 9 9 10 9 9 9 8 9 8 7 7 7 8 9 9 10 10
19 21 20 19 18 17 16 16 15 15 14 14 12 12 11 11 11 11 11 10 10 10 10 8 8 8 9 9 10 9 7 7 7 8 7 7 8 7 8 9 8 9 9
19 19 19 18 18 16 15 15 15 15 13 13 11 11 11 11 10 11 10 10 10 10 9 9 8 9 9 9 9 9 7 8 7 7 7 7 8 8 8 9 9 9 9
17 17 17 17 17 16 15 15 15 16 15 15 13 10 10 10 10 11 10 10 10 8 8 8 8 9 9 9 8 9 10 10 8 7 7 9 9 9 9 8 9 9 10
17 17 16 17 15 15 15 15 15 15 15 14 12 11 10 10 10 10 10 10 9 9 9 10 9 8 9 8 9 9 10 11 10 10 9 7 8 9 9 9 10 10 10
16 16 14 15 13 13 15 15 16 15 14 13 12 11 9 9 10 9 9 10 10 9 10 9 8 8 8 8 9 10 10 10 10 11 10 10 10 10 10 10 10 10 10

GFSSE_850_temp_108.txt.gz
Temp
22 23 23 23 22 22 20 19 18 19 19 19 18 18 18 18 18 18 18 17 17 17 17 16 16 16 16 16 16 16 16 16 15 15 15 15 15 15 15 14 14 14 14
23 24 23 23 22 21 20 19 19 19 19 19 18 18 18 18 18 17 17 17 17 17 17 17 16 16 16 16 15 15 16 15 15 15 15 14 14 14 14 14 13 14 14
23 23 23 23 22 20 19 18 19 19 19 19 18 18 17 18 17 17 17 17 17 17 17 17 16 16 16 15 15 15 15 15 15 15 14 14 13 14 14 14 14 14 14
23 23 23 23 22 20 19 18 18 19 18 18 18 18 17 17 17 17 17 17 17 17 17 16 16 15 15 15 15 15 15 15 15 14 14 13 12 14 14 14 14 14 14
23 23 22 22 21 20 19 19 18 18 18 18 18 18 17 17 17 17 16 16 16 15 15 15 15 15 15 15 14 14 15 14 14 14 13 12 13 13 13 13 13 13 13
23 22 22 21 21 20 19 19 18 18 18 18 18 18 17 17 17 17 16 16 15 15 15 16 15 15 15 14 14 14 14 14 14 15 13 12 12 13 13 13 13 12 13
23 22 22 21 20 20 19 18 18 18 18 18 18 17 17 17 16 16 16 16 17 16 16 16 15 14 14 14 14 14 14 14 14 14 12 12 12 13 13 12 12 12 12
22 22 22 21 20 20 19 18 17 17 17 17 17 17 17 17 16 16 15 16 15 15 15 15 15 14 14 14 14 14 14 13 13 13 12 12 12 12 12 12 12 12 11
22 21 21 21 20 19 19 18 17 17 17 17 17 17 17 16 15 15 15 15 15 15 14 14 14 14 14 14 14 14 14 14 12 12 12 12 12 12 12 12 11 11 12
22 21 21 21 20 19 18 18 17 17 16 16 16 16 15 15 15 14 14 15 14 14 14 14 13 13 13 13 13 13 13 13 13 12 12 11 11 11 11 12 12 11 11
21 21 21 20 19 19 18 18 17 16 16 15 15 15 15 14 14 14 14 14 14 14 13 13 13 13 13 13 13 13 13 12 12 12 12 11 11 10 10 11 12 11 10
20 20 20 20 19 19 17 15 17 17 16 14 14 14 14 13 13 13 13 13 13 13 13 13 12 12 12 12 12 12 12 12 12 11 11 11 11 10 9 10 11 11 10
18 17 19 20 19 19 16 14 15 16 14 14 14 14 14 14 14 13 13 13 13 13 13 12 12 12 12 12 11 11 11 11 12 11 11 11 11 10 9 8 8 10 8
19 18 17 19 19 19 15 16 15 17 15 15 14 13 14 14 14 13 13 12 12 12 12 12 12 11 11 12 11 11 11 11 11 11 10 10 10 10 9 8 8 8 8
19 18 16 20 19 19 18 16 15 14 16 16 14 14 14 13 13 13 13 13 13 12 12 12 12 11 11 11 11 11 11 11 11 12 10 9 10 9 9 9 8 8 8
20 18 16 19 19 18 18 18 18 17 14 17 15 14 14 13 13 13 13 13 12 13 12 12 12 12 11 10 11 11 10 11 11 11 10 9 9 9 9 9 9 8 8
19 19 17 19 19 18 18 18 18 18 18 17 16 14 13 13 13 12 13 12 12 12 12 11 11 11 10 10 11 10 10 10 10 10 10 9 9 9 9 9 8 8 7
20 19 18 18 19 18 17 17 18 18 17 16 16 15 14 13 13 12 12 12 12 12 11 11 10 10 10 10 10 9 9 10 10 10 9 9 9 9 8 9 8 8 7
20 19 18 17 19 17 15 15 17 17 17 16 15 15 14 13 12 12 12 12 11 12 11 10 10 10 10 9 9 9 10 10 10 10 10 9 9 8 8 8 8 7 7
19 19 18 17 18 16 13 15 17 17 16 15 15 15 14 13 13 12 12 11 12 11 10 10 10 9 10 9 10 9 9 10 9 9 10 8 8 8 8 8 7 7 8
19 20 20 19 18 15 14 15 16 17 16 15 15 14 13 13 13 12 11 11 11 11 10 10 9 9 9 9 9 9 9 9 9 8 9 9 8 8 8 8 8 8 8
18 17 18 18 16 15 14 15 15 16 16 15 15 14 13 13 11 12 11 11 11 10 10 9 9 10 9 9 8 9 8 8 8 8 9 9 8 8 8 8 8 8 8
16 16 16 15 14 13 12 12 12 15 14 14 15 13 12 12 10 11 11 11 11 10 10 9 9 9 8 8 8 9 8 8 8 8 8 9 8 8 9 8 8 8 8
15 15 15 14 13 12 12 12 12 15 15 15 15 14 11 12 11 11 11 10 11 10 10 10 9 8 9 8 9 9 10 10 10 8 8 9 8 8 8 9 8 8 8
15 14 14 13 12 11 11 12 12 12 12 12 11 12 12 11 11 11 10 10 10 10 10 10 8 8 8 8 9 8 9 10 10 10 9 9 9 9 9 8 8 8 8
15 14 12 12 12 10 11 12 11 12 12 12 13 14 13 11 10 10 10 10 10 10 10 9 8 8 8 9 9 8 10 9 9 10 10 9 9 9 9 9 8 8 8

GFSSE_850_temp_111.txt.gz
Temp
23 23 24 23 23 22 21 20 19 19 19 19 18 18 18 18 18 18 18 18 17 17 17 16 16 16 16 16 16 16 17 16 16 16 15 15 15 15 15 15 14 14 14
22 24 24 23 23 22 20 19 19 19 19 19 18 18 18 18 18 18 18 18 17 17 17 17 16 16 16 16 16 16 16 16 16 15 15 15 15 15 14 14 13 14 14
22 24 23 23 23 22 20 19 19 19 19 19 18 18 18 18 17 17 17 17 17 16 16 16 16 16 15 15 16 16 16 16 15 15 15 14 13 14 14 14 14 14 14
22 24 23 23 22 21 20 19 19 19 19 19 18 18 18 18 17 17 17 17 16 15 17 16 16 15 15 15 15 15 16 16 15 15 14 14 13 14 14 14 14 14 14
21 23 23 22 22 21 20 19 19 19 19 18 18 18 18 18 18 17 17 17 17 16 17 17 15 15 15 15 15 15 15 15 15 14 14 13 13 14 14 14 14 13 13
21 20 23 22 22 21 20 19 18 18 18 18 18 18 17 18 17 17 17 17 17 17 16 16 15 15 15 15 15 15 15 15 15 14 15 13 14 13 13 13 13 13 13
20 21 23 22 21 21 20 19 18 18 18 18 18 18 17 17 17 16 16 16 16 16 16 16 15 15 15 15 14 14 15 16 15 14 14 13 13 13 13 13 13 13 13
21 22 23 22 21 20 20 19 18 18 18 17 17 17 17 17 17 16 16 16 16 15 15 16 15 14 14 15 14 14 14 15 15 15 15 12 13 13 13 12 12 12 12
22 23 22 22 21 20 20 19 18 18 17 17 17 17 16 16 16 16 16 15 15 15 15 15 15 14 14 14 14 14 14 14 15 13 14 13 12 13 12 12 12 12 12
21 22 22 21 21 20 20 19 18 18 17 17 16 16 16 15 15 15 15 15 15 14 14 15 15 13 14 14 13 13 14 13 13 13 13 12 12 12 12 12 12 12 11
18 18 20 21 21 20 20 20 18 17 17 16 16 16 16 15 14 14 14 14 14 14 14 14 14 13 13 13 12 13 13 13 13 12 12 12 12 12 11 11 12 11 11
19 18 18 17 16 19 20 20 19 18 17 17 16 15 15 14 14 14 13 13 14 13 13 13 13 13 13 13 12 12 12 12 12 12 12 12 12 11 11 11 11 11 11
21 20 19 17 16 17 16 16 15 17 15 15 14 14 14 14 14 14 14 13 13 13 13 12 13 13 12 13 12 12 12 13 12 12 12 12 11 11 11 10 10 10 11
22 21 19 18 16 16 17 17 17 16 15 14 14 15 15 14 14 14 13 13 13 12 12 12 13 12 12 12 12 12 12 10 11 12 12 11 11 10 10 10 9 10 8
24 22 20 18 17 16 17 17 17 16 18 14 14 14 14 14 14 14 13 13 13 13 13 12 12 12 12 13 12 12 11 11 10 11 12 11 10 10 10 9 8 8 8
24 23 21 19 17 16 16 16 16 16 15 17 15 14 15 14 14 14 14 14 13 13 13 13 12 13 13 13 12 11 11 11 10 11 12 11 10 10 9 9 8 8 8
23 23 21 19 17 18 15 15 15 16 15 15 17 15 14 14 14 14 13 13 13 12 13 13 12 12 12 12 11 11 10 11 12 11 11 9 10 9 9 9 9 9 9
23 22 22 20 17 18 16 16 14 15 14 15 14 15 17 16 14 13 13 13 13 12 12 12 12 11 11 11 11 11 11 11 11 11 10 10 9 9 9 9 9 9 8
23 22 22 20 18 16 15 16 15 14 14 14 13 17 17 16 15 14 12 12 12 12 12 12 12 11 11 10 10 10 10 11 11 11 10 10 9 9 9 9 9 9 9
22 22 21 20 18 16 15 15 16 14 13 14 15 17 17 16 15 13 12 12 12 12 11 12 11 10 10 10 10 10 10 10 10 11 10 10 9 9 9 9 8 8 8
20 20 20 19 19 17 16 16 15 14 13 14 14 13 13 15 15 14 12 12 12 12 12 11 11 10 10 10 9 9 10 10 10 11 11 10 9 9 9 9 8 8 8
19 19 19 19 18 17 16 16 14 13 13 13 14 13 13 13 14 13 11 11 12 11 11 11 10 10 10 9 9 9 9 9 9 10 11 10 9 9 9 8 8 8 9
18 18 18 18 18 17 16 15 13 12 13 13 14 15 14 14 13 11 11 11 11 11 11 11 10 10 9 9 9 9 9 9 9 9 10 11 9 9 8 9 9 10 9
18 17 17 17 17 17 16 14 12 12 12 12 12 13 12 13 13 12 11 11 11 11 10 10 10 11 9 9 9 9 9 10 9 8 9 11 10 9 9 9 9 9 9
18 17 16 15 16 16 16 14 12 12 12 13 12 12 12 13 13 11 11 10 11 11 10 10 10 9 9 9 9 8 9 9 10 10 9 11 10 9 9 10 10 9 9
17 16 15 15 15 15 15 14 13 12 13 14 13 12 12 12 12 11 10 11 10 10 10 10 10 9 9 8 8 8 9 9 10 11 10 10 10 10 10 10 10 10 9

GFSSE_850_temp_114.txt.gz
Temp
23 24 24 24 23 22 22 21 20 19 19 19 19 19 19 19 19 19 19 18 18 18 17 17 17 16 16 16 16 16 17 16 16 16 16 16 15 15 15 15 15 15 15
23 24 24 24 23 23 22 20 20 19 19 19 19 18 18 19 19 19 18 18 18 16 15 16 16 16 16 16 16 16 16 16 16 16 16 16 15 15 14 15 15 14 14
24 24 23 23 23 22 21 20 19 19 19 19 18 18 18 18 18 18 19 18 17 17 16 16 16 16 16 16 16 16 16 16 15 15 15 15 15 15 14 14 15 14 14
24 24 23 23 22 21 20 20 19 19 19 19 18 18 18 18 18 18 18 18 18 17 17 16 15 16 16 16 15 15 16 15 15 14 14 14 14 14 14 14 14 14 14
24 24 23 23 22 21 20 20 19 19 19 19 18 18 18 18 18 18 18 18 18 17 17 17 15 15 15 15 15 15 15 15 15 14 14 14 14 14 14 14 14 13 13
24 23 23 23 22 21 20 20 19 19 19 18 18 18 18 18 17 17 17 17 17 17 16 16 16 16 16 15 15 15 15 15 15 14 15 15 14 14 13 13 13 13 13
21 23 23 22 22 21 21 20 19 19 19 18 18 17 17 17 17 17 17 17 16 16 16 15 15 16 15 15 15 15 15 14 14 14 14 15 13 14 13 13 13 13 13
22 23 23 22 22 21 21 20 19 19 18 18 18 18 17 17 16 16 16 16 16 15 15 15 14 15 15 15 14 15 15 14 14 13 13 14 14 13 13 13 12 12 12
21 23 23 22 22 21 21 20 20 19 19 18 18 18 17 16 16 16 16 16 15 15 15 15 14 14 14 14 14 14 15 13 14 13 14 14 13 13 12 12 12 12 12
20 23 23 22 22 21 21 20 20 19 19 18 18 17 17 16 15 15 15 15 15 15 14 14 14 14 14 13 13 14 14 14 13 12 14 14 13 13 12 12 12 12 12
19 21 22 22 21 21 20 20 19 19 19 18 18 17 17 16 15 15 15 14 15 14 14 14 14 13 14 13 13 14 14 14 13 13 14 13 12 12 12 12 12 12 12
19 19 20 21 21 21 20 20 19 19 19 19 18 17 17 16 15 15 15 14 14 14 14 14 14 14 13 13 13 13 13 13 13 12 12 13 12 12 12 12 12 11 11
20 19 18 19 19 19 19 20 19 19 19 19 18 17 17 16 15 15 14 14 14 14 13 13 13 13 13 13 13 13 13 13 12 12 12 13 12 12 11 12 11 11 11
22 20 19 19 18 18 17 17 18 19 19 19 19 18 15 15 15 15 14 14 13 13 13 13 13 13 13 14 13 13 13 13 12 12 11 12 12 12 10 10 10 11 11
23 22 21 19 19 19 18 17 17 17 18 18 16 16 15 15 15 15 14 14 14 14 14 13 13 13 13 14 13 13 13 12 12 12 11 11 11 11 11 10 9 10 10
24 23 22 20 20 19 18 17 17 17 17 17 15 15 15 15 15 15 15 14 14 13 13 12 13 13 13 13 13 13 12 12 12 12 11 11 11 11 10 9 9 9 9
24 24 22 21 20 20 18 17 17 17 17 17 17 16 14 15 15 15 15 14 14 13 13 13 13 12 12 12 12 12 12 11 11 11 10 11 11 11 10 9 9 8 8
24 23 23 21 20 20 18 16 16 16 16 16 16 17 17 14 14 14 15 14 14 13 13 13 13 12 12 12 12 13 11 11 11 10 10 11 11 10 9 9 9 9 9
24 24 23 21 20 20 19 17 16 16 16 15 15 15 17 15 14 14 14 14 14 13 13 12 12 12 12 12 12 12 11 11 11 10 11 10 10 10 9 9 9 9 9
24 24 23 22 21 20 19 18 16 15 15 15 15 15 15 16 16 15 15 14 13 13 12 12 12 12 12 12 11 11 11 10 10 10 11 11 10 10 9 9 9 8 8
23 23 22 21 20 19 18 17 16 16 15 15 14 14 14 15 15 15 15 14 12 13 13 12 12 11 11 11 10 10 10 9 10 10 11 10 10 10 9 9 8 8 8
21 20 20 20 20 19 18 18 17 16 15 14 14 14 14 14 15 15 15 15 12 11 12 12 12 11 10 10 10 10 9 10 9 10 10 10 10 10 10 9 9 9 8
19 19 19 19 19 19 18 17 16 16 15 14 13 13 13 13 13 13 15 14 12 12 12 10 11 11 11 10 10 10 9 9 10 10 10 10 10 10 10 9 9 9 9
19 19 18 17 18 18 18 18 17 16 16 15 13 12 13 13 13 12 12 13 13 11 11 10 11 11 10 10 9 10 10 10 9 9 10 9 10 10 9 9 9 9 9
19 18 17 16 16 16 17 17 16 16 16 13 12 11 12 12 13 13 12 12 12 12 11 10 11 10 10 10 10 9 9 9 9 9 9 10 9 10 10 10 9 9 9
19 17 17 16 16 16 16 16 16 15 15 13 12 12 12 11 12 13 12 11 12 11 11 10 10 11 10 10 9 9 10 11 9 10 9 10 9 9 9 9 9 9 10

GFSSE_850_temp_117.txt.gz
Temp
23 23 23 23 23 23 22 20 20 19 19 19 19 19 19 19 19 19 19 19 18 18 17 17 17 16 16 16 16 16 16 16 16 16 16 16 16 15 15 15 15 15 15
24 24 23 24 23 23 22 20 19 19 19 19 19 19 19 19 19 19 19 19 18 18 17 17 16 16 16 16 16 16 16 16 16 16 15 15 15 15 15 15 15 15 15
24 24 23 23 23 22 21 20 20 19 19 19 19 19 18 18 18 19 18 18 18 18 18 17 16 16 16 16 16 16 16 15 15 15 15 15 15 15 15 15 15 14 14
24 23 23 23 22 21 20 20 19 19 19 19 19 19 18 18 18 18 18 18 17 16 16 17 17 16 16 16 16 16 15 15 15 15 15 15 15 14 14 14 14 14 14
24 23 23 23 22 21 20 20 19 19 19 19 19 18 18 18 18 18 18 18 17 16 16 17 17 17 17 16 15 15 15 15 14 15 15 15 15 14 14 14 14 14 14
23 23 23 23 22 21 20 20 20 19 19 19 18 18 18 18 17 17 17 17 17 16 16 16 17 16 16 16 15 15 15 14 14 13 14 15 14 14 13 13 13 13 13
23 23 23 22 22 21 20 20 20 19 19 19 18 18 18 17 17 17 17 17 16 15 16 15 16 16 15 15 15 15 14 14 13 13 13 14 14 14 13 13 13 13 13
24 23 23 22 22 21 21 20 19 19 19 19 19 18 17 17 17 17 16 16 16 16 15 15 15 15 15 15 15 14 14 14 13 13 13 13 13 14 13 13 13 13 13
23 23 23 22 22 22 21 21 20 19 19 19 19 18 18 17 16 16 16 16 15 15 15 15 15 15 15 15 15 14 14 14 13 13 14 12 13 13 13 13 12 13 13
22 22 23 22 22 22 21 21 21 20 19 19 19 18 18 17 16 16 16 15 15 14 14 14 14 15 15 15 14 14 14 13 13 12 13 12 13 13 13 12 12 12 12
21 22 22 22 22 22 21 21 21 20 20 19 19 18 18 17 17 16 16 15 15 14 14 14 14 14 15 15 14 14 14 13 12 13 13 12 12 13 12 11 12 12 12
21 22 22 22 22 22 21 21 21 20 20 19 18 18 18 18 17 16 16 15 15 14 14 14 14 14 14 14 14 14 14 13 12 13 12 12 12 12 12 11 11 11 11
21 21 22 22 22 22 21 21 21 20 20 19 18 18 17 17 17 16 16 15 15 14 14 14 13 14 14 14 14 14 14 13 13 12 12 12 12 12 12 12 11 11 11
21 21 21 21 21 21 21 21 21 20 20 20 19 18 17 17 16 16 16 15 14 14 14 14 13 13 13 14 14 13 13 13 13 13 13 13 11 12 13 12 10 10 11
22 22 22 22 22 21 20 21 20 20 20 19 19 19 18 17 16 15 15 15 14 14 14 14 13 13 13 13 13 13 13 13 13 12 12 12 12 11 12 12 10 9 9
22 22 22 22 23 22 22 21 20 19 18 18 18 19 18 18 16 16 15 15 15 14 14 13 13 13 13 13 13 13 13 13 12 12 12 12 11 10 12 11 10 9 9
23 22 21 22 22 21 21 20 19 19 17 17 18 18 18 17 16 16 15 15 15 14 14 13 12 12 12 12 13 13 13 13 12 12 12 12 11 10 11 11 10 9 8
24 23 22 21 21 21 21 19 18 18 17 17 17 17 17 17 16 15 15 15 14 14 13 13 12 12 12 12 13 13 13 12 12 11 11 11 11 11 10 11 10 9 9
24 24 23 22 21 21 20 20 19 18 17 16 16 16 16 16 15 15 15 14 14 13 13 13 12 12 12 12 13 12 13 12 12 11 10 10 11 10 10 11 9 9 9
24 24 23 22 22 21 20 20 19 18 16 16 16 16 15 15 15 14 14 14 13 13 13 13 12 12 12 12 12 12 12 11 11 11 10 11 10 10 10 10 9 9 9
23 24 23 22 21 20 19 18 17 19 18 16 16 16 16 15 14 13 13 13 13 13 13 13 12 12 11 11 11 11 11 11 10 10 10 10 10 10 10 10 9 9 8
23 22 21 20 20 20 19 18 18 19 19 17 16 15 15 15 14 14 14 14 13 13 12 12 12 12 12 11 11 10 10 10 10 10 10 10 10 10 10 10 10 9 8
22 21 21 19 18 19 19 18 18 17 16 16 15 14 14 14 14 13 14 13 13 12 12 12 12 11 11 10 11 10 10 10 10 10 9 10 10 10 10 10 9 9 9
21 20 20 19 19 18 17 17 18 18 18 17 16 15 14 14 14 13 13 13 13 12 11 10 10 10 11 10 10 10 10 11 9 9 9 9 10 10 10 10 10 9 9
19 18 18 18 18 18 18 17 16 17 17 16 16 15 14 14 13 13 12 12 12 12 11 11 10 10 10 10 10 10 10 10 11 10 9 9 9 9 9 10 10 10 9
17 16 16 16 16 16 16 15 16 15 17 16 16 15 14 13 13 13 12 12 12 11 12 11 10 10 10 10 10 9 10 10 10 10 9 9 9 9 9 9 10 10 9

GFSSE_850_temp_120.txt.gz
Temp
22 23 23 23 22 22 21 21 20 20 20 19 19 19 19 19 20 19 19 19 18 18 17 17 17 17 17 16 16 16 16 15 15 16 15 16 15 16 15 15 15 15 15
24 23 23 23 22 22 22 21 20 19 19 19 19 19 19 19 19 19 19 18 18 18 17 17 17 16 16 16 16 15 15 15 15 15 15 15 16 15 15 15 15 15 15
24 24 23 23 22 22 21 20 20 19 19 19 19 19 19 19 19 19 18 18 18 18 18 17 17 16 16 16 16 15 16 15 15 15 15 15 15 15 15 15 15 14 14
25 24 23 23 22 22 21 20 19 19 19 19 18 18 18 18 18 18 18 18 18 18 18 17 17 16 16 16 15 15 16 15 15 15 15 15 15 15 14 14 14 14 14
24 23 23 22 22 21 21 20 19 19 19 19 19 18 18 18 18 18 18 18 17 17 17 17 16 16 16 15 15 15 15 14 14 14 15 15 15 14 14 14 14 14 14
23 23 23 22 22 21 20 20 19 19 19 19 18 18 18 18 18 18 17 17 17 17 16 16 16 16 15 15 15 15 14 14 14 14 14 14 14 14 14 14 14 14 13
23 23 23 22 21 21 20 20 20 19 19 19 19 18 18 18 17 17 17 17 17 16 16 16 16 15 15 15 14 14 14 14 14 14 13 13 14 14 14 13 13 13 13
23 23 23 22 21 21 20 20 19 19 19 19 19 18 18 18 18 17 17 17 17 16 16 16 16 15 15 15 14 14 13 14 14 13 13 13 13 14 14 13 13 13 13
23 23 23 22 21 21 21 20 20 19 19 19 19 18 18 18 17 17 17 16 16 16 16 16 16 16 15 15 14 13 13 13 13 13 13 13 13 13 13 13 13 12 12
23 23 23 22 22 21 21 20 20 19 19 19 19 18 18 18 17 17 16 16 16 16 15 15 15 15 15 15 14 13 13 13 13 13 13 14 13 13 13 13 12 12 12
22 22 22 22 22 22 21 21 20 20 19 19 19 18 18 18 17 17 17 16 15 15 15 15 15 15 15 15 14 13 13 13 13 13 14 14 13 13 13 13 12 12 12
22 22 22 22 22 22 21 21 21 20 20 20 19 19 18 18 17 17 16 16 15 15 15 15 15 14 14 15 14 13 13 13 13 13 14 14 13 13 12 12 12 12 11
23 22 22 22 22 22 21 21 21 21 20 20 20 19 18 17 17 16 16 15 15 14 14 14 14 14 14 14 14 13 13 13 13 13 13 14 12 12 13 12 12 12 11
23 23 22 21 22 22 21 21 21 21 21 20 20 19 18 18 17 16 16 15 15 15 15 14 14 14 14 14 14 13 13 13 13 13 13 13 13 12 12 12 12 12 11
23 22 23 22 22 22 21 21 21 21 21 20 20 19 19 18 18 17 16 15 15 14 14 14 14 14 14 13 13 13 13 13 12 12 12 12 12 12 13 12 12 11 11
22 22 22 22 22 22 22 22 22 21 21 20 20 19 19 18 18 17 16 16 15 14 14 14 14 14 13 13 13 13 13 13 12 12 12 12 11 11 12 12 11 11 11
22 22 22 23 22 22 22 22 22 22 20 20 20 19 19 18 18 17 16 16 15 14 14 13 13 13 13 13 13 12 13 13 12 12 12 12 11 11 10 11 11 11 10
23 22 22 22 22 22 21 21 21 21 20 20 20 18 18 18 17 16 16 15 15 14 14 13 13 13 13 13 13 13 13 13 12 12 12 11 11 11 11 11 10 11 10
23 23 22 21 21 22 21 21 21 21 20 20 19 18 17 17 17 16 16 15 14 14 14 14 13 13 13 12 12 12 12 12 12 12 12 11 11 11 11 10 10 10 10
23 23 23 22 22 22 21 20 19 19 19 18 18 18 17 16 16 16 16 15 14 14 14 13 13 12 12 12 12 12 12 12 11 12 11 10 11 10 10 10 10 9 9
23 23 23 22 22 21 20 19 18 17 18 17 18 18 17 16 15 16 15 15 13 13 13 13 12 12 11 11 12 11 11 11 11 11 11 11 10 10 10 10 10 9 9
23 23 23 22 22 22 21 20 18 18 17 17 17 18 16 16 15 15 15 14 13 13 13 12 12 12 11 11 11 11 10 10 11 11 10 10 10 10 10 10 10 9 9
22 22 22 22 22 21 21 19 19 18 17 17 16 16 17 15 15 14 14 14 13 13 13 12 12 11 11 11 11 11 10 10 10 10 10 10 10 10 10 10 10 9 9
20 20 20 19 18 18 18 18 18 18 17 18 18 17 17 16 14 14 13 13 13 12 12 12 12 11 11 10 10 10 10 10 10 9 10 10 10 10 10 10 9 9 9
16 16 16 16 16 16 16 16 16 16 16 17 17 17 17 15 15 15 14 14 13 12 12 12 11 11 10 10 10 10 9 10 10 10 9 10 9 9 10 10 10 10 9
15 16 16 16 16 15 16 16 15 15 14 14 15 16 16 15 15 15 14 14 13 13 12 12 12 11 10 10 9 10 10 10 9 9 10 9 9 9 9 9 9 9 9

GFSSE_850_temp_126.txt.gz
Temp
23 22 21 20 20 20 20 20 20 20 20 20 20 20 19 19 18 18 18 18 18 17 17 16 16 16 16 16 16 16 16 16 16 16 16 16 15 15 15 16 15 15 15
24 22 21 21 20 20 20 20 20 20 20 20 19 19 19 19 19 18 18 18 18 17 17 16 16 16 16 16 16 16 16 16 16 15 15 15 15 15 15 15 15 15 15
24 23 21 21 20 20 20 19 19 19 19 19 19 19 19 19 19 18 18 18 18 17 16 16 16 16 16 16 16 16 16 15 15 15 15 14 15 15 14 15 15 15 14
25 23 21 21 20 20 19 19 19 19 19 19 19 19 19 19 19 18 18 18 18 17 17 16 16 16 16 16 16 16 16 15 15 15 15 15 15 15 15 14 15 14 14
24 23 21 21 21 20 20 19 19 19 18 19 18 18 19 19 19 18 18 18 18 17 17 17 16 16 16 16 16 15 15 15 15 14 14 15 15 14 14 14 14 14 14
23 23 22 22 21 20 20 19 18 18 18 18 18 18 18 18 18 18 18 18 18 17 17 17 16 16 16 16 15 15 15 15 14 14 14 14 15 14 14 14 14 14 13
24 23 23 22 21 20 20 19 18 18 18 18 18 18 18 18 18 18 18 17 17 17 17 17 16 16 16 16 15 15 15 15 14 14 14 14 14 14 14 14 13 13 13
24 23 23 21 21 20 19 19 18 18 18 18 18 18 18 18 18 17 17 17 17 17 17 16 16 16 16 16 15 15 15 14 14 14 14 14 14 14 14 14 13 13 12
23 23 22 22 21 20 19 19 19 18 18 18 18 18 18 18 17 17 17 17 17 16 16 16 15 15 15 15 15 15 14 14 14 14 14 14 14 14 14 14 13 13 13
23 22 22 21 20 20 20 19 19 19 19 18 18 18 18 17 17 17 17 17 16 16 16 15 15 15 15 15 14 14 14 14 14 14 14 14 14 13 13 13 13 14 13
22 22 22 21 20 19 19 19 19 18 18 18 18 18 17 17 17 17 17 17 17 16 16 15 15 15 15 14 14 14 14 14 14 14 14 13 13 13 13 13 13 13 13
22 22 22 21 20 19 19 19 19 18 18 18 18 18 18 17 17 17 17 17 16 16 15 15 14 14 15 15 14 14 14 14 13 14 14 13 13 13 13 13 12 12 13
23 22 22 21 21 20 19 19 19 19 18 18 18 18 18 18 17 17 17 16 16 16 15 15 14 14 14 14 14 14 14 14 13 13 13 13 13 13 13 12 12 12 12
23 23 22 22 21 20 20 19 19 19 19 19 19 18 18 18 18 17 17 17 17 16 16 15 15 14 14 14 14 14 13 13 13 13 13 13 13 13 13 13 13 12 12
21 22 22 22 21 21 20 20 20 20 20 20 19 19 19 18 18 18 17 17 17 16 16 15 15 14 14 13 13 13 13 13 13 13 13 13 13 12 12 12 12 12 12
20 21 21 22 21 21 21 21 21 21 21 20 20 20 19 19 19 18 18 17 17 16 16 15 14 14 13 13 13 13 13 13 13 13 13 12 13 12 12 12 12 11 11
20 21 21 21 21 21 21 21 21 21 21 21 21 20 19 19 19 18 17 17 17 16 16 15 14 13 13 12 12 12 12 12 12 12 12 12 12 12 11 12 11 11 11
19 20 21 21 21 21 21 21 21 21 21 21 21 20 19 19 18 18 17 17 16 15 15 15 14 13 13 12 12 12 12 12 12 12 11 11 11 11 11 11 11 11 10
20 20 21 20 21 21 21 20 21 21 21 20 20 19 19 18 18 17 17 17 16 15 15 14 14 13 13 12 12 12 12 12 12 12 12 11 11 11 11 11 11 11 11
20 20 20 21 20 21 20 20 19 20 20 20 19 19 19 18 18 17 17 16 16 15 15 14 13 13 12 12 12 12 12 12 12 11 12 12 11 10 10 10 10 10 10
20 20 20 21 20 20 19 20 19 20 20 20 20 19 19 18 17 17 17 16 16 15 15 14 13 13 12 12 12 12 12 12 12 12 11 11 11 11 10 10 10 10 10
22 21 21 21 21 20 20 20 19 20 19 19 19 19 18 17 17 17 16 16 16 15 14 13 13 13 12 12 12 12 11 11 12 12 12 12 11 11 10 10 10 10 9
21 22 21 21 21 21 20 19 18 17 17 18 18 18 18 17 17 16 16 16 15 15 14 14 13 13 13 12 12 12 11 11 11 12 12 12 12 12 11 10 10 10 9
20 21 21 21 21 21 19 19 18 18 18 18 19 17 17 17 17 17 17 16 16 14 14 14 13 13 13 12 12 11 11 12 11 11 11 12 12 11 10 9 10 10 9
18 19 19 19 19 19 17 16 16 16 17 17 18 17 17 16 16 16 17 16 15 14 14 14 14 13 14 13 13 12 11 11 11 11 10 10 11 11 11 10 10 9 9
15 15 16 16 17 16 16 13 14 14 15 17 17 17 16 16 13 15 16 15 15 15 14 14 14 14 14 13 13 12 12 12 11 11 11 10 10 10 11 11 10 10 9

GFSSE_850_temp_132.txt.gz
Temp
22 24 23 22 21 21 20 20 20 20 20 19 19 19 18 18 19 19 19 18 18 18 17 17 17 17 17 17 17 17 16 16 16 16 16 16 16 15 16 15 15 15 15
21 24 23 22 21 21 20 20 19 20 20 19 19 19 18 18 18 18 19 18 18 18 17 17 17 17 17 17 17 16 16 16 16 16 16 16 16 16 16 15 15 15 16
20 24 23 22 21 21 20 19 19 19 19 19 19 19 18 18 18 18 18 18 18 18 17 17 17 17 17 16 16 16 16 16 16 16 16 14 14 15 15 15 15 15 15
20 24 23 22 21 21 20 19 19 19 19 19 19 19 18 18 18 18 18 18 18 18 17 17 17 17 17 17 16 16 16 16 16 16 15 15 14 15 15 15 14 15 14
19 22 22 22 21 21 20 19 19 19 19 19 19 19 19 18 18 18 18 18 18 17 17 17 17 17 17 17 16 16 16 16 15 15 16 15 14 15 15 15 14 14 14
20 20 22 22 21 21 20 19 19 19 19 19 19 19 18 18 18 18 18 18 18 17 17 17 17 17 17 16 16 16 16 15 15 16 15 14 14 14 14 14 14 14 14
19 20 22 21 21 20 20 19 19 19 18 18 18 19 18 18 18 18 18 18 18 18 17 17 17 17 16 16 16 16 15 15 15 15 15 14 14 15 14 14 14 14 14
17 19 21 21 20 20 19 19 19 18 18 18 18 18 18 18 18 18 18 18 18 18 17 17 17 17 16 16 16 16 15 15 14 14 15 15 14 14 14 14 14 13 13
18 18 20 20 19 19 19 19 18 18 18 18 18 18 18 18 18 18 17 17 17 17 17 17 17 16 16 16 16 15 15 15 14 14 14 15 14 14 14 14 13 13 13
20 19 20 19 19 18 18 18 18 18 18 18 18 18 18 18 18 17 17 17 17 17 17 17 17 16 16 15 15 15 15 14 14 14 14 14 14 13 14 13 13 13 12
17 17 17 16 18 18 18 18 17 17 17 17 17 17 17 17 17 17 17 17 17 17 16 16 16 16 16 15 15 15 14 14 14 14 14 14 14 14 13 13 13 13 12
16 16 16 16 17 15 15 16 17 17 17 17 17 17 16 15 14 15 15 16 16 16 16 16 16 15 15 15 15 15 14 14 13 14 14 14 13 13 13 13 13 13 12
18 16 16 15 15 15 15 15 15 15 15 16 16 17 15 14 14 14 14 15 15 15 15 15 15 15 14 14 14 13 13 13 14 14 13 14 13 13 13 13 13 13 13
19 17 16 15 15 15 16 15 16 15 15 15 15 15 15 14 14 14 15 14 14 14 14 14 13 14 13 13 13 13 13 13 14 13 13 13 13 13 13 12 12 13 12
20 17 16 15 15 15 14 15 14 15 14 15 14 15 15 15 15 14 15 15 15 14 14 14 14 14 13 13 13 13 13 13 13 13 13 13 13 13 13 12 12 12 12
19 18 16 15 15 15 14 14 14 17 14 14 14 17 17 15 14 14 14 15 15 14 14 14 14 14 14 14 13 13 13 13 13 12 13 13 13 13 13 13 12 12 12
18 18 17 15 16 18 18 15 14 14 17 18 18 18 18 17 14 14 15 14 14 14 14 14 14 14 14 14 13 13 13 12 13 12 12 13 13 13 12 13 12 12 11
17 18 18 16 14 18 19 15 14 14 18 18 18 18 18 18 16 17 16 16 14 14 14 13 13 13 13 13 13 13 13 13 12 12 12 12 12 12 12 12 12 12 12
16 17 18 17 14 15 19 18 14 14 16 18 18 18 18 18 18 18 17 17 15 15 15 14 13 13 13 13 13 13 12 12 13 12 12 12 12 12 12 11 12 12 11
16 17 17 17 14 15 18 19 16 14 14 14 15 18 18 18 19 18 17 17 17 14 15 15 15 13 13 13 13 12 12 12 12 12 12 12 12 11 11 11 11 11 11
14 15 16 17 15 13 14 17 17 16 17 14 14 17 17 19 18 18 18 18 17 14 14 16 15 15 13 12 13 12 12 12 12 12 12 12 11 11 11 11 11 11 11
13 14 15 16 16 14 14 16 19 19 18 17 17 18 19 19 18 18 18 14 15 14 13 15 15 14 13 13 13 12 12 12 12 12 11 11 11 11 11 12 11 11 11
12 12 13 16 17 15 14 14 16 16 15 14 14 14 14 16 18 18 17 14 13 14 13 15 15 13 13 13 13 13 12 14 14 12 12 11 11 11 11 11 11 11 11
12 12 13 15 16 16 14 14 15 17 16 16 16 14 14 13 14 16 16 14 15 16 15 14 14 14 13 13 13 13 13 14 14 14 12 12 11 11 13 13 12 11 12
12 12 13 15 16 16 15 14 14 16 17 16 15 14 13 14 13 14 14 13 15 14 14 13 13 13 14 14 13 13 13 13 13 13 14 12 11 12 13 11 11 10 12
9 11 12 13 16 16 14 14 14 15 15 15 14 14 13 14 16 17 16 16 14 13 13 13 14 13 13 13 13 13 13 13 12 12 12 12 12 12 12 11 11 10 12